Date StartTime U_cm/s V_cm/s W_cm/s Ustd_cm/s Vstd_cm/s Wstd_cm/s Uvar_(cm/s)^2 Vvar_(cm/s)^2 Wvar_(cm/s)^2 KE_(m/s)^2 TurbulentKE_(m/s)^2 HorizWindSpeed_cm/s FrictionSpeec_cm/s DragCoef SpeedOfSound_m/s SonicTemperature_C Pressure_mb 
05/30/2014  00:00:00      -63.834      -60.223        6.794       44.356       36.856       24.265     1967.469     1358.334      588.774        0.583        0.196       87.758       28.492        0.105      340.487       14.541      859.759
05/30/2014  00:01:00      -82.160      -63.777        1.167       43.336       30.964       25.073     1877.975      958.740      628.649        0.714        0.173      104.009       21.938        0.044      340.441       14.464      859.768
05/30/2014  00:02:00      -87.529      -71.523       -3.056       53.590       33.601       26.633     2871.864     1129.017      709.337        0.875        0.236      113.035       28.389        0.063      340.412       14.414      859.772
05/30/2014  00:03:00      -91.270      -84.330        1.481       48.054       40.653       23.148     2309.219     1652.660      535.849        0.997        0.225      124.265       24.319        0.038      340.409       14.411      859.762
05/30/2014  00:04:00      -78.653      -70.916        9.356       57.690       35.815       30.027     3328.141     1282.695      901.613        0.841        0.276      105.903       32.691        0.095      340.431       14.446      859.750
05/30/2014  00:05:00      -51.038      -55.486        7.801       54.175       41.154       29.330     2934.894     1693.654      860.244        0.562        0.274       75.390       26.870        0.127      340.398       14.390      859.750
05/30/2014  00:06:00      -48.053      -51.107        7.995       56.619       37.593       26.662     3205.659     1413.217      710.848        0.516        0.266       70.150       29.687        0.179      340.320       14.258      859.748
05/30/2014  00:07:00     -109.540      -80.090        4.837       52.118       57.042       30.888     2716.303     3253.837      954.057        1.268        0.346      135.696       31.282        0.053      340.272       14.177      859.742
05/30/2014  00:08:00     -120.317      -71.254        6.625       49.338       43.699       32.316     2434.244     1909.561     1044.337        1.249        0.269      139.833       26.289        0.035      340.362       14.331      859.740
05/30/2014  00:09:00      -91.477      -82.080       13.305       66.139       47.083       26.608     4374.432     2216.778      707.987        1.129        0.365      122.903       25.514        0.043      340.390       14.378      859.746
05/30/2014  00:10:00      -96.172      -81.520        4.563       67.435       39.634       31.616     4547.466     1570.824      999.573        1.152        0.356      126.074       32.114        0.065      340.414       14.418      859.759
05/30/2014  00:11:00     -122.882      -74.707        1.187       62.190       45.854       32.124     3867.571     2102.603     1031.937        1.384        0.350      143.809       35.220        0.060      340.381       14.362      859.761
05/30/2014  00:12:00     -135.844      -92.833       -1.410       40.362       33.361       24.324     1629.097     1112.973      591.644        1.520        0.167      164.534       23.148        0.020      340.374       14.350      859.759
05/30/2014  00:13:00     -104.790      -87.997       -5.147       32.594       46.951       21.829     1062.352     2204.404      476.502        1.125        0.187      136.837       14.659        0.011      340.370       14.345      859.780
05/30/2014  00:14:00      -99.520      -82.193       -7.630       21.806       16.881       16.628      475.496      284.954      276.507        0.888        0.052      129.073        9.114        0.005      340.380       14.362      859.790
05/30/2014  00:15:00      -85.455      -63.202       -0.410       28.254       22.950       20.417      798.294      526.711      416.849        0.652        0.087      106.287       15.913        0.022      340.371       14.345      859.788
05/30/2014  00:16:00      -93.969      -63.219       -5.899       22.999       18.272       20.480      528.942      333.877      419.447        0.707        0.064      113.255        6.975        0.004      340.364       14.334      859.786
05/30/2014  00:17:00      -95.783      -69.286       -4.615       25.964       32.579       14.449      674.154     1061.361      208.775        0.797        0.097      118.215       12.441        0.011      340.347       14.305      859.786
05/30/2014  00:18:00      -61.688      -34.084        5.522       45.011       27.552       21.246     2025.966      759.099      451.397        0.412        0.162       70.478       25.545        0.131      340.289       14.206      859.789
05/30/2014  00:19:00      -53.972      -42.964        6.486       44.975       25.031       19.973     2022.783      626.537      398.929        0.392        0.152       68.985       19.850        0.083      340.265       14.167      859.782
05/30/2014  00:20:00      -53.569      -57.318        2.024       42.089       30.566       23.414     1771.471      934.269      548.217        0.471        0.163       78.453       20.537        0.069      340.282       14.195      859.777
05/30/2014  00:21:00      -76.472      -55.685       -0.087       36.589       30.869       19.666     1338.767      952.906      386.757        0.581        0.134       94.598       20.814        0.048      340.371       14.344      859.781
05/30/2014  00:22:00      -66.295      -57.871        0.172       34.801       30.683       17.722     1211.079      941.472      314.083        0.510        0.123       88.001       14.058        0.026      340.304       14.230      859.792
05/30/2014  00:23:00      -87.591      -82.130       -3.346       23.865       21.177       17.465      569.518      448.471      305.028        0.788        0.066      120.073       12.038        0.010      340.329       14.274      859.801
05/30/2014  00:24:00      -75.340      -50.741        0.103       45.376       32.613       18.048     2058.940     1063.599      325.746        0.585        0.172       90.834       17.733        0.038      340.342       14.297      859.807
05/30/2014  00:25:00      -52.566      -58.770        6.456       28.497       34.873       19.458      812.107     1216.116      378.610        0.433        0.120       78.848       16.314        0.043      340.370       14.343      859.817
05/30/2014  00:26:00      -50.246      -53.489        4.747       25.071       26.809       19.488      628.543      718.726      379.767        0.357        0.086       73.387       15.096        0.042      340.417       14.424      859.831
05/30/2014  00:27:00      -61.373      -62.823       -1.870       38.606       43.697       20.083     1490.404     1909.444      403.314        0.576        0.190       87.826       23.029        0.069      340.395       14.385      859.832
05/30/2014  00:28:00     -100.548     -115.435       -8.304       56.128       37.994       27.764     3150.314     1443.569      770.819        1.443        0.268      153.085       23.184        0.023      340.396       14.387      859.829
05/30/2014  00:29:00     -125.267     -122.479      -17.800       40.357       33.565       18.821     1628.715     1126.632      354.229        1.706        0.155      175.194       12.184        0.005      340.402       14.396      859.817
05/30/2014  00:30:00     -109.999     -110.817       -9.228       41.179       33.962       24.514     1695.702     1153.415      600.916        1.396        0.173      156.141       21.414        0.019      340.338       14.290      859.814
05/30/2014  00:31:00     -111.506      -86.082        0.845       39.233       36.957       24.918     1539.236     1365.826      620.905        1.168        0.176      140.867       21.779        0.024      340.276       14.186      859.818
05/30/2014  00:32:00     -120.361      -88.465      -12.859       33.081       34.250       24.407     1094.346     1173.073      595.679        1.267        0.143      149.375       19.684        0.017      340.194       14.045      859.824
05/30/2014  00:33:00      -66.017      -52.996        9.921       59.504       47.197       29.435     3540.782     2227.534      866.429        0.695        0.332       84.658       23.983        0.080      340.140       13.955      859.823
05/30/2014  00:34:00      -38.124      -56.429       13.982       53.728       42.605       25.091     2886.721     1815.173      629.537        0.508        0.267       68.100       20.005        0.086      340.216       14.083      859.817
05/30/2014  00:35:00      -33.107      -50.487       -0.464       60.079       38.994       21.950     3609.535     1520.525      481.786        0.463        0.281       60.374       17.084        0.080      340.134       13.945      859.817
05/30/2014  00:36:00      -29.755      -37.650       12.963       54.055       39.236       25.868     2921.936     1539.450      669.130        0.380        0.257       47.989       22.304        0.216      340.196       14.050      859.825
05/30/2014  00:37:00      -22.997      -63.069       11.143       34.286       40.788       25.895     1175.506     1663.683      670.557        0.407        0.175       67.131       22.707        0.114      340.217       14.084      859.830
05/30/2014  00:38:00       -7.692      -58.448        6.590       36.285       24.570       20.122     1316.627      603.706      404.885        0.292        0.116       58.952        7.577        0.017      340.239       14.122      859.830
05/30/2014  00:39:00      -51.742      -56.917        3.064       48.715       42.152       29.811     2373.113     1776.749      888.681        0.548        0.252       76.921       30.313        0.155      340.199       14.053      859.839
05/30/2014  00:40:00      -33.318      -43.457       -0.101       30.077       19.392       22.576      904.624      376.069      509.658        0.239        0.090       54.759       12.180        0.049      340.072       13.840      859.847
05/30/2014  00:41:00      -11.469      -24.746        4.505       34.368       40.077       21.527     1181.132     1606.197      463.419        0.201        0.163       27.275       18.772        0.474      339.960       13.651      859.847
05/30/2014  00:42:00      -38.484      -62.915       -5.362       44.393       42.819       22.557     1970.715     1833.441      508.838        0.489        0.216       73.752       24.518        0.111      340.081       13.857      859.839
05/30/2014  00:43:00      -83.389      -78.311        4.290       46.741       37.862       24.027     2184.677     1433.540      577.299        0.865        0.210      114.396       16.261        0.020      340.090       13.871      859.829
05/30/2014  00:44:00      -93.355      -64.961        0.575       54.267       37.419       22.801     2944.947     1400.211      519.895        0.890        0.243      113.732       23.239        0.042      340.033       13.773      859.827
05/30/2014  00:45:00      -56.917      -91.353       -1.130       47.971       51.531       29.084     2301.244     2655.397      845.901        0.869        0.290      107.634       26.969        0.063      340.039       13.785      859.825
05/30/2014  00:46:00     -128.601      -80.149       -3.238       56.521       41.528       24.816     3194.679     1724.597      615.828        1.425        0.277      151.533        5.948        0.002      340.019       13.750      859.824
05/30/2014  00:47:00     -154.679      -74.531        2.186       64.371       51.413       30.249     4143.667     2643.295      914.978        1.859        0.385      171.699       35.319        0.042      339.905       13.559      859.814
05/30/2014  00:48:00     -155.504      -75.848        2.113       70.168       69.606       42.526     4923.613     4844.966     1808.419        2.076        0.579      173.016       44.627        0.067      339.878       13.510      859.812
05/30/2014  00:49:00     -139.401      -71.336        2.701       56.728       48.304       32.797     3218.086     2333.289     1075.627        1.558        0.331      156.594       31.157        0.040      339.869       13.497      859.801
05/30/2014  00:50:00     -112.689     -100.954       -6.155       59.416       72.219       34.183     3530.276     5215.619     1168.482        1.642        0.496      151.296       36.278        0.057      339.820       13.414      859.777
05/30/2014  00:51:00      -95.781      -95.490       -4.275       58.336       65.797       34.720     3403.102     4329.181     1205.454        1.362        0.447      135.250       31.128        0.053      339.794       13.373      859.767
05/30/2014  00:52:00     -124.008      -54.129       -1.191       31.995       54.391       23.334     1023.712     2958.414      544.489        1.142        0.226      135.307       22.534        0.028      339.821       13.417      859.756
05/30/2014  00:53:00     -128.778      -33.311        7.861       69.943       48.668       34.023     4892.027     2368.596     1157.589        1.308        0.421      133.016       35.056        0.069      339.658       13.142      859.762
05/30/2014  00:54:00     -154.984      -51.237        5.818       68.859       55.545       31.949     4741.515     3085.269     1020.737        1.776        0.442      163.234       40.264        0.061      339.555       12.967      859.754
05/30/2014  00:55:00     -154.012      -36.059       -9.095       29.477       31.621       20.333      868.916      999.908      413.421        1.369        0.114      158.177       13.349        0.007      339.599       13.044      859.740
05/30/2014  00:56:00     -137.558      -29.125       -6.361       52.228       42.386       26.695     2727.745     1796.592      712.647        1.252        0.262      140.608       26.129        0.035      339.541       12.943      859.736
05/30/2014  00:57:00     -137.616      -54.750       -3.792       53.995       36.321       21.508     2915.481     1319.236      462.598        1.332        0.235      148.107       25.043        0.029      339.457       12.802      859.733
05/30/2014  00:58:00     -140.159      -89.705        4.205       46.268       31.916       25.152     2140.701     1018.616      632.615        1.575        0.190      166.407       24.249        0.021      339.486       12.852      859.735
05/30/2014  00:59:00     -130.552     -103.298       -6.034       53.779       43.612       22.657     2892.233     1902.029      513.358        1.653        0.265      166.476       18.890        0.013      339.532       12.929      859.733
05/30/2014  01:00:00     -130.900     -125.660        2.842       64.526       42.814       32.050     4163.637     1833.065     1027.181        1.998        0.351      181.453       25.413        0.020      339.482       12.844      859.731
05/30/2014  01:01:00     -139.380      -89.161        8.054       64.180       39.615       30.378     4119.121     1569.369      922.815        1.703        0.331      165.459       27.761        0.028      339.466       12.817      859.734
05/30/2014  01:02:00     -108.104      -63.732        1.983       49.726       30.476       28.412     2472.632      928.813      807.251        0.998        0.210      125.491       30.303        0.058      339.467       12.819      859.748
05/30/2014  01:03:00     -134.800      -32.233      -12.445       48.435       41.118       27.638     2345.980     1690.669      763.862        1.208        0.240      138.600       22.914        0.027      339.555       12.969      859.732
05/30/2014  01:04:00     -124.697      -74.160       -1.856       51.367       52.715       27.851     2638.520     2778.886      775.689        1.362        0.310      145.083       29.942        0.043      339.500       12.876      859.723
05/30/2014  01:05:00     -155.614      -34.454        0.187       63.429       33.486       29.769     4023.242     1121.282      886.202        1.572        0.302      159.382       25.965        0.027      339.462       12.810      859.716
05/30/2014  01:06:00     -172.735      -56.756       -8.067       41.734       35.996       24.335     1741.707     1295.694      592.207        1.838        0.181      181.820       19.299        0.011      339.439       12.772      859.699
05/30/2014  01:07:00     -164.893      -55.156       -3.994       35.907       44.783       23.474     1289.280     2005.559      551.017        1.705        0.192      173.874       16.956        0.010      339.414       12.731      859.679
05/30/2014  01:08:00     -155.807      -31.130       -8.953       43.845       45.113       22.188     1922.370     2035.221      492.309        1.489        0.222      158.887       19.238        0.015      339.436       12.767      859.667
05/30/2014  01:09:00     -165.518      -41.925      -10.072       29.158       29.700       21.197      850.215      882.076      449.309        1.572        0.109      170.746       14.703        0.007      339.415       12.733      859.658
05/30/2014  01:10:00     -154.102      -61.321       -6.888       39.635       35.779       21.167     1570.930     1280.143      448.028        1.543        0.165      165.854       18.883        0.013      339.454       12.797      859.661
05/30/2014  01:11:00     -106.996      -66.495        3.466       45.559       36.550       32.779     2075.630     1335.869     1074.488        1.018        0.224      125.975       26.923        0.046      339.471       12.826      859.670
05/30/2014  01:12:00      -83.074      -72.039        2.347       39.026       29.709       23.896     1522.995      882.610      571.036        0.754        0.149      109.958       22.682        0.043      339.536       12.938      859.678
05/30/2014  01:13:00      -51.447      -48.781       10.699       38.252       38.636       19.414     1463.194     1492.732      376.897        0.424        0.167       70.897       19.316        0.074      339.607       13.057      859.676
05/30/2014  01:14:00      -64.297      -77.303        0.376       54.727       43.778       27.660     2995.096     1916.534      765.093        0.789        0.284      100.548       32.918        0.107      339.638       13.108      859.682
05/30/2014  01:15:00      -94.584     -127.039      -10.853       39.269       32.742       18.615     1542.071     1072.055      346.513        1.408        0.148      158.382       11.968        0.006      339.642       13.115      859.680
05/30/2014  01:16:00      -78.605     -104.323       -5.041       44.339       45.005       26.046     1965.966     2025.487      678.378        1.088        0.233      130.622       23.910        0.034      339.689       13.195      859.673
05/30/2014  01:17:00     -101.581     -107.774       -9.269       31.247       37.730       24.862      976.403     1423.518      618.117        1.252        0.151      148.102       22.773        0.024      339.651       13.129      859.664
05/30/2014  01:18:00     -103.366      -70.956       -4.316       35.417       26.978       21.911     1254.349      727.809      480.106        0.910        0.123      125.377       14.901        0.014      339.563       12.982      859.664
05/30/2014  01:19:00      -89.355      -90.045       -3.139       41.749       41.384       24.572     1743.005     1712.614      603.760        1.008        0.203      126.856       12.570        0.010      339.476       12.835      859.648
05/30/2014  01:20:00     -134.847      -70.753       -5.395       48.010       39.988       30.167     2304.919     1599.000      910.032        1.402        0.241      152.281       27.786        0.033      339.404       12.713      859.633
05/30/2014  01:21:00      -92.445      -63.963        3.623       49.226       34.189       24.712     2423.158     1168.907      610.659        0.843        0.210      112.416       25.597        0.052      339.441       12.777      859.623
05/30/2014  01:22:00      -77.247      -66.783        5.599       46.990       32.060       31.078     2208.100     1027.830      965.818        0.733        0.210      102.113       24.973        0.060      339.457       12.804      859.632
05/30/2014  01:23:00      -90.191      -83.164        4.267       52.938       41.535       27.342     2802.406     1725.118      747.563        1.017        0.264      122.681       26.643        0.047      339.485       12.851      859.631
05/30/2014  01:24:00     -122.987      -94.970        3.711       49.853       40.247       30.514     2485.355     1619.855      931.109        1.460        0.252      155.387       30.782        0.039      339.498       12.871      859.620
05/30/2014  01:25:00     -106.952      -85.937        2.451       53.459       45.643       29.741     2857.905     2083.324      884.519        1.233        0.291      137.200       27.480        0.040      339.523       12.914      859.614
05/30/2014  01:26:00     -138.883     -108.580      -12.236       45.344       41.556       26.907     2056.059     1726.886      724.011        1.787        0.225      176.290       24.996        0.020      339.511       12.892      859.607
05/30/2014  01:27:00      -91.060      -68.819        9.082       50.113       42.048       30.291     2511.287     1768.046      917.534        0.915        0.260      114.140       27.101        0.056      339.441       12.776      859.592
05/30/2014  01:28:00     -121.541      -93.929       -0.433       79.816       38.548       28.151     6370.613     1485.924      792.486        1.612        0.432      153.606       37.396        0.059      339.433       12.762      859.577
05/30/2014  01:29:00     -122.871      -84.557        2.776       53.328       47.391       24.748     2843.856     2245.929      612.447        1.398        0.285      149.155       18.608        0.016      339.478       12.837      859.583
05/30/2014  01:30:00     -156.885     -113.438      -10.194       26.711       37.479       24.131      713.472     1404.663      582.302        2.014        0.135      193.600       13.376        0.005      339.483       12.847      859.583
05/30/2014  01:31:00      -99.231      -66.666       -1.083       50.288       39.650       23.972     2528.920     1572.085      574.663        0.948        0.234      119.545       15.797        0.017      339.568       12.991      859.584
05/30/2014  01:32:00     -138.608      -87.587       -6.345       47.770       30.456       28.133     2281.974      927.543      791.451        1.546        0.200      163.962       26.579        0.026      339.623       13.084      859.589
05/30/2014  01:33:00     -110.641      -79.274       -1.013       43.240       44.135       22.921     1869.655     1947.868      525.365        1.143        0.217      136.109       23.702        0.030      339.614       13.067      859.598
05/30/2014  01:34:00     -134.020      -94.291       -1.904       34.608       38.507       20.903     1197.733     1482.805      436.922        1.499        0.156      163.866       13.833        0.007      339.687       13.191      859.596
05/30/2014  01:35:00      -58.505      -67.353        4.746       39.079       37.156       23.683     1527.152     1380.555      560.882        0.572        0.173       89.215       18.256        0.042      339.614       13.067      859.598
05/30/2014  01:36:00      -89.426      -64.861        7.155       53.028       34.325       24.701     2812.008     1178.176      610.142        0.843        0.230      110.471       21.474        0.038      339.578       13.007      859.586
05/30/2014  01:37:00      -57.278      -62.322       10.224       38.505       39.360       21.136     1482.624     1549.249      446.728        0.537        0.174       84.645       21.066        0.062      339.580       13.010      859.588
05/30/2014  01:38:00      -75.529      -82.649        6.432       37.452       44.943       26.012     1402.636     2019.874      676.642        0.834        0.205      111.962       27.683        0.061      339.577       13.005      859.591
05/30/2014  01:39:00      -70.029      -50.289        5.970       35.215       29.191       21.302     1240.063      852.135      453.794        0.501        0.127       86.216       19.923        0.053      339.520       12.911      859.589
05/30/2014  01:40:00     -108.197      -56.843        2.869       40.505       35.012       23.883     1640.646     1225.864      570.386        0.919        0.172      122.220       17.408        0.020      339.532       12.928      859.582
05/30/2014  01:41:00     -107.998      -71.171      -12.983       26.544       27.850       16.664      704.570      775.608      277.675        0.933        0.088      129.341       15.600        0.015      339.531       12.928      859.589
05/30/2014  01:42:00      -72.897      -60.213       -6.345       31.803       19.018       14.158     1011.454      361.682      200.448        0.528        0.079       94.550        3.650        0.001      339.553       12.965      859.594
05/30/2014  01:43:00      -29.172      -38.555        9.673       32.460       21.910       19.974     1053.634      480.028      398.972        0.218        0.097       48.348       19.710        0.166      339.650       13.129      859.594
05/30/2014  01:44:00      -52.854      -68.741        2.957       36.645       22.571       18.997     1342.826      509.433      360.890        0.487        0.111       86.711       19.784        0.052      339.617       13.074      859.593
05/30/2014  01:45:00      -33.939      -40.545       -0.859       37.224       29.002       19.702     1385.618      841.114      388.177        0.271        0.131       52.875       18.965        0.129      339.578       13.007      859.585
05/30/2014  01:46:00      -77.608      -63.719       -1.715       38.299       22.782       15.313     1466.794      519.034      234.494        0.615        0.111      100.414       16.525        0.027      339.666       13.157      859.590
05/30/2014  01:47:00      -58.827      -40.404        8.072       38.744       23.004       23.504     1501.122      529.205      552.459        0.387        0.129       71.366       23.282        0.106      339.612       13.065      859.597
05/30/2014  01:48:00      -69.741      -47.361       -2.384       40.286       25.229       16.084     1622.995      636.493      258.686        0.481        0.126       84.302        8.800        0.011      339.651       13.131      859.599
05/30/2014  01:49:00      -37.669      -36.598        4.036       34.848       16.562       11.762     1214.403      274.286      138.340        0.220        0.081       52.520       16.415        0.098      339.630       13.095      859.601
05/30/2014  01:50:00      -33.322      -14.015        1.329       23.773       16.885       13.932      565.138      285.096      194.110        0.118        0.052       36.149       15.651        0.187      339.523       12.914      859.595
05/30/2014  01:51:00      -45.389       -6.483       -4.618        7.233        9.868        7.097       52.309       97.382       50.364        0.116        0.010       45.850        6.111        0.018      339.671       13.164      859.597
05/30/2014  01:52:00      -33.671        1.416       -6.666       12.698       12.026        9.890      161.241      144.616       97.822        0.079        0.020       33.701        6.356        0.036      339.698       13.212      859.607
05/30/2014  01:53:00      -32.882       -7.741       -6.902       13.083       11.069        7.965      171.175      122.526       63.446        0.077        0.018       33.781        5.064        0.022      339.661       13.147      859.610
05/30/2014  01:54:00       -7.165       -4.796        3.372       12.662        6.952        7.417      160.337       48.331       55.013        0.017        0.013        8.623        2.947        0.117      339.611       13.063      859.612
05/30/2014  01:55:00       -3.140       -2.034       14.597       12.497        6.905        6.355      156.181       47.682       40.389        0.024        0.012        3.742        5.341        2.037      339.469       12.823      859.607
05/30/2014  01:56:00       -3.009        4.463        1.121        7.357        6.075        7.322       54.127       36.907       53.605        0.009        0.007        5.383        6.549        1.480      339.503       12.882      859.604
05/30/2014  01:57:00       -6.710        1.008        1.046        4.973        4.525        3.861       24.728       20.474       14.908        0.005        0.003        6.785        3.514        0.268      339.456       12.803      859.604
05/30/2014  01:58:00       -9.902      -18.274        2.644        6.778        9.063        7.291       45.944       82.141       53.160        0.031        0.009       20.785        5.514        0.070      339.519       12.905      859.616
05/30/2014  01:59:00      -40.434      -27.117       -5.374       12.305       12.008        8.771      151.403      144.183       76.930        0.139        0.019       48.685        6.523        0.018      339.499       12.874      859.621
05/30/2014  02:00:00      -75.044      -40.370       -8.967       15.043        9.754        7.661      226.292       95.147       58.697        0.386        0.019       85.213        6.099        0.005      339.456       12.802      859.623
05/30/2014  02:01:00      -60.585      -44.067       -8.198       32.506       19.027       17.976     1056.628      362.027      323.150        0.371        0.087       74.916       15.541        0.043      339.397       12.702      859.613
05/30/2014  02:02:00      -86.850      -61.438       -0.273       40.408       19.060       18.292     1632.820      363.280      334.600        0.682        0.117      106.384       20.172        0.036      339.310       12.555      859.610
05/30/2014  02:03:00      -92.028      -61.570       -5.022       25.457       18.353       20.207      648.080      336.849      408.328        0.684        0.070      110.725       13.285        0.014      339.271       12.491      859.606
05/30/2014  02:04:00      -97.169      -55.268      -14.761        8.616       11.173        7.927       74.239      124.846       62.836        0.649        0.013      111.787        5.250        0.002      339.274       12.494      859.602
05/30/2014  02:05:00      -98.794      -52.327      -14.706       21.271       14.279       10.205      452.436      203.877      104.132        0.674        0.038      111.796        5.324        0.002      339.309       12.553      859.600
05/30/2014  02:06:00     -120.672      -58.686       -6.971       14.136       13.870        9.918      199.838      192.383       98.358        0.927        0.025      134.186        4.103        0.001      339.304       12.544      859.590
05/30/2014  02:07:00     -131.944      -54.669       -5.584       15.625       15.075       11.185      244.150      227.246      125.103        1.051        0.030      142.821        5.702        0.002      339.330       12.590      859.585
05/30/2014  02:08:00     -130.440      -37.082       -8.934       19.909       17.910        9.447      396.385      320.780       89.249        0.964        0.040      135.608        5.844        0.002      339.270       12.489      859.580
05/30/2014  02:09:00     -117.283      -23.056      -15.666       20.904       17.805       16.635      436.973      317.001      276.712        0.778        0.052      119.528       10.576        0.008      339.198       12.367      859.573
05/30/2014  02:10:00      -91.367      -15.731      -12.020       37.230       26.585       17.224     1386.080      706.769      296.676        0.556        0.119       92.711       19.068        0.042      339.258       12.470      859.577
05/30/2014  02:11:00      -46.236      -29.046        0.698       23.163       19.022       16.845      536.540      361.839      283.758        0.208        0.059       54.602       11.761        0.046      339.251       12.456      859.587
05/30/2014  02:12:00        7.560      -41.145        5.786       16.984       28.680       16.568      288.461      822.560      274.499        0.158        0.069       41.834       10.865        0.067      339.256       12.464      859.583
05/30/2014  02:13:00      -43.998      -37.470        5.945       43.737       30.261       24.066     1912.895      915.705      579.150        0.339        0.170       57.791       22.821        0.156      339.201       12.373      859.574
05/30/2014  02:14:00      -90.830      -62.452       -1.714       35.306       25.340       19.963     1246.488      642.122      398.518        0.722        0.114      110.229       13.385        0.015      339.171       12.322      859.571
05/30/2014  02:15:00     -126.642      -69.668        1.366       31.219       21.675       19.725      974.617      469.797      389.078        1.136        0.092      144.540       17.839        0.015      339.141       12.272      859.577
05/30/2014  02:16:00     -140.818      -66.276       -4.838       26.798       19.908       15.487      718.113      396.325      239.862        1.280        0.068      155.635       13.266        0.007      339.104       12.210      859.582
05/30/2014  02:17:00     -111.561      -80.076       -5.917       46.008       27.885       16.826     2116.691      777.582      283.118        1.103        0.159      137.324       16.892        0.015      339.112       12.221      859.571
05/30/2014  02:18:00     -166.863      -61.803       -4.792       29.769       28.722       18.661      886.196      824.975      348.248        1.687        0.103      177.941       16.466        0.009      339.145       12.279      859.560
05/30/2014  02:19:00     -121.607      -42.183        1.755       51.798       38.555       23.200     2683.046     1486.451      538.235        1.064        0.235      128.715       25.319        0.039      339.128       12.250      859.557
05/30/2014  02:20:00     -131.622      -70.182       -3.691       51.658       35.162       23.330     2668.505     1236.385      544.293        1.336        0.222      149.164       23.762        0.025      339.060       12.135      859.565
05/30/2014  02:21:00     -134.866      -38.533       -9.410       45.094       29.719       19.970     2033.506      883.235      398.798        1.154        0.166      140.263       23.042        0.027      339.051       12.119      859.560
05/30/2014  02:22:00      -87.873      -43.019        2.673       35.939       25.187       15.473     1291.585      634.365      239.405        0.587        0.108       97.838       19.281        0.039      339.058       12.131      859.546
05/30/2014  02:23:00      -97.979      -53.607        0.101       44.350       27.473       20.445     1966.935      754.760      418.016        0.781        0.157      111.685       20.345        0.033      339.050       12.117      859.537
05/30/2014  02:24:00     -135.885      -55.156      -10.480       24.568       18.940       16.489      603.600      358.708      271.879        1.143        0.062      146.652       14.360        0.010      339.027       12.080      859.538
05/30/2014  02:25:00     -155.223      -59.042       -5.768       39.881       34.435       22.692     1590.470     1185.803      514.921        1.545        0.165      166.073       19.052        0.013      338.902       11.870      859.535
05/30/2014  02:26:00     -152.871      -75.823       -5.645       21.709       28.894       18.333      471.277      834.871      336.107        1.540        0.082      170.642       12.981        0.006      338.800       11.699      859.537
05/30/2014  02:27:00     -109.327      -66.778       -0.540       36.761       25.116       22.477     1351.354      630.806      505.229        0.945        0.124      128.108       19.992        0.024      338.788       11.677      859.535
05/30/2014  02:28:00      -85.825      -49.341       -1.936       26.790       22.569       17.836      717.717      509.340      318.123        0.567        0.077       98.997       14.806        0.022      338.827       11.742      859.540
05/30/2014  02:29:00      -77.610      -57.479       -3.021       32.314       18.458       16.915     1044.211      340.681      286.101        0.550        0.084       96.577       18.897        0.038      338.890       11.849      859.541
05/30/2014  02:30:00      -82.028      -59.989        2.352       31.824       27.721       22.530     1012.741      768.465      507.584        0.631        0.114      101.623       22.776        0.050      338.944       11.940      859.532
05/30/2014  02:31:00      -65.789      -53.241       -5.545       42.185       33.397       22.544     1779.567     1115.382      508.220        0.530        0.170       84.634       13.979        0.027      338.938       11.929      859.527
05/30/2014  02:32:00      -90.617      -63.041       -1.171       40.482       25.273       18.603     1638.787      638.722      346.084        0.740        0.131      110.389       15.927        0.021      338.995       12.027      859.528
05/30/2014  02:33:00      -42.235      -30.127       18.477       45.092       31.260       24.045     2033.297      977.188      578.172        0.331        0.179       51.879       24.630        0.225      338.956       11.959      859.520
05/30/2014  02:34:00      -90.990      -77.058        3.407       55.997       26.782       23.757     3135.650      717.271      564.410        0.932        0.221      119.236       23.420        0.039      338.988       12.015      859.507
05/30/2014  02:35:00      -85.523      -79.281        5.148       49.749       39.015       23.757     2474.996     1522.200      564.400        0.909        0.228      116.617       16.976        0.021      339.048       12.115      859.502
05/30/2014  02:36:00     -112.441      -77.916        0.100       57.908       37.929       26.570     3353.361     1438.609      705.955        1.210        0.275      136.799       23.436        0.029      339.006       12.043      859.487
05/30/2014  02:37:00     -114.886      -79.428      -12.695       35.457       31.684       18.812     1257.179     1003.894      353.876        1.114        0.131      139.670        9.104        0.004      338.955       11.958      859.485
05/30/2014  02:38:00     -116.491      -72.254       -2.554       49.558       33.043       20.356     2455.951     1091.825      414.353        1.138        0.198      137.079       21.310        0.024      338.874       11.822      859.479
05/30/2014  02:39:00      -94.808      -65.320        4.097       39.158       28.960       25.983     1533.359      838.657      675.127        0.816        0.152      115.132       21.852        0.036      338.850       11.780      859.470
05/30/2014  02:40:00      -81.219      -57.909        6.189       32.086       31.514       19.806     1029.516      993.147      392.269        0.620        0.121       99.750       16.673        0.028      338.896       11.860      859.452
05/30/2014  02:41:00      -67.678      -52.886        1.625       36.244       29.900       22.419     1313.612      894.005      502.619        0.504        0.136       85.891       17.165        0.040      338.926       11.910      859.437
05/30/2014  02:42:00     -109.707      -63.765       -9.030       26.858       22.908       16.995      721.374      524.759      288.826        0.886        0.077      126.892       11.042        0.008      338.892       11.853      859.440
05/30/2014  02:43:00     -130.722      -30.076      -11.054       15.471       21.585       12.335      239.347      465.910      152.146        0.949        0.043      134.137        8.282        0.004      338.803       11.703      859.421
05/30/2014  02:44:00     -135.933      -45.441       -6.575       22.415       22.099       15.722      502.444      488.361      247.197        1.091        0.062      143.327       13.442        0.009      338.856       11.791      859.398
05/30/2014  02:45:00     -144.758      -22.537       -7.586       40.724       21.424       17.377     1658.432      458.984      301.955        1.197        0.121      146.502       17.600        0.014      338.814       11.721      859.385
05/30/2014  02:46:00     -163.715      -39.635       -6.500       32.449       24.087       19.036     1052.932      580.198      362.357        1.521        0.100      168.444       14.591        0.008      338.687       11.508      859.376
05/30/2014  02:47:00     -146.806      -60.327       -6.767       38.815       29.218       23.717     1506.635      853.684      562.514        1.408        0.146      158.718       17.056        0.012      338.643       11.435      859.377
05/30/2014  02:48:00     -130.241      -68.801        1.033       37.811       30.838       23.944     1429.707      950.966      573.319        1.233        0.148      147.297       22.872        0.024      338.671       11.482      859.375
05/30/2014  02:49:00     -118.717      -48.897       -8.676       36.526       24.377       19.152     1334.161      594.233      366.818        0.943        0.115      128.393       17.421        0.018      338.770       11.648      859.372
05/30/2014  02:50:00     -150.340      -71.169       -6.134       34.843       27.185       18.249     1214.053      739.013      333.012        1.499        0.114      166.334       10.831        0.004      338.705       11.538      859.370
05/30/2014  02:51:00     -142.603      -75.788       -1.059       39.284       34.493       22.965     1543.249     1189.792      527.398        1.467        0.163      161.492       22.780        0.020      338.653       11.450      859.375
05/30/2014  02:52:00     -150.583      -62.623        2.251       38.475       29.703       22.271     1480.346      882.240      496.008        1.473        0.143      163.086       22.880        0.020      338.625       11.406      859.393
05/30/2014  02:53:00      -97.471      -62.581        1.473       58.474       33.960       21.825     3419.193     1153.308      476.333        0.923        0.252      115.831       21.229        0.034      338.624       11.402      859.403
05/30/2014  02:54:00     -132.661      -64.569       -4.466       43.609       35.277       25.262     1901.737     1244.498      638.146        1.279        0.189      147.540       16.078        0.012      338.607       11.375      859.399
05/30/2014  02:55:00     -115.876      -80.462       -1.341       43.122       36.762       25.381     1859.537     1351.448      644.178        1.188        0.193      141.072       24.780        0.031      338.630       11.413      859.388
05/30/2014  02:56:00     -115.836      -89.393       -0.395       37.881       36.024       21.337     1434.934     1297.705      455.273        1.230        0.159      146.319       19.001        0.017      338.640       11.429      859.382
05/30/2014  02:57:00      -87.606      -65.045        8.819       58.371       40.570       30.474     3407.140     1645.937      928.634        0.898        0.299      109.113       30.316        0.077      338.646       11.439      859.380
05/30/2014  02:58:00     -120.316      -51.465        1.718       49.910       38.977       22.871     2490.965     1519.201      523.070        1.083        0.227      130.861       24.983        0.036      338.655       11.452      859.371
05/30/2014  02:59:00      -66.250      -42.900        4.427       71.059       31.527       23.216     5049.439      993.957      539.000        0.641        0.329       78.927       35.018        0.197      338.681       11.499      859.369
05/30/2014  03:00:00      -59.327      -19.744        6.594       36.072       32.453       19.652     1301.209     1053.218      386.201        0.335        0.137       62.526       16.282        0.068      338.706       11.539      859.363
05/30/2014  03:01:00      -74.801      -46.535        0.972       37.715       29.961       18.587     1422.431      897.639      345.477        0.521        0.133       88.095       21.046        0.057      338.729       11.579      859.362
05/30/2014  03:02:00      -51.686      -42.721        8.159       39.005       28.817       24.891     1521.401      830.430      619.567        0.377        0.149       67.056       27.516        0.168      338.736       11.590      859.371
05/30/2014  03:03:00      -51.829      -34.835        8.555       46.914       29.666       20.424     2200.947      880.056      417.137        0.373        0.175       62.447       15.704        0.063      338.653       11.450      859.373
05/30/2014  03:04:00      -83.853      -54.063       -2.168       44.033       31.202       20.796     1938.880      973.568      432.460        0.665        0.167       99.771       14.453        0.021      338.700       11.529      859.376
05/30/2014  03:05:00     -110.408      -66.952       -0.501       39.137       32.285       19.966     1531.714     1042.325      398.631        0.982        0.149      129.122       17.356        0.018      338.663       11.468      859.379
05/30/2014  03:06:00     -120.578      -76.069        3.174       37.179       24.942       21.525     1382.281      622.118      463.312        1.140        0.123      142.568       19.649        0.019      338.715       11.554      859.386
05/30/2014  03:07:00      -78.947      -56.327        1.141       43.676       28.971       21.818     1907.577      839.313      476.039        0.631        0.161       96.981       23.187        0.057      338.809       11.714      859.399
05/30/2014  03:08:00      -57.507      -59.400        9.607       41.044       30.020       20.326     1684.598      901.171      413.140        0.496        0.150       82.677       20.505        0.062      338.963       11.971      859.407
05/30/2014  03:09:00      -69.935      -50.672        4.297       36.087       21.219       14.689     1302.259      450.241      215.756        0.472        0.098       86.363       15.245        0.031      338.943       11.938      859.399
05/30/2014  03:10:00      -63.371      -47.496        3.474       34.213       27.538       22.887     1170.536      758.341      523.805        0.437        0.123       79.194       17.238        0.047      338.996       12.028      859.393
05/30/2014  03:11:00     -105.648      -68.914       -6.241       43.689       26.145       20.621     1908.762      683.564      425.233        0.948        0.151      126.137       15.359        0.015      338.752       11.617      859.397
05/30/2014  03:12:00     -146.426      -49.918       -0.608       29.137       28.836       15.585      848.978      831.527      242.897        1.293        0.096      154.701       15.306        0.010      338.827       11.742      859.379
05/30/2014  03:13:00     -153.666      -59.871       -9.621       16.712       15.463       11.053      279.275      239.119      122.169        1.397        0.032      164.917        6.584        0.002      338.728       11.576      859.369
05/30/2014  03:14:00     -132.215      -39.412      -15.453       16.366       18.035       15.960      267.834      325.257      254.733        1.006        0.042      137.964        9.940        0.005      338.660       11.462      859.364
05/30/2014  03:15:00     -126.028      -69.139        0.905       20.762       19.288       18.477      431.064      372.011      341.416        1.090        0.057      143.747       14.989        0.011      338.649       11.444      859.375
05/30/2014  03:16:00     -138.776      -45.962       -6.701       17.170       24.990       15.308      294.818      624.515      234.335        1.128        0.058      146.189        9.931        0.005      338.607       11.374      859.371
05/30/2014  03:17:00     -120.779      -34.772       -6.455       25.451       21.460       16.729      647.732      460.531      279.875        0.861        0.069      125.685       12.517        0.010      338.610       11.378      859.359
05/30/2014  03:18:00     -103.003      -31.269       -7.106       21.076       24.397       16.709      444.217      595.207      279.176        0.648        0.066      107.644       12.615        0.014      338.659       11.461      859.345
05/30/2014  03:19:00     -115.528      -45.000       -6.806       19.723       17.516       14.563      389.003      306.822      212.078        0.816        0.045      123.982        6.953        0.003      338.707       11.541      859.331
05/30/2014  03:20:00     -109.129      -47.757        0.486       32.141       20.692       17.587     1033.041      428.157      309.289        0.798        0.089      119.121       16.303        0.019      338.655       11.453      859.329
05/30/2014  03:21:00      -38.839      -20.103        6.455       36.863       25.981       22.976     1358.862      675.022      527.891        0.226        0.128       43.733       21.517        0.242      338.551       11.279      859.327
05/30/2014  03:22:00      -83.955      -74.742        2.233       55.620       28.468       24.800     3093.562      810.454      615.063        0.858        0.226      112.405       29.902        0.071      338.558       11.290      859.321
05/30/2014  03:23:00      -99.280      -61.943       -0.657       38.830       27.984       22.000     1507.805      783.128      484.019        0.823        0.139      117.019       16.130        0.019      338.600       11.361      859.314
05/30/2014  03:24:00      -85.663      -61.685        8.589       50.021       32.260       21.898     2502.139     1040.725      479.532        0.762        0.201      105.561       19.610        0.035      338.493       11.181      859.303
05/30/2014  03:25:00      -86.496      -60.941        1.976       43.433       30.341       22.057     1886.392      920.553      486.524        0.725        0.165      105.808       24.011        0.051      338.400       11.026      859.293
05/30/2014  03:26:00      -62.864      -53.644        3.420       35.657       33.689       24.971     1271.396     1134.928      623.571        0.493        0.151       82.641       19.315        0.055      338.429       11.074      859.289
05/30/2014  03:27:00      -46.899      -49.060       10.010       40.746       37.535       23.339     1660.225     1408.853      544.690        0.416        0.181       67.870       19.836        0.085      338.399       11.023      859.281
05/30/2014  03:28:00      -57.907      -55.148       11.907       57.225       35.283       28.056     3274.676     1244.917      787.145        0.592        0.265       79.966       27.599        0.119      338.381       10.994      859.271
05/30/2014  03:29:00      -93.394      -64.819        7.011       50.149       30.340       25.559     2514.963      920.513      653.287        0.853        0.204      113.684       26.080        0.053      338.398       11.023      859.275
05/30/2014  03:30:00      -80.722      -65.500        6.640       59.889       35.450       22.360     3586.733     1256.702      499.989        0.810        0.267      103.953       30.473        0.086      338.459       11.125      859.272
05/30/2014  03:31:00      -96.688      -72.663        1.987       49.318       40.380       21.573     2432.225     1630.584      465.406        0.958        0.226      120.948       28.952        0.057      338.396       11.020      859.273
05/30/2014  03:32:00     -129.672      -57.261       -1.226       49.294       31.213       22.834     2429.852      974.243      521.410        1.201        0.196      141.752       20.582        0.021      338.375       10.983      859.272
05/30/2014  03:33:00      -90.782      -61.651        6.565       52.842       32.068       25.983     2792.327     1028.368      675.098        0.829        0.225      109.737       27.571        0.063      338.371       10.978      859.268
05/30/2014  03:34:00      -61.460      -44.617        4.571       42.651       30.290       23.898     1819.092      917.510      571.137        0.455        0.165       75.948       25.291        0.111      338.416       11.052      859.280
05/30/2014  03:35:00      -59.599      -46.402        7.385       41.786       31.903       20.159     1746.109     1017.776      406.375        0.446        0.159       75.532       20.088        0.071      338.397       11.021      859.272
05/30/2014  03:36:00      -57.497      -53.469       11.223       43.605       27.776       23.138     1901.393      771.525      535.344        0.475        0.160       78.517       22.688        0.083      338.360       10.959      859.269
05/30/2014  03:37:00      -76.192      -55.111        0.521       39.301       25.076       21.423     1544.583      628.797      458.955        0.574        0.132       94.034       19.639        0.044      338.341       10.926      859.258
05/30/2014  03:38:00      -44.141      -46.098        6.726       36.644       31.198       18.914     1342.748      973.316      357.740        0.340        0.134       63.824       11.041        0.030      338.409       11.041      859.248
05/30/2014  03:39:00      -32.594      -23.022       11.613       37.904       25.504       19.329     1436.695      650.472      373.619        0.209        0.123       39.905       20.356        0.260      338.348       10.939      859.251
05/30/2014  03:40:00      -40.116      -39.734        9.417       35.693       21.404       22.592     1273.970      458.134      510.417        0.276        0.112       56.463       19.083        0.114      338.383       10.997      859.251
05/30/2014  03:41:00      -38.043      -38.538       10.281       28.451       20.245       20.394      809.483      409.880      415.910        0.234        0.082       54.152       14.677        0.073      338.396       11.018      859.243
05/30/2014  03:42:00      -26.447      -37.116       10.375       35.418       22.772       16.135     1254.430      518.566      260.351        0.211        0.102       45.575       17.960        0.155      338.422       11.062      859.238
05/30/2014  03:43:00      -50.525      -53.595       -0.733       28.533       24.189       20.626      814.153      585.110      425.452        0.362        0.091       73.656       19.108        0.067      338.437       11.087      859.237
05/30/2014  03:44:00      -54.773      -63.800        2.933       31.708       26.768       16.133     1005.379      716.542      260.264        0.453        0.099       84.086       17.321        0.042      338.419       11.057      859.235
05/30/2014  03:45:00      -48.757      -45.257        9.351       39.576       35.920       21.281     1566.275     1290.235      452.897        0.391        0.165       66.524       25.545        0.147      338.313       10.881      859.224
05/30/2014  03:46:00      -42.674      -46.883        4.394       35.565       24.441       21.894     1264.878      597.377      479.335        0.319        0.117       63.396       19.304        0.093      338.291       10.843      859.214
05/30/2014  03:47:00      -58.287      -47.032        4.101       31.206       23.020       17.269      973.801      529.900      298.222        0.371        0.090       74.896       12.019        0.026      338.297       10.852      859.212
05/30/2014  03:48:00      -76.399      -41.543       -1.122       30.929       18.616       17.169      956.601      346.538      294.788        0.458        0.080       86.963       11.808        0.018      338.240       10.756      859.214
05/30/2014  03:49:00      -57.873      -33.988        5.305       38.643       28.443       24.721     1493.286      809.023      611.129        0.372        0.146       67.115       22.203        0.109      338.259       10.788      859.211
05/30/2014  03:50:00      -56.291      -43.674        6.328       31.268       23.244       23.877      977.674      540.270      570.105        0.360        0.104       71.247       18.680        0.069      338.240       10.756      859.212
05/30/2014  03:51:00      -63.696      -45.535        2.350       39.420       21.791       19.892     1553.958      474.832      395.706        0.428        0.121       78.298       16.852        0.046      338.237       10.751      859.209
05/30/2014  03:52:00      -83.182      -49.100        0.015       34.317       23.448       18.354     1177.688      549.811      336.872        0.570        0.103       96.592       19.923        0.043      338.177       10.650      859.202
05/30/2014  03:53:00      -69.011      -54.377        0.294       39.900       24.378       17.071     1592.007      594.297      291.409        0.510        0.124       87.861       20.033        0.052      338.285       10.833      859.202
05/30/2014  03:54:00      -50.774      -31.963        7.012       37.683       20.788       16.205     1419.983      432.153      262.614        0.288        0.106       59.997       19.965        0.111      338.235       10.747      859.208
05/30/2014  03:55:00      -89.787      -35.997       -2.335       23.349       17.137       11.707      545.160      293.666      137.048        0.517        0.049       96.734        7.442        0.006      338.261       10.792      859.219
05/30/2014  03:56:00      -70.250      -34.598        5.958       35.599       23.605       17.950     1267.292      557.202      322.191        0.416        0.107       78.308       18.669        0.057      338.210       10.707      859.216
05/30/2014  03:57:00      -73.082      -46.435       -1.178       26.441       16.224       13.321      699.106      263.204      177.452        0.432        0.057       86.586       12.620        0.021      338.188       10.670      859.214
05/30/2014  03:58:00      -60.992      -39.965        4.304       32.267       17.515       16.871     1041.182      306.760      284.637        0.348        0.082       72.919       17.385        0.057      338.207       10.702      859.216
05/30/2014  03:59:00      -63.516      -39.175       -0.903       29.334       22.294       21.508      860.475      497.025      462.614        0.369        0.091       74.626       19.347        0.067      338.223       10.728      859.223
05/30/2014  04:00:00      -70.787      -80.055        3.057       39.776       28.788       20.653     1582.156      828.727      426.533        0.713        0.142      106.862       17.903        0.028      338.182       10.660      859.231
05/30/2014  04:01:00      -99.055      -78.857        0.602       79.140       48.836       26.570     6263.135     2385.000      705.982        1.269        0.468      126.611       35.121        0.077      338.147       10.600      859.245
05/30/2014  04:02:00      -82.210      -56.788        2.026       54.784       44.027       27.038     3001.240     1938.377      731.064        0.783        0.284       99.917       25.040        0.063      338.191       10.676      859.240
05/30/2014  04:03:00      -89.263      -55.437        5.281       33.642       32.626       23.799     1131.788     1064.437      566.376        0.692        0.138      105.077       20.580        0.038      338.194       10.679      859.237
05/30/2014  04:04:00     -128.903      -79.078       -3.502       38.219       30.133       18.735     1460.685      908.025      350.984        1.280        0.136      151.226       19.023        0.016      338.113       10.544      859.238
05/30/2014  04:05:00      -82.086      -67.860        2.396       44.344       30.377       20.020     1966.411      922.755      400.786        0.732        0.164      106.504       20.127        0.036      338.123       10.561      859.233
05/30/2014  04:06:00      -98.534      -77.085       -1.518       37.696       42.507       22.704     1421.024     1806.851      515.456        0.970        0.187      125.104       26.460        0.045      338.161       10.624      859.244
05/30/2014  04:07:00      -65.124      -54.667       10.635       69.699       47.983       32.910     4857.977     2302.362     1083.078        0.779        0.412       85.027       35.660        0.176      338.101       10.523      859.247
05/30/2014  04:08:00     -124.879     -107.320       -6.067       54.495       34.749       31.733     2969.672     1207.499     1006.989        1.617        0.259      164.658       30.608        0.035      338.101       10.524      859.251
05/30/2014  04:09:00     -118.434     -114.817       -8.442       42.402       42.746       25.757     1797.970     1827.191      663.434        1.578        0.214      164.953       24.298        0.022      338.079       10.486      859.244
05/30/2014  04:10:00     -108.979      -62.795      -17.879       25.768       31.224       19.468      663.967      974.916      379.012        0.908        0.101      125.777       14.491        0.013      338.051       10.440      859.231
05/30/2014  04:11:00     -101.071      -64.879      -10.096       28.640       28.138       14.871      820.268      791.756      221.152        0.818        0.092      120.102       11.470        0.009      338.064       10.461      859.232
05/30/2014  04:12:00      -93.151      -30.995       -4.851       29.438       33.570       16.132      866.584     1126.954      260.238        0.596        0.113       98.172       15.648        0.025      338.024       10.394      859.233
05/30/2014  04:13:00      -76.691      -50.946        4.534       35.109       26.843       18.790     1232.661      720.566      353.073        0.540        0.115       92.071       18.219        0.039      338.022       10.391      859.237
05/30/2014  04:14:00      -63.739      -44.623        3.400       42.629       22.838       19.570     1817.208      521.552      382.995        0.439        0.136       77.807       15.474        0.040      337.925       10.230      859.240
05/30/2014  04:15:00      -59.069      -38.624       -2.826       35.829       27.348       17.680     1283.711      747.926      312.566        0.367        0.117       70.576       15.430        0.048      337.950       10.270      859.240
05/30/2014  04:16:00      -60.292      -48.261        7.867       41.194       30.971       23.124     1696.963      959.175      534.707        0.461        0.160       77.229       21.229        0.076      337.969       10.304      859.233
05/30/2014  04:17:00     -100.613      -56.494       -3.622       40.404       29.104       22.597     1632.497      847.015      510.602        0.816        0.150      115.388       20.515        0.032      337.997       10.349      859.238
05/30/2014  04:18:00      -85.261      -29.347       -5.176       35.345       27.529       17.000     1249.301      757.826      288.998        0.523        0.115       90.171       16.519        0.034      337.903       10.193      859.238
05/30/2014  04:19:00     -103.577      -33.181        4.487       30.510       23.270       18.476      930.880      541.496      341.375        0.683        0.091      108.763       19.345        0.032      337.903       10.192      859.228
05/30/2014  04:20:00      -72.418      -38.493        2.894       30.562       27.605       17.565      934.034      762.064      308.522        0.437        0.100       82.012       17.668        0.046      337.860       10.120      859.212
05/30/2014  04:21:00      -73.714      -32.929       -1.159       34.957       21.421       16.614     1221.982      458.874      276.010        0.424        0.098       80.735       19.223        0.057      337.883       10.159      859.216
05/30/2014  04:22:00      -28.261      -44.543        6.167       35.123       32.708       19.765     1233.605     1069.834      390.666        0.276        0.135       52.752       18.681        0.125      337.937       10.249      859.222
05/30/2014  04:23:00      -64.321      -56.943       -1.229       42.208       34.867       18.643     1781.488     1215.739      347.549        0.536        0.167       85.905       20.914        0.059      337.920       10.219      859.217
05/30/2014  04:24:00      -62.938      -83.569       -3.800       39.149       34.342       23.549     1532.623     1179.386      554.562        0.711        0.163      104.619       29.720        0.081      337.908       10.199      859.217
05/30/2014  04:25:00      -82.566      -43.767        2.225       43.671       21.409       19.821     1907.195      458.362      392.862        0.575        0.138       93.449       26.056        0.078      337.889       10.169      859.205
05/30/2014  04:26:00      -48.657      -31.032        4.331       37.282       26.437       18.133     1389.918      698.895      328.806        0.288        0.121       57.710       20.684        0.128      337.926       10.230      859.193
05/30/2014  04:27:00     -112.678      -45.463       -7.531       15.145       15.769       12.644      229.380      248.651      159.880        0.773        0.032      121.504        4.284        0.001      337.846       10.096      859.193
05/30/2014  04:28:00      -90.204      -48.757        3.783       43.328       24.804       19.352     1877.290      615.263      374.498        0.670        0.143      102.538       20.572        0.040      337.867       10.130      859.184
05/30/2014  04:29:00     -106.549      -47.027       -2.298       24.601       33.297       19.224      605.219     1108.679      369.556        0.783        0.104      116.466       17.700        0.023      337.861       10.122      859.170
05/30/2014  04:30:00      -91.869      -46.385        7.809       43.399       35.984       22.461     1883.450     1294.861      504.496        0.717        0.184      102.914       21.056        0.042      337.888       10.167      859.158
05/30/2014  04:31:00      -87.280      -27.799       -0.974       33.419       21.684       15.804     1116.848      470.205      249.755        0.511        0.092       91.600       17.759        0.038      337.810       10.036      859.143
05/30/2014  04:32:00      -90.455      -17.525        1.131       29.559       21.573       17.022      873.735      465.378      289.732        0.506        0.081       92.137       16.648        0.033      337.711        9.868      859.137
05/30/2014  04:33:00      -92.794      -15.442       -3.804       24.649       24.962       16.969      607.552      623.083      287.961        0.519        0.076       94.070       11.518        0.015      337.670        9.801      859.141
05/30/2014  04:34:00      -63.776      -26.584        2.589       29.636       23.957       15.556      878.309      573.916      241.975        0.324        0.085       69.095       13.727        0.039      337.685        9.828      859.123
05/30/2014  04:35:00      -63.583      -18.196       -8.728       25.072       19.204       11.368      628.590      368.796      129.238        0.279        0.056       66.135        7.461        0.013      337.646        9.761      859.115
05/30/2014  04:36:00      -98.952      -21.448       -5.239       19.614       17.520       12.906      384.728      306.948      166.565        0.557        0.043      101.250        8.756        0.007      337.649        9.765      859.124
05/30/2014  04:37:00      -82.960      -46.167       -5.007       20.383       26.503       12.263      415.482      702.408      150.378        0.515        0.063       94.941        6.853        0.005      337.713        9.873      859.119
05/30/2014  04:38:00      -60.500      -38.052        2.642       25.678       21.892       10.053      659.340      479.238      101.054        0.318        0.062       71.471       13.959        0.038      337.754        9.941      859.121
05/30/2014  04:39:00      -44.743      -21.107        3.895       27.264       16.032        9.814      743.307      257.039       96.316        0.178        0.055       49.471        9.045        0.033      337.788        9.999      859.118
05/30/2014  04:40:00      -35.264      -27.547        6.047       28.536       13.221       10.939      814.276      174.790      119.666        0.157        0.055       44.748       11.132        0.062      337.836       10.079      859.111
05/30/2014  04:41:00        0.110      -30.688       -5.391       12.074       13.442       10.937      145.790      180.692      119.623        0.071        0.022       30.688        6.368        0.043      337.865       10.128      859.112
05/30/2014  04:42:00      -23.133      -48.163       -5.019       17.966       14.353       11.293      322.772      206.003      127.538        0.177        0.033       53.430        7.468        0.020      337.900       10.187      859.114
05/30/2014  04:43:00      -43.118      -32.018       -1.139       26.104       19.718       13.702      681.424      388.799      187.744        0.207        0.063       53.706       13.729        0.065      337.869       10.134      859.110
05/30/2014  04:44:00      -40.353      -41.688        3.540       23.416       23.501       14.798      548.313      552.308      218.976        0.235        0.066       58.020       11.973        0.043      337.853       10.107      859.123
05/30/2014  04:45:00      -55.468      -53.363       10.389       57.136       36.354       29.493     3264.531     1321.648      869.864        0.574        0.273       76.969       24.222        0.099      337.813       10.039      859.123
05/30/2014  04:46:00      -66.407      -64.993       10.173       48.191       43.472       25.594     2322.402     1889.776      655.055        0.680        0.243       92.919       25.714        0.077      337.777        9.980      859.127
05/30/2014  04:47:00     -125.460     -110.715       -6.962       48.924       37.897       28.320     2393.515     1436.162      802.023        1.634        0.232      167.326       26.890        0.026      337.748        9.932      859.130
05/30/2014  04:48:00     -106.450      -98.077       -0.882       43.741       40.401       31.717     1913.259     1632.231     1005.944        1.275        0.228      144.744       27.880        0.037      337.721        9.887      859.138
05/30/2014  04:49:00     -100.246      -93.457       -9.162       34.977       30.766       25.522     1223.416      946.554      651.368        1.084        0.141      137.053       16.560        0.015      337.741        9.919      859.137
05/30/2014  04:50:00      -89.226      -80.529       -2.607       38.584       34.115       25.652     1488.702     1163.824      658.042        0.888        0.166      120.192       26.035        0.047      337.725        9.892      859.127
05/30/2014  04:51:00      -53.280      -34.983        6.239       42.399       25.923       16.768     1797.679      671.978      281.166        0.343        0.138       63.738       20.088        0.099      337.624        9.724      859.132
05/30/2014  04:52:00      -59.756      -20.565       -0.811       29.269       16.692       14.810      856.702      278.612      219.323        0.267        0.068       63.196       13.283        0.044      337.565        9.624      859.137
05/30/2014  04:53:00      -77.871      -28.101       -2.621       23.735       15.887       12.178      563.330      252.393      148.303        0.391        0.048       82.786       12.805        0.024      337.567        9.628      859.136
05/30/2014  04:54:00      -69.637      -30.133        0.704       29.489       26.750       14.629      869.604      715.573      214.005        0.378        0.090       75.877       15.119        0.040      337.556        9.610      859.138
05/30/2014  04:55:00      -79.678      -33.183       -0.810       23.823       17.923       12.753      567.522      321.246      162.642        0.425        0.053       86.312        9.011        0.011      337.574        9.640      859.141
05/30/2014  04:56:00      -86.194      -31.131       -8.179       18.450       19.649       10.625      340.404      386.092      112.881        0.465        0.042       91.643        7.050        0.006      337.471        9.467      859.143
05/30/2014  04:57:00      -91.500      -21.095      -10.513       15.299       14.000       11.684      234.060      195.990      136.508        0.475        0.028       93.900        5.063        0.003      337.502        9.520      859.142
05/30/2014  04:58:00      -99.877      -39.418       -7.163       13.809       10.981        9.944      190.685      120.584       98.893        0.600        0.021      107.374        4.237        0.002      337.517        9.545      859.143
05/30/2014  04:59:00      -99.607      -51.800       -2.108       30.430       22.506       19.119      925.964      506.526      365.540        0.720        0.090      112.271       16.248        0.021      337.487        9.494      859.153
05/30/2014  05:00:00      -73.834      -53.369        3.088       43.374       23.374       22.356     1881.312      546.364      499.794        0.562        0.146       91.103       21.622        0.056      337.430        9.398      859.144
05/30/2014  05:01:00     -110.459      -53.891        4.334       42.718       25.129       17.880     1824.807      631.449      319.684        0.895        0.139      122.904       19.865        0.026      337.454        9.437      859.138
05/30/2014  05:02:00     -137.646      -52.468       -4.161       38.687       28.846       19.257     1496.653      832.072      370.834        1.221        0.135      147.307       16.322        0.012      337.419        9.381      859.151
05/30/2014  05:03:00     -134.680      -32.347       -5.872       37.350       44.653       27.065     1394.998     1993.868      732.523        1.167        0.206      138.510       24.408        0.031      337.412        9.368      859.154
05/30/2014  05:04:00     -157.011      -44.295       -4.164       48.523       41.660       28.502     2354.486     1735.569      812.379        1.577        0.245      163.140       25.196        0.024      337.329        9.229      859.152
05/30/2014  05:05:00     -130.725      -68.886        2.824       58.566       54.727       33.334     3429.979     2995.065     1111.131        1.469        0.377      147.764       29.250        0.039      337.219        9.046      859.155
05/30/2014  05:06:00     -137.131      -36.561        2.262       49.004       53.966       31.875     2401.435     2912.320     1016.005        1.324        0.316      141.921       25.086        0.031      337.234        9.070      859.156
05/30/2014  05:07:00     -101.901      -22.537       -7.513       32.477       38.255       19.288     1054.759     1463.462      372.035        0.692        0.145      104.364       17.936        0.030      337.137        8.907      859.148
05/30/2014  05:08:00      -71.745      -28.682       -0.713       56.894       26.411       22.076     3236.889      697.517      487.370        0.520        0.221       77.266       15.598        0.041      337.108        8.859      859.151
05/30/2014  05:09:00      -70.222      -31.718       -8.965       37.770       30.574       20.555     1426.599      934.743      422.522        0.440        0.139       77.053       15.879        0.042      337.125        8.889      859.158
05/30/2014  05:10:00     -108.236      -64.530        1.345       32.938       25.525       23.810     1084.936      651.534      566.913        0.909        0.115      126.013       14.628        0.013      337.050        8.761      859.155
05/30/2014  05:11:00     -107.901      -36.937       -2.466       19.116       19.568       13.168      365.411      382.919      173.389        0.697        0.046      114.048        7.862        0.005      337.136        8.907      859.161
05/30/2014  05:12:00     -137.936      -47.957       -0.539       27.043       27.797       17.731      731.318      772.680      314.388        1.157        0.091      146.035       15.868        0.012      337.201        9.015      859.153
05/30/2014  05:13:00     -125.157      -48.541       -6.151       24.200       20.104       17.884      585.647      404.152      319.834        0.968        0.065      134.241       13.473        0.010      337.259        9.111      859.143
05/30/2014  05:14:00     -133.240      -54.763      -15.524       21.582       21.500       13.430      465.802      462.246      180.368        1.105        0.055      144.055       10.333        0.005      337.240        9.080      859.146
05/30/2014  05:15:00      -95.551      -47.361       -1.514       31.648       23.767       18.529     1001.622      564.849      343.311        0.664        0.095      106.644       20.367        0.036      337.242        9.084      859.143
05/30/2014  05:16:00     -109.430      -43.609       -8.431       23.835       26.640       13.510      568.098      709.680      182.508        0.770        0.073      117.799        9.889        0.007      337.221        9.050      859.131
05/30/2014  05:17:00      -96.411      -44.138       -1.373       29.432       19.697       18.583      866.228      387.986      345.321        0.642        0.080      106.034       17.171        0.026      337.230        9.064      859.135
05/30/2014  05:18:00     -112.891      -55.211       -5.119       18.288       22.760       14.856      334.467      518.031      220.698        0.845        0.054      125.668       10.156        0.007      337.302        9.185      859.124
05/30/2014  05:19:00     -120.310      -27.323       -6.337       52.290       24.631       16.167     2734.207      606.707      261.368        0.943        0.180      123.374       19.637        0.025      337.250        9.097      859.125
05/30/2014  05:20:00      -85.743      -33.641        3.387       37.756       35.812       22.380     1425.536     1282.482      500.866        0.585        0.160       92.107       17.648        0.037      337.271        9.132      859.120
05/30/2014  05:21:00      -95.214      -14.629       -6.687       43.943       32.650       21.802     1930.989     1066.041      475.316        0.640        0.174       96.332       21.618        0.050      337.276        9.140      859.115
05/30/2014  05:22:00      -88.576      -41.316       -0.581       47.579       33.689       18.744     2263.756     1134.930      351.333        0.665        0.188       97.738       16.342        0.028      337.324        9.221      859.123
05/30/2014  05:23:00      -53.370      -17.352        4.739       39.939       28.359       18.370     1595.124      804.252      337.464        0.295        0.137       56.120       21.088        0.141      337.260        9.115      859.125
05/30/2014  05:24:00      -79.374      -36.104       -3.000       28.979       27.657       23.915      839.783      764.889      571.914        0.489        0.109       87.200       16.053        0.034      337.313        9.203      859.118
05/30/2014  05:25:00      -93.681      -11.978        1.946       35.720       28.819       23.983     1275.937      830.544      575.202        0.580        0.134       94.444       25.168        0.071      337.218        9.044      859.114
05/30/2014  05:26:00     -138.711      -10.331       -7.518       32.316       28.225       26.595     1044.303      796.672      707.314        1.098        0.127      139.095       22.098        0.025      337.216        9.040      859.114
05/30/2014  05:27:00     -102.916      -17.163       -3.394       34.709       34.211       20.707     1204.727     1170.391      428.797        0.685        0.140      104.337       17.391        0.028      337.287        9.160      859.103
05/30/2014  05:28:00     -108.550      -46.391       -7.729       30.118       18.276       17.957      907.066      334.000      322.455        0.778        0.078      118.048       12.907        0.012      337.329        9.228      859.093
05/30/2014  05:29:00      -98.726      -43.629        1.194       45.476       27.025       20.087     2068.050      730.334      403.476        0.743        0.160      107.937       24.116        0.050      337.352        9.269      859.094
05/30/2014  05:30:00      -84.734      -44.279       11.325       51.523       33.625       27.687     2654.647     1130.646      766.545        0.691        0.228       95.606       26.051        0.074      337.356        9.275      859.088
05/30/2014  05:31:00     -108.008      -33.627        2.296       46.953       30.942       18.244     2204.602      957.415      332.831        0.815        0.175      113.121       19.277        0.029      337.391        9.334      859.082
05/30/2014  05:32:00      -99.094      -39.538        2.353       43.036       32.820       19.057     1852.135     1077.124      363.161        0.734        0.165      106.691       21.927        0.042      337.410        9.364      859.082
05/30/2014  05:33:00     -106.980      -48.675       -5.080       37.412       24.336       15.753     1399.658      592.221      248.172        0.804        0.112      117.533       15.722        0.018      337.509        9.531      859.089
05/30/2014  05:34:00      -83.066      -50.372        1.084       32.157       26.298       18.789     1034.052      691.579      353.020        0.576        0.104       97.145       15.931        0.027      337.493        9.505      859.090
05/30/2014  05:35:00      -60.025      -47.000       -0.758       42.780       29.404       20.371     1830.141      864.579      414.978        0.446        0.155       76.237       19.348        0.064      337.547        9.595      859.090
05/30/2014  05:36:00      -76.582      -59.207        0.650       36.142       21.892       18.112     1306.235      479.254      328.056        0.574        0.106       96.800       14.324        0.022      337.485        9.491      859.093
05/30/2014  05:37:00     -100.908      -58.841       -9.873       24.937       17.323       12.044      621.876      300.095      145.047        0.740        0.053      116.810        9.461        0.007      337.416        9.376      859.097
05/30/2014  05:38:00      -72.594      -38.601        1.717       33.820       24.742       17.001     1143.777      612.144      289.018        0.440        0.102       82.218       17.089        0.043      337.429        9.396      859.102
05/30/2014  05:39:00      -78.116      -40.194       -2.896       30.611       21.560       14.037      937.018      464.829      197.025        0.466        0.080       87.851       15.695        0.032      337.452        9.437      859.113
05/30/2014  05:40:00      -75.590      -57.731       -2.445       26.293       24.014       12.693      691.306      576.672      161.111        0.524        0.071       95.114       11.761        0.015      337.476        9.476      859.120
05/30/2014  05:41:00      -57.215      -30.914        2.166       35.061       22.686       14.407     1229.299      514.669      207.567        0.309        0.098       65.032       14.681        0.051      337.501        9.517      859.137
05/30/2014  05:42:00      -21.709      -18.432        6.532       20.525       25.748       15.953      421.270      662.975      254.490        0.110        0.067       28.478       13.681        0.231      337.430        9.398      859.152
05/30/2014  05:43:00      -26.096      -16.090        3.806       29.662       13.161       14.666      879.807      173.218      215.099        0.111        0.063       30.657       14.797        0.233      337.469        9.463      859.155
05/30/2014  05:44:00      -58.980      -40.774       -1.922       28.196       22.818       11.480      795.002      520.676      131.790        0.330        0.072       71.702        8.001        0.012      337.497        9.511      859.160
05/30/2014  05:45:00      -79.765      -62.359       -3.305       34.082       20.549       22.914     1161.613      422.272      525.043        0.619        0.105      101.248       24.217        0.057      337.496        9.510      859.171
05/30/2014  05:46:00      -74.789      -43.542       -0.589       22.206       19.376       13.705      493.124      375.418      187.826        0.427        0.053       86.541       12.006        0.019      337.500        9.515      859.174
05/30/2014  05:47:00     -104.063      -42.308       -9.517       16.279       15.742       10.876      265.008      247.823      118.279        0.667        0.032      112.334        7.812        0.005      337.491        9.501      859.167
05/30/2014  05:48:00      -77.699      -53.865       -0.410       32.092       22.378       16.196     1029.909      500.784      262.319        0.537        0.090       94.544       13.993        0.022      337.478        9.479      859.163
05/30/2014  05:49:00      -96.068      -54.297       -2.489       26.905       16.987       14.587      723.899      288.564      212.776        0.670        0.061      110.350       12.911        0.014      337.462        9.453      859.162
05/30/2014  05:50:00      -80.588      -49.568       -4.957       32.549       19.004       17.976     1059.420      361.157      323.138        0.536        0.087       94.612       13.547        0.021      337.401        9.349      859.160
05/30/2014  05:51:00      -81.705      -61.854       -1.167       25.873       22.531       14.914      669.396      507.625      222.429        0.595        0.070      102.477        7.683        0.006      337.330        9.232      859.164
05/30/2014  05:52:00      -25.939      -32.078       -0.464       20.698       16.655       15.135      428.398      277.391      229.054        0.132        0.047       41.254       10.008        0.059      337.435        9.407      859.169
05/30/2014  05:53:00      -28.384      -21.467       -8.985        9.623        8.247        9.483       92.603       68.009       89.930        0.080        0.013       35.588        4.170        0.014      337.474        9.473      859.182
05/30/2014  05:54:00      -25.712      -35.416        1.449       14.651        9.344       11.166      214.659       87.309      124.691        0.117        0.021       43.766        4.713        0.012      337.565        9.624      859.195
05/30/2014  05:55:00      -53.886      -32.990       -0.154       18.303       13.847       14.115      335.005      191.727      199.242        0.236        0.036       63.183        7.752        0.015      337.594        9.673      859.211
05/30/2014  05:56:00      -64.967      -31.785        2.788       31.778       18.438       14.683     1009.818      339.977      215.579        0.340        0.078       72.325       15.102        0.044      337.493        9.503      859.227
05/30/2014  05:57:00      -17.989      -24.384       13.903       34.031       28.591       23.405     1158.126      817.423      547.785        0.182        0.126       30.301       20.382        0.452      337.362        9.284      859.238
05/30/2014  05:58:00      -76.308      -79.555       -3.781       30.499       20.147       16.085      930.186      405.897      258.723        0.688        0.080      110.236       17.738        0.026      337.454        9.438      859.242
05/30/2014  05:59:00      -29.163      -32.683       12.651       38.048       22.571       22.710     1447.642      509.452      515.729        0.228        0.124       43.803       24.776        0.320      337.558        9.613      859.246
05/30/2014  06:00:00      -35.616      -34.667        2.668       26.763       23.549       15.278      716.250      554.578      233.404        0.199        0.075       49.702       12.208        0.060      337.661        9.786      859.252
05/30/2014  06:01:00      -40.621      -45.141        0.329       34.475       17.347       13.553     1188.533      300.911      183.672        0.268        0.084       60.727       13.763        0.051      337.751        9.935      859.260
05/30/2014  06:02:00      -47.453      -22.027        5.995       29.630       17.854       15.105      877.961      318.777      228.171        0.210        0.071       52.316       12.969        0.061      337.587        9.662      859.254
05/30/2014  06:03:00      -60.088      -16.375       -0.840       18.743       16.949       11.194      351.317      287.281      125.298        0.232        0.038       62.279        9.187        0.022      337.579        9.648      859.252
05/30/2014  06:04:00      -76.431      -46.623       -3.482       15.775       18.904       11.069      248.835      357.351      122.532        0.438        0.036       89.529        7.712        0.007      337.630        9.734      859.263
05/30/2014  06:05:00      -56.490      -20.587        1.280       18.698       18.488       12.726      349.618      341.816      161.944        0.223        0.043       60.125       10.460        0.030      337.568        9.629      859.272
05/30/2014  06:06:00      -76.537        1.012       -4.123       13.771       11.065        7.380      189.637      122.438       54.462        0.312        0.018       76.544        5.826        0.006      337.580        9.649      859.282
05/30/2014  06:07:00      -69.621      -11.628       -5.858       14.283       12.436        6.567      204.003      154.646       43.128        0.271        0.020       70.585        5.790        0.007      337.680        9.818      859.291
05/30/2014  06:08:00      -39.352      -26.383       -1.952       22.287       16.465        9.846      496.729      271.083       96.945        0.156        0.043       47.378        6.792        0.021      337.712        9.872      859.295
05/30/2014  06:09:00      -41.412      -23.700        6.335       31.872       11.957       14.500     1015.836      142.975      210.258        0.184        0.068       47.714       19.084        0.160      337.638        9.747      859.310
05/30/2014  06:10:00      -63.569      -32.765        3.509       38.974       18.426       15.436     1518.969      339.510      238.260        0.361        0.105       71.516       15.305        0.046      337.625        9.725      859.326
05/30/2014  06:11:00      -92.839      -59.841        0.336       26.823       17.514       12.816      719.484      306.736      164.252        0.670        0.060      110.453       10.671        0.009      337.640        9.751      859.349
05/30/2014  06:12:00      -41.893      -40.856        4.179       37.563       29.518       20.090     1410.982      871.309      403.600        0.306        0.134       58.517       11.955        0.042      337.615        9.708      859.369
05/30/2014  06:13:00      -75.710      -48.292        6.501       40.335       33.212       20.904     1626.945     1103.068      436.987        0.564        0.158       89.800       21.533        0.057      337.527        9.562      859.383
05/30/2014  06:14:00      -55.209      -48.814        0.519       24.469       23.384       18.254      598.738      546.802      333.205        0.345        0.074       73.694       13.654        0.034      337.608        9.697      859.393
05/30/2014  06:15:00      -49.902      -41.395        1.197       32.946       21.349       16.058     1085.432      455.762      257.862        0.300        0.090       64.836       17.543        0.073      337.700        9.852      859.405
05/30/2014  06:16:00      -83.668       -3.548       -2.852       22.413       16.518       14.692      502.333      272.844      215.860        0.401        0.050       83.743       11.819        0.020      337.484        9.489      859.411
05/30/2014  06:17:00      -89.183       -2.262       -8.475       22.288       17.293       13.800      496.743      299.057      190.440        0.451        0.049       89.212        4.327        0.002      337.454        9.438      859.406
05/30/2014  06:18:00      -83.463       -9.160       -6.644       22.642       13.060       10.618      512.647      170.560      112.735        0.394        0.040       83.964       10.224        0.015      337.399        9.348      859.408
05/30/2014  06:19:00      -48.549       -6.938       -0.667       16.883       12.860        9.167      285.051      165.385       84.029        0.147        0.027       49.043        8.074        0.027      337.508        9.530      859.397
05/30/2014  06:20:00      -37.770      -23.981       -3.546       12.361        6.928        8.294      152.788       48.001       68.795        0.114        0.013       44.740        5.539        0.015      337.629        9.733      859.388
05/30/2014  06:21:00      -11.168       -2.435       -0.210        5.852        5.125        4.871       34.241       26.261       23.722        0.011        0.004       11.431        1.153        0.010      337.788       10.000      859.396
05/30/2014  06:22:00       -8.501       -0.836        2.851        8.469        8.427        7.303       71.731       71.007       53.334        0.014        0.010        8.542        5.821        0.464      337.954       10.278      859.389
05/30/2014  06:23:00      -20.078        8.584       -1.182        6.377       11.408        6.970       40.672      130.142       48.577        0.035        0.011       21.836        3.848        0.031      337.797       10.014      859.393
05/30/2014  06:24:00        3.627       21.696       10.878       15.076       16.684       10.482      227.294      278.370      109.873        0.061        0.031       21.997        8.218        0.140      338.155       10.614      859.395
05/30/2014  06:25:00        1.173       32.466        5.623       21.444       19.475       13.281      459.844      379.271      176.394        0.105        0.051       32.487       10.859        0.112      338.140       10.590      859.405
05/30/2014  06:26:00      -36.052        0.267       -5.829       10.906       16.172        5.826      118.931      261.519       33.942        0.087        0.021       36.053        4.027        0.012      337.828       10.066      859.421
05/30/2014  06:27:00      -51.536      -16.096       -5.588       11.263        8.682        7.927      126.845       75.370       62.844        0.161        0.013       53.991        4.226        0.006      337.776        9.979      859.425
05/30/2014  06:28:00      -40.799      -16.305        0.390        9.292        9.998        6.802       86.341       99.965       46.270        0.108        0.012       43.937        3.929        0.008      337.851       10.103      859.434
05/30/2014  06:29:00      -33.284       -4.832       -8.581        8.182        5.833        7.663       66.942       34.024       58.728        0.068        0.008       33.633        3.393        0.010      337.878       10.150      859.436
05/30/2014  06:30:00      -34.748      -14.795       -6.738       11.302        9.693        5.665      127.727       93.948       32.088        0.086        0.013       37.767        4.119        0.012      337.936       10.247      859.437
05/30/2014  06:31:00      -36.129      -16.914       -4.001        9.694        9.674        7.321       93.978       93.589       53.604        0.092        0.012       39.892        3.353        0.007      338.016       10.382      859.449
05/30/2014  06:32:00      -27.738       -1.962       -0.283        9.284        5.362        5.759       86.187       28.749       33.162        0.046        0.007       27.807        2.856        0.011      338.004       10.360      859.460
05/30/2014  06:33:00      -18.516        1.447        5.020        8.616        5.224        6.630       74.239       27.293       43.951        0.026        0.007       18.572        5.252        0.080      338.243       10.762      859.478
05/30/2014  06:34:00      -17.401       -4.124       -1.475        9.355        6.685        6.376       87.509       44.687       40.657        0.025        0.009       17.883        4.643        0.067      338.227       10.735      859.489
05/30/2014  06:35:00       -8.723       -2.337       11.600        7.644        6.473        9.940       58.435       41.898       98.810        0.021        0.010        9.031        6.565        0.528      338.625       11.405      859.500
05/30/2014  06:36:00      -11.678       -1.915        6.425        6.758        5.111        8.789       45.668       26.120       77.240        0.017        0.007       11.834        6.020        0.259      338.424       11.066      859.494
05/30/2014  06:37:00       -4.823       -1.694       13.376        7.677        5.377        7.772       58.932       28.917       60.403        0.018        0.007        5.112        4.032        0.622      338.760       11.629      859.497
05/30/2014  06:38:00       -0.762        5.822        5.279        8.165       10.177       11.098       66.667      103.573      123.173        0.018        0.015        5.871        8.314        2.005      338.578       11.323      859.506
05/30/2014  06:39:00      -25.896       14.606        7.944        8.569       11.558        9.560       73.423      133.587       91.400        0.062        0.015       29.731        4.470        0.023      338.284       10.830      859.507
05/30/2014  06:40:00      -23.350        0.809        1.471        9.561       11.482        6.877       91.408      131.834       47.291        0.041        0.014       23.364        7.176        0.094      338.322       10.894      859.510
05/30/2014  06:41:00      -32.697       -5.857        1.380        8.419       10.477        6.164       70.881      109.774       37.993        0.066        0.011       33.217        1.943        0.003      338.280       10.824      859.512
05/30/2014  06:42:00      -22.840       -2.033        7.510       15.882        7.058       10.061      252.238       49.817      101.233        0.049        0.020       22.931       10.836        0.223      338.564       11.302      859.520
05/30/2014  06:43:00        3.138        5.179       11.654       12.979       11.588       13.630      168.461      134.271      185.771        0.033        0.024        6.055        8.606        2.020      338.748       11.612      859.520
05/30/2014  06:44:00       -9.932       -1.218        3.033        5.748        4.521        4.302       33.035       20.438       18.506        0.009        0.004       10.006        2.614        0.068      338.427       11.072      859.525
05/30/2014  06:45:00       -8.674       -4.366        7.945        8.494        7.807       11.146       72.141       60.945      124.244        0.021        0.013        9.711        7.743        0.636      338.701       11.532      859.528
05/30/2014  06:46:00       -7.414        5.968       11.300       11.972       16.938       18.676      143.334      286.902      348.786        0.050        0.039        9.518       10.977        1.330      338.686       11.507      859.521
05/30/2014  06:47:00       14.620       36.220       14.683       15.780       16.496       13.499      249.001      272.109      182.234        0.122        0.035       39.060        7.988        0.042      338.264       10.797      859.533
05/30/2014  06:48:00       -4.812        7.969       23.623        5.810       11.059        9.845       33.759      122.302       96.923        0.045        0.013        9.309        6.326        0.462      338.947       11.945      859.536
05/30/2014  06:49:00       -0.191        7.481       16.141        7.742        8.200        8.078       59.945       67.235       65.254        0.025        0.010        7.484        4.820        0.415      338.788       11.677      859.536
05/30/2014  06:50:00        6.323        6.735       12.068        6.013        7.268        7.533       36.152       52.825       56.742        0.019        0.007        9.238        2.778        0.090      338.717       11.559      859.531
05/30/2014  06:51:00       -9.357       17.594       10.229       11.176       15.082       14.666      124.910      227.470      215.082        0.053        0.028       19.927        8.377        0.177      338.937       11.928      859.535
05/30/2014  06:52:00        4.810       -0.854       -4.518        8.085       11.320        9.698       65.368      128.147       94.046        0.017        0.014        4.886        6.586        1.817      338.718       11.561      859.536
05/30/2014  06:53:00        7.000        6.559       16.930       12.649        8.118       11.747      159.988       65.898      137.995        0.037        0.018        9.593        8.195        0.730      338.952       11.953      859.539
05/30/2014  06:54:00       -1.408       11.671       26.829        9.340       11.874        9.720       87.236      140.986       94.474        0.059        0.016       11.755        6.654        0.320      339.219       12.404      859.540
05/30/2014  06:55:00        2.335        7.122       22.264       13.534       13.454       14.707      183.156      181.012      216.306        0.057        0.029        7.495       10.927        2.125      339.138       12.268      859.543
05/30/2014  06:56:00       -8.385       -0.943       25.366       16.274        8.870       11.936      264.850       78.671      142.459        0.060        0.024        8.438       10.724        1.615      339.314       12.563      859.543
05/30/2014  06:57:00      -18.771        0.133        7.971        9.588        8.898       11.578       91.938       79.176      134.040        0.036        0.015       18.771        9.256        0.243      338.976       11.993      859.540
05/30/2014  06:58:00       -8.315        7.413       15.556       10.951       12.964       14.192      119.918      168.056      201.406        0.043        0.024       11.139        6.566        0.347      339.466       12.819      859.536
05/30/2014  06:59:00       10.231        5.336        9.650       15.421       12.627       16.600      237.809      159.445      275.567        0.045        0.034       11.539       10.444        0.819      338.862       11.802      859.534
05/30/2014  07:00:00        1.226        9.401       17.992       13.694       12.798       14.875      187.538      163.788      221.256        0.049        0.029        9.480        6.587        0.483      339.007       12.047      859.530
05/30/2014  07:01:00       -7.640      -11.716       12.878       11.099       11.998       11.814      123.191      143.952      139.561        0.038        0.020       13.987        6.102        0.190      339.229       12.419      859.534
05/30/2014  07:02:00       -7.879        0.170       22.787       11.474        7.637       13.398      131.661       58.325      179.504        0.048        0.018        7.881        7.101        0.812      339.734       13.272      859.533
05/30/2014  07:03:00      -22.534       -6.464        2.770        9.309       13.815        9.519       86.653      190.842       90.611        0.046        0.018       23.443        8.026        0.117      338.999       12.033      859.527
05/30/2014  07:04:00      -15.782        3.198       15.768       14.664       10.868       13.324      215.043      118.105      177.519        0.051        0.026       16.103       11.822        0.539      339.286       12.516      859.524
05/30/2014  07:05:00      -13.033        7.541       18.078       20.153       12.658       12.783      406.151      160.236      163.404        0.064        0.036       15.057       11.745        0.608      339.245       12.446      859.517
05/30/2014  07:06:00      -24.247        2.917        4.948       11.683       15.178       14.087      136.502      230.387      198.442        0.059        0.028       24.421        5.175        0.045      338.940       11.933      859.509
05/30/2014  07:07:00      -15.997      -18.655       -4.179       12.918       15.552       12.775      166.879      241.864      163.197        0.060        0.029       24.575        9.586        0.152      339.042       12.106      859.508
05/30/2014  07:08:00      -16.310      -11.682       12.086       23.630       18.714       16.522      558.360      350.227      272.963        0.086        0.059       20.062       17.021        0.720      339.343       12.613      859.497
05/30/2014  07:09:00      -18.821      -12.423        3.524       17.493       20.282       20.488      306.003      411.378      419.742        0.083        0.057       22.551       16.381        0.528      339.219       12.403      859.501
05/30/2014  07:10:00      -22.807      -29.551        3.528       19.145       18.063       12.747      366.549      326.273      162.481        0.113        0.043       37.328       13.355        0.128      339.108       12.217      859.500
05/30/2014  07:11:00      -45.034       -2.638        4.235       11.686       14.158       11.365      136.559      200.435      129.171        0.126        0.023       45.111        2.520        0.003      338.962       11.970      859.507
05/30/2014  07:12:00      -26.776       -5.526       -1.717       14.220       11.643        8.575      202.209      135.556       73.535        0.058        0.021       27.340        6.690        0.060      339.051       12.119      859.511
05/30/2014  07:13:00      -27.196        2.915        3.500       15.842       13.135       12.934      250.960      172.522      167.277        0.068        0.030       27.352        8.610        0.099      339.327       12.584      859.515
05/30/2014  07:14:00      -10.559       -4.916       11.299       11.839       16.817       12.938      140.166      282.801      167.390        0.043        0.030       11.648        8.594        0.544      339.666       13.155      859.511
05/30/2014  07:15:00      -20.020       -8.528       18.043       11.217        9.904        8.539      125.810       98.083       72.920        0.055        0.015       21.760        7.275        0.112      339.685       13.190      859.518
05/30/2014  07:16:00      -14.774       -0.611       11.438       10.114        9.700       11.292      102.295       94.089      127.513        0.034        0.016       14.787        6.877        0.216      339.648       13.125      859.520
05/30/2014  07:17:00       -9.946       -1.167       22.751       11.129       11.484       10.709      123.847      131.882      114.688        0.049        0.019       10.015        8.326        0.691      340.011       13.739      859.518
05/30/2014  07:18:00      -14.625        6.772       27.002       12.419       11.975       11.148      154.223      143.399      124.267        0.071        0.021       16.117        7.535        0.219      340.084       13.861      859.517
05/30/2014  07:19:00       -8.784        9.570        9.931       16.020       14.088       10.576      256.651      198.464      111.849        0.042        0.028       12.990        6.440        0.246      339.710       13.230      859.513
05/30/2014  07:20:00       -2.641       29.808       23.658       15.650       15.969       17.670      244.908      255.023      312.218        0.113        0.041       29.925        9.395        0.099      339.450       12.792      859.510
05/30/2014  07:21:00      -10.092       31.710       24.814       17.133       17.315       20.966      293.524      299.795      439.564        0.138        0.052       33.277        8.924        0.072      339.572       12.998      859.504
05/30/2014  07:22:00       -1.424        4.990       14.680       33.902       14.865       16.856     1149.355      220.971      284.141        0.095        0.083        5.189       19.046       13.471      339.408       12.721      859.511
05/30/2014  07:23:00      -34.048        6.854        9.290       17.500       16.737       18.359      306.237      280.113      337.048        0.111        0.046       34.731       12.382        0.127      339.417       12.735      859.517
05/30/2014  07:24:00      -37.010       -9.115        6.426       25.187       25.819       17.314      634.398      666.631      299.772        0.155        0.080       38.116       10.123        0.071      339.494       12.865      859.524
05/30/2014  07:25:00       -6.582        1.855       24.813       19.248       16.809       20.754      370.478      282.547      430.708        0.087        0.054        6.838       15.298        5.005      339.982       13.689      859.534
05/30/2014  07:26:00        9.861       29.610       33.862       22.414       17.036       17.736      502.390      290.240      314.553        0.161        0.055       31.208       17.310        0.308      339.694       13.205      859.538
05/30/2014  07:27:00        2.328       -0.159       17.353       20.351       11.608       14.301      414.144      134.745      204.509        0.053        0.038        2.334       10.100       18.730      339.936       13.612      859.542
05/30/2014  07:28:00      -26.002      -10.565        7.578       18.305       19.756       16.761      335.070      390.306      280.933        0.093        0.050       28.066       16.534        0.347      339.712       13.234      859.546
05/30/2014  07:29:00      -18.198       -2.413       19.196       31.286       24.280       16.063      978.839      589.532      258.018        0.127        0.091       18.357       18.158        0.978      340.043       13.792      859.551
05/30/2014  07:30:00       -8.299        5.088       29.383       30.651       19.551       15.269      939.473      382.234      233.149        0.126        0.078        9.735        9.457        0.944      340.388       14.375      859.552
05/30/2014  07:31:00      -13.243        1.535       27.897       20.782       14.751       14.545      431.875      217.594      211.555        0.091        0.043       13.331        4.748        0.127      340.107       13.901      859.552
05/30/2014  07:32:00      -40.102       -1.843        5.249       18.455       19.782       15.170      340.595      391.339      230.127        0.130        0.048       40.144       11.311        0.079      339.529       12.924      859.553
05/30/2014  07:33:00       -9.609        0.539        4.484       20.656       24.309       22.715      426.683      590.925      515.987        0.082        0.077        9.624       12.274        1.627      339.940       13.618      859.560
05/30/2014  07:34:00      -31.927      -15.671       12.632       31.602       27.832       22.871      998.667      774.634      523.102        0.186        0.115       35.566       17.239        0.235      339.858       13.478      859.570
05/30/2014  07:35:00      -59.500      -26.477        5.246       32.076       18.400       17.165     1028.851      338.574      294.644        0.297        0.083       65.126       18.372        0.080      339.731       13.264      859.580
05/30/2014  07:36:00      -12.111       -8.909        9.566       28.876       33.977       18.495      833.798     1154.457      342.069        0.132        0.117       15.035        9.449        0.395      339.903       13.557      859.574
05/30/2014  07:37:00      -33.978      -19.587       13.475       20.999       18.881       14.666      440.955      356.494      215.091        0.137        0.051       39.219       15.814        0.163      339.944       13.626      859.559
05/30/2014  07:38:00       -9.336       11.922       30.619       12.456       14.385       11.988      155.160      206.921      143.702        0.084        0.025       15.142        4.336        0.082      340.523       14.603      859.546
05/30/2014  07:39:00       -3.485       10.840       15.535       25.534       17.926       24.679      651.977      321.354      609.067        0.098        0.079       11.387       17.787        2.440      340.039       13.787      859.544
05/30/2014  07:40:00      -13.317       -1.867       25.258       13.959       13.580       13.282      194.844      184.416      176.421        0.069        0.028       13.447        7.875        0.343      340.312       14.246      859.548
05/30/2014  07:41:00      -22.456        9.964       11.930       13.732       13.848       15.149      188.575      191.761      229.505        0.068        0.030       24.567       10.665        0.188      340.147       13.967      859.547
05/30/2014  07:42:00      -13.327       18.871       25.754       15.701       18.371       15.641      246.534      337.510      244.643        0.101        0.041       23.102        9.020        0.152      340.537       14.627      859.545
05/30/2014  07:43:00      -38.509       20.091       26.373       29.055       16.673       17.611      844.182      277.989      310.162        0.201        0.072       43.435       14.268        0.108      340.006       13.730      859.547
05/30/2014  07:44:00      -49.248        1.162        5.331       23.322       19.891       15.208      543.919      395.647      231.297        0.181        0.059       49.261       10.662        0.047      339.911       13.570      859.552
05/30/2014  07:45:00       -0.686       -4.185       21.096       15.762       13.112       14.515      248.445      171.919      210.688        0.055        0.032        4.240       11.637        7.530      340.491       14.549      859.551
05/30/2014  07:46:00      -15.556        1.905       13.565       12.583       11.853       13.545      158.321      140.498      183.458        0.046        0.024       15.672        8.036        0.263      340.389       14.377      859.553
05/30/2014  07:47:00      -12.461        2.831       23.580       13.072        8.748       16.003      170.875       76.535      256.101        0.061        0.025       12.778        9.681        0.574      340.665       14.845      859.561
05/30/2014  07:48:00       14.077       -4.580       11.883       22.891       13.827       18.504      524.012      191.199      342.397        0.071        0.053       14.803       12.259        0.686      340.327       14.273      859.560
05/30/2014  07:49:00        5.966       -1.104       27.465       24.305       20.581       14.434      590.735      423.584      208.354        0.101        0.061        6.067       10.339        2.904      340.549       14.648      859.553
05/30/2014  07:50:00       -6.890       -1.302       26.568       24.616       18.827       22.636      605.925      354.438      512.410        0.111        0.074        7.012       16.682        5.661      340.656       14.827      859.543
05/30/2014  07:51:00       -6.429      -18.616       29.308       16.807       27.823       20.328      282.490      774.132      413.227        0.136        0.073       19.695       13.171        0.447      340.718       14.932      859.539
05/30/2014  07:52:00      -27.705      -10.015       -2.444       16.861       21.112       20.472      284.299      445.714      419.083        0.101        0.057       29.460       10.385        0.124      339.816       13.409      859.539
05/30/2014  07:53:00      -24.646      -18.260       16.419       25.231       34.636       21.382      636.580     1199.626      457.204        0.175        0.115       30.673       12.677        0.171      340.070       13.838      859.530
05/30/2014  07:54:00       15.527       -3.727       20.315       23.807       38.140       24.375      566.751     1454.641      594.151        0.164        0.131       15.968       14.452        0.819      340.409       14.409      859.527
05/30/2014  07:55:00       -9.250       -7.857       34.454       13.396       30.027       24.536      179.455      901.592      602.025        0.151        0.084       12.136       21.795        3.225      340.638       14.798      859.521
05/30/2014  07:56:00       -8.218       -5.871       21.865       19.377       19.590       15.048      375.467      383.783      226.452        0.078        0.049       10.099       10.476        1.076      340.865       15.181      859.525
05/30/2014  07:57:00      -34.052       -6.771        7.958       16.909       23.424       15.371      285.908      548.706      236.272        0.117        0.054       34.718       14.841        0.183      340.448       14.475      859.536
05/30/2014  07:58:00      -36.986      -11.347       20.365       29.974       29.887       18.560      898.446      893.209      344.470        0.202        0.107       38.688       18.937        0.240      340.530       14.616      859.548
05/30/2014  07:59:00       -3.440       14.878       41.445       17.345       28.967       22.786      300.841      839.107      519.222        0.180        0.083       15.270       16.936        1.230      340.933       15.296      859.551
05/30/2014  08:00:00      -13.462      -12.979       -2.043       27.655       26.577       31.878      764.826      706.326     1016.214        0.142        0.124       18.700       25.236        1.821      340.703       14.906      859.559
05/30/2014  08:01:00       -4.043        3.605       24.400       15.884       29.398       15.922      252.313      864.222      253.508        0.100        0.069        5.417       12.710        5.506      341.076       15.538      859.556
05/30/2014  08:02:00       38.455       42.086       35.043       32.709       24.356       24.719     1069.853      593.201      611.009        0.338        0.114       57.009       12.066        0.045      340.303       14.231      859.558
05/30/2014  08:03:00       32.578       -0.827       20.031       33.222       38.195       28.323     1103.727     1458.893      802.174        0.241        0.168       32.589       21.246        0.425      340.399       14.395      859.558
05/30/2014  08:04:00       10.682      -13.123       33.822       27.943       33.684       22.215      780.798     1134.586      493.517        0.192        0.120       16.921       13.803        0.665      340.732       14.956      859.556
05/30/2014  08:05:00       -1.903       11.788       33.547       16.861       32.952       24.579      284.298     1085.805      604.152        0.162        0.099       11.940       16.580        1.928      340.954       15.331      859.561
05/30/2014  08:06:00       44.274       13.376       34.699       51.301       51.070       29.409     2631.812     2608.103      864.901        0.472        0.305       46.250       24.242        0.275      340.395       14.387      859.560
05/30/2014  08:07:00       23.571       -4.821       24.242       38.400       34.496       29.965     1474.586     1189.987      897.905        0.236        0.178       24.059       12.685        0.278      340.697       14.897      859.569
05/30/2014  08:08:00       18.785       16.505       45.227       37.125       34.137       22.623     1378.271     1165.366      511.808        0.286        0.153       25.006       25.899        1.073      340.779       15.035      859.575
05/30/2014  08:09:00        8.602      -33.250       13.444       27.794       25.777       29.161      772.530      664.462      850.374        0.182        0.114       34.345       18.642        0.295      340.492       14.552      859.578
05/30/2014  08:10:00       21.350       -2.784       23.046       26.532       20.771       29.730      703.951      431.418      883.865        0.151        0.101       21.530       24.072        1.250      340.981       15.379      859.588
05/30/2014  08:11:00       10.888       -7.252       22.839       21.137       30.473       20.130      446.794      928.589      405.224        0.124        0.089       13.083       16.147        1.523      340.764       15.010      859.603
05/30/2014  08:12:00       11.166       17.635       16.430       16.817       19.240       15.967      282.813      370.186      254.931        0.081        0.045       20.873        7.204        0.119      340.635       14.792      859.601
05/30/2014  08:13:00       19.238       19.749        8.388       27.050       22.154       25.695      731.707      490.796      660.257        0.136        0.094       27.571       16.598        0.362      340.682       14.871      859.608
05/30/2014  08:14:00       15.448       65.833       -9.504       31.424       27.222       21.588      987.490      741.028      466.023        0.343        0.110       67.621       18.453        0.074      340.448       14.474      859.614
05/30/2014  08:15:00       -7.143       -4.783       25.828        9.840       12.265       11.425       96.827      150.435      130.541        0.056        0.019        8.596        8.274        0.927      341.573       16.381      859.621
05/30/2014  08:16:00       13.260       44.079       13.561       29.998       23.593       23.740      899.878      556.643      563.571        0.216        0.101       46.030       16.057        0.122      340.668       14.849      859.630
05/30/2014  08:17:00       22.213       15.195       23.961       28.073       20.472       12.978      788.066      419.094      168.439        0.134        0.069       26.913        8.748        0.106      341.155       15.673      859.629
05/30/2014  08:18:00       21.162       27.197        3.794       26.429       29.625       27.720      698.489      877.650      768.375        0.177        0.117       34.460       20.168        0.343      340.956       15.336      859.637
05/30/2014  08:19:00       -5.857        5.169       23.113       16.611       10.537       14.676      275.935      111.023      215.374        0.060        0.030        7.812        4.786        0.375      341.466       16.200      859.632
05/30/2014  08:20:00      -28.868      -20.788        8.948       26.187       28.726       20.759      685.769      825.195      430.957        0.164        0.097       35.574       20.617        0.336      341.049       15.493      859.624
05/30/2014  08:21:00      -75.274      -36.376        7.210       39.911       21.695       17.920     1592.887      470.656      321.130        0.471        0.119       83.603       12.845        0.024      340.578       14.695      859.628
05/30/2014  08:22:00      -65.495      -55.434       -4.284       37.501       25.121       25.680     1406.327      631.065      659.446        0.504        0.135       85.805       20.944        0.060      340.644       14.808      859.627
05/30/2014  08:23:00      -77.605      -17.725       -6.620       29.631       27.167       14.704      877.972      738.049      216.206        0.411        0.092       79.603       11.385        0.020      340.492       14.550      859.632
05/30/2014  08:24:00      -88.989      -69.672       -7.027       22.066       23.000       15.866      486.907      529.007      251.724        0.704        0.063      113.018        9.001        0.006      340.511       14.580      859.632
05/30/2014  08:25:00      -51.368      -36.067       -5.121       10.305       20.786       10.796      106.191      432.067      116.555        0.231        0.033       62.765        7.952        0.016      340.533       14.620      859.630
05/30/2014  08:26:00      -67.132      -20.834       -4.843       13.957       32.098       10.151      194.799     1030.294      103.035        0.315        0.066       70.291        5.540        0.006      340.530       14.614      859.626
05/30/2014  08:27:00      -87.902      -47.137      -14.816       20.800       36.561       14.760      432.637     1336.688      217.865        0.608        0.099       99.743       12.030        0.015      340.640       14.800      859.619
05/30/2014  08:28:00      -77.041      -31.923       -3.199       27.559       18.070       13.542      759.521      326.523      183.382        0.412        0.063       83.393       14.292        0.029      340.704       14.909      859.611
05/30/2014  08:29:00      -52.510      -68.026       -6.300       31.359       27.035       15.278      983.411      730.895      233.431        0.469        0.097       85.935       13.511        0.025      340.792       15.058      859.607
05/30/2014  08:30:00      -23.607      -46.980        9.739       28.265       29.171       21.774      798.934      850.970      474.107        0.249        0.106       52.578       24.251        0.213      341.084       15.552      859.597
05/30/2014  08:31:00      -61.926      -22.893       -7.816        7.172       16.981       12.542       51.434      288.360      157.296        0.246        0.025       66.022        3.360        0.003      340.788       15.049      859.587
05/30/2014  08:32:00      -22.772       11.926       15.375       32.160       17.963       17.256     1034.289      322.669      297.753        0.128        0.083       25.706       17.800        0.479      341.539       16.323      859.573
05/30/2014  08:33:00       -2.977      -20.643        6.742       18.127       18.238       21.825      328.603      332.611      476.314        0.081        0.057       20.857       15.353        0.542      341.240       15.817      859.569
05/30/2014  08:34:00        5.614      -26.849        3.919       21.596       19.649       16.343      466.367      386.080      267.109        0.094        0.056       27.430        9.798        0.128      341.055       15.502      859.559
05/30/2014  08:35:00      -16.964      -14.701       15.596       30.518       21.421       14.207      931.348      458.859      201.837        0.117        0.080       22.448       17.845        0.632      341.896       16.928      859.563
05/30/2014  08:36:00       -6.709      -14.170       27.342       29.835       20.315       21.189      890.141      412.693      448.968        0.137        0.088       15.678       16.899        1.162      342.089       17.257      859.556
05/30/2014  08:37:00      -43.674      -26.709        8.738       37.054       29.504       21.114     1373.010      870.508      445.800        0.269        0.134       51.193       18.467        0.130      341.521       16.293      859.549
05/30/2014  08:38:00      -26.460        9.604       20.885       26.421       17.500       20.663      698.081      306.242      426.967        0.133        0.072       28.149       18.368        0.426      342.338       17.680      859.541
05/30/2014  08:39:00       -9.704        5.984       13.808       14.204       31.674       19.857      201.764     1003.233      394.299        0.096        0.080       11.401        7.335        0.414      341.683       16.567      859.525
05/30/2014  08:40:00      -30.645      -23.749       -0.337       37.339       21.762       17.434     1394.238      473.579      303.940        0.184        0.109       38.771       14.599        0.142      341.310       15.934      859.531
05/30/2014  08:41:00      -86.835      -57.447       -3.780       16.201       26.792       12.740      262.460      717.823      162.318        0.600        0.057      104.117       10.419        0.010      341.060       15.512      859.527
05/30/2014  08:42:00      -73.158      -71.925       -0.390       29.470       23.123       19.183      868.471      534.677      368.005        0.615        0.089      102.593       18.939        0.034      341.090       15.560      859.523
05/30/2014  08:43:00      -61.658      -59.653        0.719       26.391       29.601       17.697      696.482      876.202      313.195        0.462        0.094       85.791       13.286        0.024      341.176       15.709      859.514
05/30/2014  08:44:00      -87.693      -42.697        2.613       26.582       25.474       20.371      706.627      648.947      414.960        0.564        0.089       97.535       12.945        0.018      341.159       15.680      859.506
05/30/2014  08:45:00      -56.422      -32.223        6.370       49.242       27.794       20.843     2424.754      772.513      434.418        0.395        0.182       64.975       21.398        0.108      341.435       16.146      859.501
05/30/2014  08:46:00      -52.852      -38.656        8.099       43.124       33.296       22.770     1859.637     1108.606      518.494        0.392        0.174       65.480       23.097        0.124      341.586       16.401      859.499
05/30/2014  08:47:00     -109.043      -46.935       -6.844       26.054       24.662       17.387      678.834      608.220      302.313        0.786        0.079      118.715        8.465        0.005      341.150       15.663      859.490
05/30/2014  08:48:00      -70.519      -11.964       -3.316       29.443       21.078       17.786      866.914      444.289      316.330        0.338        0.081       71.526       15.388        0.046      341.249       15.830      859.489
05/30/2014  08:49:00      -53.865       -1.364        2.156       22.025       20.702       14.201      485.085      428.553      201.661        0.201        0.056       53.882       11.795        0.048      341.274       15.873      859.482
05/30/2014  08:50:00      -22.914       -2.823       13.064       38.923       21.810       21.104     1514.994      475.679      445.370        0.157        0.122       23.088       19.571        0.719      342.034       17.162      859.475
05/30/2014  08:51:00      -36.460        8.837       18.218       24.961       15.624       23.651      623.035      244.108      559.353        0.158        0.071       37.516       14.130        0.142      341.684       16.569      859.469
05/30/2014  08:52:00      -30.588      -13.468        8.342       28.861       21.676       18.494      832.952      469.860      342.018        0.142        0.082       33.422       13.998        0.175      341.476       16.214      859.466
05/30/2014  08:53:00      -41.831       -5.730        7.478       25.547       11.425       17.009      652.637      130.534      289.297        0.146        0.054       42.222       17.543        0.173      341.675       16.553      859.465
05/30/2014  08:54:00       11.146       -0.744       13.916       42.964       21.889       28.244     1845.936      479.116      797.702        0.172        0.156       11.171       10.031        0.806      341.801       16.768      859.451
05/30/2014  08:55:00       57.240       17.068       32.315       43.762       35.112       34.705     1915.115     1232.861     1204.441        0.448        0.218       59.730       28.375        0.226      341.626       16.470      859.453
05/30/2014  08:56:00       33.249       20.121       48.933       57.392       31.152       30.461     3293.827      970.446      927.888        0.455        0.260       38.863       30.034        0.597      341.581       16.394      859.457
05/30/2014  08:57:00       -3.340       24.799       55.107       26.687       38.745       22.034      712.188     1501.194      485.492        0.318        0.135       25.023       14.360        0.329      342.161       17.378      859.456
05/30/2014  08:58:00      -27.620      -36.427       19.648       37.229       43.490       34.971     1386.020     1891.376     1222.979        0.349        0.225       45.714       27.893        0.372      341.959       17.036      859.462
05/30/2014  08:59:00       20.105        3.734       44.537       31.084       30.092       28.278      966.236      905.558      799.623        0.254        0.134       20.449       20.947        1.049      342.474       17.911      859.460
05/30/2014  09:00:00       64.072      -24.549       17.987       36.737       35.437       45.674     1349.598     1255.808     2086.095        0.486        0.235       68.614       24.567        0.128      341.503       16.261      859.462
05/30/2014  09:01:00       54.233       17.369       20.435       32.670       42.222       27.585     1067.297     1782.681      760.925        0.363        0.181       56.946       20.877        0.134      341.466       16.199      859.458
05/30/2014  09:02:00       39.071       -2.716       15.433       32.402       21.907       25.842     1049.891      479.902      667.830        0.198        0.110       39.165       13.325        0.116      341.671       16.546      859.465
05/30/2014  09:03:00        6.493        6.885       -6.950       21.504       21.198       21.058      462.416      449.358      443.420        0.075        0.068        9.464        6.813        0.518      341.914       16.959      859.464
05/30/2014  09:04:00      -10.770       28.290        0.967       21.417       21.806       30.883      458.683      475.503      953.766        0.140        0.094       30.270       16.469        0.296      342.073       17.229      859.461
05/30/2014  09:05:00      -17.658       13.157        2.773       13.923       40.334       26.031      193.861     1626.846      677.607        0.149        0.125       22.020        7.902        0.129      341.864       16.874      859.447
05/30/2014  09:06:00      -56.040       52.878      -15.432       23.334       24.796       12.662      544.492      614.855      160.314        0.375        0.066       77.049        6.997        0.008      341.595       16.416      859.437
05/30/2014  09:07:00      -42.842        0.995        7.826       27.468       14.113       20.509      754.493      199.179      420.611        0.164        0.069       42.853       21.527        0.252      341.833       16.819      859.422
05/30/2014  09:08:00       27.409       27.289       28.372       38.741       37.153       31.626     1500.893     1380.311     1000.194        0.309        0.194       38.678       13.306        0.118      342.654       18.215      859.415
05/30/2014  09:09:00       69.074       28.931       23.865       33.079       29.178       28.266     1094.216      851.343      798.959        0.446        0.137       74.888       20.047        0.072      342.275       17.570      859.394
05/30/2014  09:10:00       14.178        7.963       19.257       47.535       29.841       27.683     2259.577      890.504      766.375        0.228        0.196       16.261       18.664        1.317      342.867       18.578      859.383
05/30/2014  09:11:00       72.035       57.845       20.599       59.287       45.628       38.374     3514.997     2081.911     1472.568        0.801        0.353       92.386       22.834        0.061      342.680       18.259      859.369
05/30/2014  09:12:00       52.785       69.284        7.681       52.470       43.349       30.085     2753.049     1879.177      905.092        0.659        0.277       87.101       11.597        0.018      342.389       17.766      859.344
05/30/2014  09:13:00       28.566       72.495       84.115       44.201       57.217       31.202     1953.749     3273.834      973.546        0.967        0.310       77.920       26.546        0.116      342.410       17.801      859.345
05/30/2014  09:14:00       13.791      -18.681       10.373       43.314       38.133       46.026     1876.098     1454.089     2118.403        0.305        0.272       23.220       23.355        1.012      341.787       16.743      859.344
05/30/2014  09:15:00      115.779       65.645       29.071       77.993       50.910       36.706     6082.844     2591.790     1347.336        1.429        0.501      133.095       20.031        0.023      341.924       16.974      859.341
05/30/2014  09:16:00      129.063       76.969        9.406       43.289       35.202       42.818     1873.914     1239.195     1833.347        1.381        0.247      150.271       24.148        0.026      341.882       16.902      859.331
05/30/2014  09:17:00       33.524       61.022        1.614       35.134       39.354       34.010     1234.404     1548.719     1156.659        0.439        0.197       69.624       32.306        0.215      342.277       17.575      859.325
05/30/2014  09:18:00       67.892       75.194       11.019       56.650       35.026       33.908     3209.220     1226.792     1149.754        0.798        0.279      101.308       26.118        0.066      342.141       17.343      859.317
05/30/2014  09:19:00        9.115       12.569       21.574       22.229       29.435       19.533      494.135      866.399      381.551        0.122        0.087       15.526       18.483        1.417      342.890       18.617      859.313
05/30/2014  09:20:00       -2.825       -8.227       36.215       28.150       37.998       24.176      792.446     1443.827      584.486        0.210        0.141        8.699       16.353        3.534      342.758       18.392      859.307
05/30/2014  09:21:00       14.113      -34.814       31.788       34.701       37.409       32.889     1204.186     1399.419     1081.696        0.305        0.184       37.566       23.980        0.407      342.612       18.144      859.300
05/30/2014  09:22:00        1.385       20.110       44.028       19.316       29.815       25.607      373.112      888.926      655.728        0.213        0.096       20.158        8.854        0.193      342.964       18.742      859.291
05/30/2014  09:23:00       36.027      -10.929        3.949       31.278       35.926       23.415      978.316     1290.677      548.277        0.212        0.141       37.648       16.586        0.194      342.124       17.314      859.286
05/30/2014  09:24:00       69.903       49.794       34.194       41.304       41.062       38.716     1706.061     1686.068     1498.912        0.671        0.245       85.825       27.581        0.103      342.051       17.192      859.271
05/30/2014  09:25:00      100.284       69.166       14.048       41.254       33.251       38.519     1701.925     1105.607     1483.679        0.966        0.215      121.823       23.899        0.038      342.298       17.611      859.245
05/30/2014  09:26:00       46.052       29.582       63.929       65.649       53.814       33.257     4309.729     2895.925     1106.003        0.770        0.416       54.735       30.457        0.310      342.863       18.570      859.237
05/30/2014  09:27:00       56.034       33.575       55.803       45.203       50.314       35.161     2043.289     2531.493     1236.261        0.659        0.291       65.322       27.996        0.184      342.155       17.367      859.222
05/30/2014  09:28:00       10.814      -48.672        6.330       52.431       45.239       30.268     2749.018     2046.534      916.178        0.412        0.286       49.859       25.324        0.258      341.799       16.762      859.220
05/30/2014  09:29:00       79.809       42.432       25.027       48.075       44.708       34.626     2311.176     1998.821     1198.968        0.715        0.275       90.387       19.844        0.048      342.698       18.290      859.209
05/30/2014  09:30:00      155.805       87.666       25.247       75.353       70.932       48.463     5678.045     5031.411     2348.693        2.283        0.653      178.775       25.060        0.020      342.367       17.726      859.205
05/30/2014  09:31:00       86.831       77.833       54.287       92.351       52.354       54.184     8528.633     2740.905     2935.944        1.537        0.710      116.609       41.791        0.128      342.774       18.418      859.194
05/30/2014  09:32:00       58.591       77.481       59.513       61.354       39.442       49.292     3764.329     1555.665     2429.705        1.036        0.387       97.140       43.999        0.205      342.578       18.086      859.208
05/30/2014  09:33:00       62.112       48.945       11.182       39.080       42.189       37.860     1527.248     1779.949     1433.349        0.556        0.237       79.079       18.978        0.058      342.465       17.893      859.214
05/30/2014  09:34:00       94.172       51.986        4.554       53.948       38.813       30.003     2910.364     1506.448      900.158        0.845        0.266      107.568       14.544        0.018      342.783       18.436      859.203
05/30/2014  09:35:00      150.459       95.884        6.773       48.488       32.713       31.858     2351.049     1070.134     1014.958        1.816        0.222      178.414       12.901        0.005      342.302       17.615      859.204
05/30/2014  09:36:00      126.343       82.391       24.521       44.069       30.236       28.576     1942.079      914.222      816.573        1.351        0.184      150.834       17.236        0.013      342.159       17.372      859.197
05/30/2014  09:37:00       32.809       51.354        1.136       29.262       27.504       31.962      856.289      756.452     1021.582        0.317        0.132       60.939       23.142        0.144      342.627       18.169      859.189
05/30/2014  09:38:00       33.263       24.114       20.179       60.548       29.507       28.705     3666.057      870.683      823.968        0.373        0.268       41.084       17.486        0.181      342.843       18.535      859.177
05/30/2014  09:39:00       45.486       52.729       20.915       32.293       22.824       24.624     1042.833      520.948      606.319        0.373        0.109       69.637       16.881        0.059      343.000       18.804      859.164
05/30/2014  09:40:00       16.556      -13.345       -1.872       37.314       34.735       26.622     1392.331     1206.499      708.736        0.188        0.165       21.264       26.732        1.580      342.655       18.215      859.158
05/30/2014  09:41:00       -2.134       19.370       -5.758       28.736       43.457       28.252      825.750     1888.502      798.175        0.196        0.176       19.488       13.591        0.486      342.955       18.728      859.139
05/30/2014  09:42:00       11.121       49.215       -2.077       23.534       44.335       20.714      553.851     1965.598      429.071        0.275        0.147       50.456       20.215        0.161      342.882       18.602      859.131
05/30/2014  09:43:00       36.054       25.246       19.660       33.499       26.963       17.980     1122.216      726.994      323.271        0.225        0.109       44.014        7.529        0.029      343.330       19.367      859.120
05/30/2014  09:44:00       22.435       21.593       34.559       49.126       68.054       47.894     2413.353     4631.378     2293.832        0.575        0.467       31.138       46.085        2.190      343.042       18.876      859.107
05/30/2014  09:45:00        9.228      -43.383        8.921       33.147       52.265       36.167     1098.728     2731.665     1308.081        0.359        0.257       44.354       30.686        0.479      342.722       18.331      859.098
05/30/2014  09:46:00       15.788      -57.119        8.239       28.850       33.178       28.099      832.324     1100.771      789.562        0.315        0.136       59.261       22.830        0.148      342.545       18.030      859.086
05/30/2014  09:47:00       14.030      -41.228       11.821       28.633       44.799       24.460      819.868     2006.988      598.295        0.273        0.171       43.550       16.494        0.143      342.618       18.154      859.081
05/30/2014  09:48:00       11.771       20.793       29.738       25.755       36.985       22.545      663.307     1367.921      508.261        0.200        0.127       23.894       10.293        0.186      343.470       19.605      859.072
05/30/2014  09:49:00       12.672      -19.777       27.336       21.997       20.083       19.676      483.875      403.345      387.148        0.129        0.064       23.489        8.732        0.138      343.096       18.966      859.071
05/30/2014  09:50:00       10.672       22.775       47.917       25.895       27.918       15.833      670.537      779.421      250.685        0.231        0.085       25.151       14.050        0.312      343.607       19.838      859.060
05/30/2014  09:51:00       -3.232       29.147       51.374       24.173       46.499       22.773      584.327     2162.114      518.608        0.338        0.163       29.325       10.960        0.140      343.620       19.861      859.059
05/30/2014  09:52:00       36.059       35.677       79.366       41.081       41.276       27.190     1687.674     1703.729      739.311        0.650        0.207       50.726       21.452        0.179      343.070       18.922      859.046
05/30/2014  09:53:00       57.030       52.822       26.302       54.536       35.839       36.155     2974.140     1284.416     1307.195        0.615        0.278       77.734       35.366        0.207      342.751       18.382      859.040
05/30/2014  09:54:00       34.129       28.888       29.050       47.038       33.623       32.116     2212.545     1130.486     1031.450        0.361        0.219       44.713       23.999        0.288      343.742       20.068      859.026
05/30/2014  09:55:00       90.563       58.219       27.154       52.885       33.496       36.337     2796.799     1121.957     1320.346        0.878        0.262      107.662       14.275        0.018      343.324       19.354      859.013
05/30/2014  09:56:00       73.072       69.007       16.240       54.221       54.101       48.847     2939.882     2926.902     2386.036        0.931        0.413      100.506       30.505        0.092      343.190       19.126      859.000
05/30/2014  09:57:00       42.958       94.646       -4.576       43.675       64.360       45.223     1907.512     4142.270     2045.123        0.946        0.405      103.939       41.795        0.162      343.261       19.247      858.980
05/30/2014  09:58:00       38.755       61.799       11.885       52.462       51.831       36.979     2752.302     2686.414     1367.444        0.613        0.340       72.946       34.202        0.220      343.516       19.682      858.972
05/30/2014  09:59:00       24.114      159.319       -6.576       63.206      100.929       48.226     3994.985    10186.672     2325.734        2.125        0.825      161.134       47.627        0.087      343.302       19.317      858.954
05/30/2014  10:00:00      110.210       94.675       12.331       67.790       45.549       47.884     4595.487     2074.700     2292.888        1.511        0.448      145.291       31.465        0.047      343.283       19.285      858.932
05/30/2014  10:01:00       71.884       71.257        8.828       64.740       51.257       47.032     4191.308     2627.256     2211.978        0.967        0.452      101.217       32.200        0.101      343.447       19.564      858.943
05/30/2014  10:02:00       62.704       56.032        4.655       29.510       29.414       28.120      870.848      865.182      790.709        0.481        0.126       84.092       18.797        0.050      343.429       19.535      858.937
05/30/2014  10:03:00       54.722       43.647        0.836       45.266       49.639       35.433     2049.015     2464.031     1255.476        0.533        0.288       69.997       22.979        0.108      343.588       19.806      858.951
05/30/2014  10:04:00        9.393       13.514       47.608       28.915       34.678       26.309      836.087     1202.540      692.188        0.263        0.137       16.458       13.896        0.713      344.077       20.640      858.956
05/30/2014  10:05:00       51.024       16.472       35.558       57.163       36.586       42.148     3267.617     1338.529     1776.492        0.526        0.319       53.617       36.612        0.466      343.545       19.731      858.967
05/30/2014  10:06:00      -12.625      -13.221       19.787       26.162       30.903       32.792      684.438      954.969     1075.339        0.172        0.136       18.281       22.645        1.534      343.772       20.121      858.956
05/30/2014  10:07:00       -4.138       12.761       26.305       37.815       21.665       18.769     1430.008      469.392      352.261        0.156        0.113       13.415       15.432        1.323      344.001       20.510      858.960
05/30/2014  10:08:00       55.946       38.658       29.644       26.393       22.038       27.274      696.575      485.653      743.863        0.371        0.096       68.003       10.888        0.026      343.705       20.005      858.950
05/30/2014  10:09:00        6.494       -3.724       10.771       24.965       29.770       21.514      623.250      886.268      462.866        0.107        0.099        7.486        8.979        1.439      343.544       19.730      858.945
05/30/2014  10:10:00      -21.270       -5.651       16.449       23.651       28.952       16.210      559.346      838.218      262.773        0.121        0.083       22.008        9.466        0.185      343.764       20.107      858.939
05/30/2014  10:11:00      -40.454      -12.954        4.991       32.140       31.933       27.005     1032.951     1019.718      729.250        0.230        0.139       42.477       14.812        0.122      343.809       20.183      858.928
05/30/2014  10:12:00      -78.269      -27.979        7.780       27.373       23.508       20.158      749.308      552.627      406.343        0.434        0.085       83.120        8.673        0.011      343.252       19.234      858.928
05/30/2014  10:13:00       -9.823       -1.173       13.898       37.864       27.677       26.914     1433.703      766.001      724.376        0.161        0.146        9.893       17.738        3.215      343.506       19.666      858.910
05/30/2014  10:14:00       32.593      -31.654        5.101       32.552       28.825       29.044     1059.640      830.896      843.539        0.241        0.137       45.434       12.118        0.071      342.936       18.696      858.901
05/30/2014  10:15:00       16.432      -31.536        8.182       34.614       33.152       32.549     1198.130     1099.043     1059.405        0.234        0.168       35.560       26.137        0.540      343.220       19.180      858.895
05/30/2014  10:16:00     -107.606      -48.904       -4.646       55.269       41.104       34.574     3054.705     1689.529     1195.341        0.996        0.297      118.198       32.133        0.074      343.276       19.275      858.885
05/30/2014  10:17:00      -92.453      -60.472        6.059       50.361       42.017       27.504     2536.243     1765.406      756.492        0.865        0.253      110.474       27.831        0.063      343.450       19.571      858.870
05/30/2014  10:18:00      -63.853      -39.951        1.922       30.951       39.678       21.647      957.987     1574.364      468.590        0.434        0.150       75.321       15.516        0.042      343.527       19.704      858.867
05/30/2014  10:19:00      -82.663      -85.493        8.123       71.687       48.046       33.442     5139.042     2308.372     1118.392        1.139        0.428      118.921       38.161        0.103      343.543       19.728      858.862
05/30/2014  10:20:00      -50.041      -26.742       23.354       68.008       36.124       31.557     4625.049     1304.944      995.834        0.534        0.346       56.738       34.122        0.362      343.955       20.433      858.861
05/30/2014  10:21:00      -15.655      -12.213       19.832       45.612       24.101       26.121     2080.486      580.845      682.315        0.206        0.167       19.856       20.635        1.080      344.268       20.968      858.847
05/30/2014  10:22:00      -23.161     -100.011       -1.967       55.082       42.968       37.935     3034.062     1846.238     1439.069        0.843        0.316      102.658       23.185        0.051      343.428       19.533      858.849
05/30/2014  10:23:00      -12.873      -19.996       -9.167       35.572       36.112       22.751     1265.377     1304.047      517.622        0.187        0.154       23.782       19.457        0.669      343.502       19.658      858.846
05/30/2014  10:24:00      -19.391      -27.237       15.622       24.721       44.101       24.398      611.151     1944.899      595.238        0.226        0.158       33.435       28.457        0.724      344.119       20.714      858.857
05/30/2014  10:25:00        6.047       -7.039       30.560       29.116       32.735       33.516      847.738     1071.595     1123.298        0.203        0.152        9.280       21.253        5.245      344.438       21.257      858.846
05/30/2014  10:26:00       22.918       28.323       38.060       52.364       38.911       24.482     2741.940     1514.105      599.377        0.381        0.243       36.434       21.427        0.346      344.461       21.298      858.836
05/30/2014  10:27:00       62.148        8.391       10.661       35.121       42.849       39.217     1233.497     1836.023     1537.956        0.433        0.230       62.712       17.777        0.080      343.881       20.306      858.840
05/30/2014  10:28:00       66.637      -34.571       18.650       58.024       37.226       47.106     3366.759     1385.760     2218.979        0.648        0.349       75.071       39.469        0.276      343.620       19.861      858.834
05/30/2014  10:29:00       73.753      -41.237       31.922       70.921       54.187       51.286     5029.798     2936.210     2630.207        0.938        0.530       84.498       49.532        0.344      343.630       19.878      858.834
05/30/2014  10:30:00       50.705      -31.268       20.989       60.441       80.463       57.968     3653.067     6474.361     3360.326        0.874        0.674       59.571       64.804        1.183      343.986       20.485      858.839
05/30/2014  10:31:00       34.262        7.100       60.480       43.338       80.726       52.752     1878.224     6516.697     2782.812        0.803        0.559       34.990       60.266        2.967      343.509       19.670      858.842
05/30/2014  10:32:00       18.520        3.632       -6.240       23.781       53.310       18.183      565.517     2841.906      330.624        0.207        0.187       18.873       21.717        1.324      343.150       19.060      858.827
05/30/2014  10:33:00       39.144       31.181        6.621       22.196       27.628       23.699      492.653      763.324      561.633        0.218        0.091       50.045       15.941        0.101      343.618       19.857      858.816
05/30/2014  10:34:00        2.191       30.647       25.198       28.120       34.062       27.304      790.749     1160.234      745.518        0.214        0.135       30.726       12.231        0.158      343.830       20.220      858.798
05/30/2014  10:35:00       -7.231        8.949       43.036       14.862       39.244       32.460      220.893     1540.075     1053.624        0.240        0.141       11.505       22.376        3.783      344.016       20.537      858.789
05/30/2014  10:36:00       73.868       38.204       22.952       54.268       36.914       26.734     2945.030     1362.663      714.685        0.623        0.251       83.162       15.257        0.034      343.720       20.031      858.788
05/30/2014  10:37:00       20.584      -35.705       18.585       25.649       49.410       23.537      657.860     2441.368      553.980        0.285        0.183       41.213       16.637        0.163      343.697       19.992      858.802
05/30/2014  10:38:00      -46.424       -9.407       19.971       48.803       39.530       34.102     2381.767     1562.601     1162.919        0.387        0.255       47.367       34.324        0.525      343.892       20.323      858.798
05/30/2014  10:39:00      -43.243      -32.411       19.512       49.410       43.863       30.576     2441.362     1924.003      934.912        0.430        0.265       54.041       23.578        0.190      343.765       20.107      858.791
05/30/2014  10:40:00      -11.088      -35.056       18.391       50.566       46.673       34.102     2556.923     2178.330     1162.947        0.379        0.295       36.768       27.166        0.546      343.840       20.237      858.792
05/30/2014  10:41:00      -31.142      -33.137       16.846       60.102       50.165       42.200     3612.287     2516.503     1780.852        0.513        0.395       45.474       38.805        0.728      343.828       20.214      858.783
05/30/2014  10:42:00     -134.633     -108.191       -0.305       69.688       64.412       34.049     4856.459     4148.853     1159.311        2.000        0.508      172.717       33.743        0.038      343.433       19.540      858.780
05/30/2014  10:43:00     -124.004      -99.978        6.502       70.603       65.832       35.758     4984.854     4333.868     1278.623        1.800        0.530      159.288       35.993        0.051      343.447       19.565      858.780
05/30/2014  10:44:00     -199.497     -151.500      -16.054       66.475       55.451       37.915     4418.894     3074.861     1437.536        3.597        0.447      250.503       36.685        0.021      343.319       19.343      858.768
05/30/2014  10:45:00     -123.349      -84.125       14.676       74.695       56.644       34.469     5579.276     3208.576     1188.111        1.624        0.499      149.305       38.175        0.065      343.499       19.652      858.757
05/30/2014  10:46:00      -62.964       11.090        2.970       38.537       23.784       21.152     1485.078      565.683      447.410        0.330        0.125       63.933       19.318        0.091      343.596       19.819      858.740
05/30/2014  10:47:00      -22.499      -35.794       -2.191       34.010       35.864       23.047     1156.655     1286.257      531.157        0.238        0.149       42.278       20.609        0.238      343.602       19.829      858.740
05/30/2014  10:48:00      -35.310       -7.958       12.595       35.486       38.967       23.436     1259.279     1518.401      549.269        0.240        0.166       36.195       21.485        0.352      343.727       20.043      858.739
05/30/2014  10:49:00       12.972      -39.537       15.734       41.593       27.994       25.583     1729.999      783.649      654.511        0.257        0.158       41.611       22.950        0.304      343.539       19.722      858.735
05/30/2014  10:50:00       51.979      -38.637        2.443       55.574       40.138       29.793     3088.436     1611.023      887.598        0.489        0.279       64.766       30.864        0.227      343.383       19.457      858.728
05/30/2014  10:51:00       52.733      -30.716       12.445       66.976       44.657       33.187     4485.754     1994.211     1101.383        0.573        0.379       61.026       30.662        0.252      343.996       20.501      858.710
05/30/2014  10:52:00       37.372       -8.509       37.423       59.669       52.886       43.299     3560.359     2796.883     1874.778        0.555        0.412       38.328       41.608        1.179      343.989       20.490      858.695
05/30/2014  10:53:00       20.981      -11.909       33.691       38.582       90.616       31.901     1488.588     8211.333     1017.667        0.622        0.536       24.125       45.596        3.572      343.846       20.244      858.684
05/30/2014  10:54:00       62.528      -53.157       32.348       62.150      103.145       38.310     3862.659    10638.794     1467.660        1.187        0.798       82.069       54.681        0.444      343.855       20.261      858.700
05/30/2014  10:55:00       31.925      -44.102       15.376       35.967       45.090       34.922     1293.659     2033.079     1219.569        0.387        0.227       54.445       32.503        0.356      343.872       20.289      858.706
05/30/2014  10:56:00     -106.505      -89.448        1.660      100.503       78.823       38.403    10100.813     6213.136     1474.792        1.856        0.889      139.083       55.502        0.159      343.827       20.211      858.707
05/30/2014  10:57:00     -175.846     -124.950        2.827       85.899       61.980       41.227     7378.553     3841.528     1699.665        2.973        0.646      215.718       37.175        0.030      343.687       19.971      858.698
05/30/2014  10:58:00       -6.267      -67.566       10.714       92.684       65.006       42.989     8590.392     4225.796     1848.094        0.969        0.733       67.856       36.722        0.293      343.995       20.499      858.694
05/30/2014  10:59:00      -19.755       -7.251       33.314       47.044       67.550       36.124     2213.126     4562.965     1304.914        0.482        0.404       21.044       24.555        1.362      344.042       20.580      858.681
05/30/2014  11:00:00       -1.212       -4.642       15.337       22.238       21.234       22.070      494.511      450.877      487.086        0.085        0.072        4.797       13.332        7.723      344.034       20.567      858.679
05/30/2014  11:01:00      -21.564       14.066       34.844       26.708       34.266       28.843      713.294     1174.133      831.939        0.230        0.136       25.747        9.267        0.130      344.062       20.615      858.679
05/30/2014  11:02:00       -6.233      -23.681        2.464       47.097       62.184       40.482     2218.174     3866.825     1638.778        0.416        0.386       24.488       42.570        3.022      343.996       20.502      858.696
05/30/2014  11:03:00       39.321     -108.027        9.819       69.755       86.405       48.674     4865.725     7465.902     2369.125        1.400        0.735      114.961       42.460        0.136      343.674       19.952      858.701
05/30/2014  11:04:00       18.702       17.065       33.494       43.545       33.603       38.714     1896.173     1129.173     1498.750        0.314        0.226       25.317       28.532        1.270      343.824       20.209      858.685
05/30/2014  11:05:00      -49.245        3.323       16.206       45.732       31.414       28.209     2091.374      986.869      795.732        0.329        0.194       49.357       28.463        0.333      343.884       20.311      858.684
05/30/2014  11:06:00      -14.518        1.208       17.779       22.483       21.779       23.984      505.484      474.316      575.210        0.104        0.078       14.568       11.190        0.590      344.296       21.015      858.685
05/30/2014  11:07:00      -56.194      -10.806       16.813       45.469       51.964       30.805     2067.401     2700.228      948.939        0.464        0.286       57.224       28.571        0.249      343.995       20.500      858.682
05/30/2014  11:08:00      -48.887        5.963        4.184       30.891       34.685       20.568      954.283     1203.016      423.054        0.251        0.129       49.249       18.328        0.138      343.933       20.395      858.672
05/30/2014  11:09:00      -28.660      -60.746        5.084       49.895       46.023       28.461     2489.528     2118.137      810.001        0.498        0.271       67.168        9.593        0.020      344.032       20.564      858.674
05/30/2014  11:10:00        1.377      -32.557        8.678       43.963       40.996       30.198     1932.751     1680.666      911.904        0.283        0.226       32.586       23.302        0.511      343.972       20.461      858.663
05/30/2014  11:11:00       43.143       -8.561       50.439       55.431       75.124       40.079     3072.627     5643.633     1606.343        0.740        0.516       43.984       44.633        1.030      344.171       20.802      858.654
05/30/2014  11:12:00       10.787      -25.989       -5.157       35.172       61.202       36.479     1237.037     3745.644     1330.726        0.356        0.316       28.139       27.748        0.972      344.179       20.814      858.642
05/30/2014  11:13:00       -6.486        5.557       46.952       48.739       79.865       58.450     2375.453     6378.467     3416.378        0.722        0.609        8.541       58.743       47.301      344.257       20.947      858.648
05/30/2014  11:14:00      -16.703      -20.191       46.215       38.084      110.040       66.640     1450.391    12108.888     4440.868        1.041        0.900       26.204       78.546        8.985      344.174       20.805      858.644
05/30/2014  11:15:00      -95.741      -79.570        9.415       90.934       62.136       27.751     8269.022     3860.867      770.136        1.424        0.645      124.490       20.280        0.027      343.971       20.459      858.654
05/30/2014  11:16:00      -78.571      -62.968        4.960       83.508       58.359       39.459     6973.537     3405.733     1557.047        1.105        0.597      100.689       39.524        0.154      344.212       20.870      858.663
05/30/2014  11:17:00     -123.903      -58.817        2.402       58.296       43.522       27.071     3398.440     1894.147      732.825        1.242        0.301      137.154       26.374        0.037      343.987       20.487      858.660
05/30/2014  11:18:00       -4.630      -12.637       11.178       40.392       29.514       27.328     1631.479      871.099      746.801        0.178        0.162       13.458       18.691        1.929      344.283       20.991      858.649
05/30/2014  11:19:00       60.391      -98.417        5.964       60.947      106.841       40.258     3714.513    11414.935     1620.691        1.506        0.838      115.468       51.856        0.202      344.299       21.017      858.653
05/30/2014  11:20:00      -34.375      -89.948       18.403      101.937       79.244       44.102    10391.123     6279.601     1944.965        1.411        0.931       96.293       40.470        0.177      344.567       21.478      858.650
05/30/2014  11:21:00     -109.950      -64.159       12.104       73.426       72.824       42.595     5391.439     5303.277     1814.337        1.443        0.625      127.301       45.885        0.130      344.165       20.789      858.669
05/30/2014  11:22:00      -73.420      -20.835        2.787       63.999       72.930       48.325     4095.826     5318.811     2335.335        0.879        0.587       76.319       45.089        0.349      344.181       20.817      858.660
05/30/2014  11:23:00      -76.448      -23.660       -1.085       53.775       32.854       25.054     2891.786     1079.405      627.718        0.550        0.230       80.025       18.314        0.052      344.305       21.029      858.652
05/30/2014  11:24:00      -34.786     -133.569        3.053       50.354       57.028       33.144     2535.485     3252.202     1098.549        1.297        0.344      138.024       27.625        0.040      344.508       21.375      858.649
05/30/2014  11:25:00     -143.711     -124.006      -12.460       83.923       90.607       37.212     7043.093     8209.590     1384.765        2.641        0.832      189.816       38.652        0.041      344.384       21.162      858.642
05/30/2014  11:26:00     -108.039      -61.495        4.725       77.373       99.363       45.435     5986.615     9872.946     2064.381        1.670        0.896      124.315       48.169        0.150      344.585       21.507      858.645
05/30/2014  11:27:00      -40.627      -17.319       13.240       78.234       42.909       35.847     6120.504     1841.170     1284.986        0.568        0.462       44.165       35.244        0.637      344.746       21.783      858.653
05/30/2014  11:28:00      -40.216      -56.449       14.254       61.635       99.161       36.113     3798.888     9832.829     1304.173        0.997        0.747       69.310       33.454        0.233      344.408       21.207      858.669
05/30/2014  11:29:00      -94.675     -104.004        5.605       48.170       79.468       38.885     2320.335     6315.166     1512.021        1.498        0.507      140.642       25.186        0.032      344.447       21.274      858.651
05/30/2014  11:30:00      -47.359     -172.283       10.927       65.370       96.865       37.966     4273.292     9382.857     1441.432        2.357        0.755      178.674       36.973        0.043      344.355       21.112      858.677
05/30/2014  11:31:00     -108.367      -91.471        2.053       67.815       55.490       40.194     4598.842     3079.159     1615.551        1.470        0.465      141.811       29.039        0.042      344.583       21.505      858.673
05/30/2014  11:32:00      -14.609     -103.633       -9.002       66.157       42.202       24.903     4376.788     1780.984      620.146        0.890        0.339      104.658       17.547        0.028      344.199       20.849      858.665
05/30/2014  11:33:00       -6.142      -51.477       28.501       73.722       57.367       38.281     5434.957     3290.954     1465.467        0.684        0.510       51.842       41.658        0.646      345.052       22.308      858.652
05/30/2014  11:34:00     -125.057      -86.218       -6.457       67.821       54.582       30.644     4599.695     2979.245      939.052        1.581        0.426      151.898       24.314        0.026      344.286       20.997      858.630
05/30/2014  11:35:00      -27.195      -54.876       -4.841       30.193       18.260       15.535      911.647      333.414      241.341        0.263        0.074       61.245       18.740        0.094      343.948       20.420      858.615
05/30/2014  11:36:00      -49.615      -37.755        4.202       33.239       37.968       25.050     1104.850     1441.542      627.503        0.354        0.159       62.347       21.240        0.116      344.256       20.947      858.612
05/30/2014  11:37:00      -54.291      -82.747       -3.750       34.273       41.704       34.063     1174.634     1739.218     1160.257        0.694        0.204       98.967       15.313        0.024      344.172       20.803      858.621
05/30/2014  11:38:00       65.250       -0.793       31.651       41.057       54.375       30.056     1685.705     2956.601      903.337        0.540        0.277       65.255       31.463        0.232      344.385       21.167      858.606
05/30/2014  11:39:00       -6.677      -87.500       17.409       47.549       54.206       25.508     2260.912     2938.328      650.661        0.693        0.292       87.754       20.708        0.056      344.632       21.589      858.612
05/30/2014  11:40:00     -160.007     -116.796       -2.905       96.008       83.215       38.871     9217.582     6924.681     1510.965        2.845        0.883      198.100       45.184        0.052      344.448       21.272      858.601
05/30/2014  11:41:00     -196.789     -127.985       -0.188       86.655       89.837       52.202     7509.046     8070.717     2725.044        3.670        0.915      234.747       47.612        0.041      344.455       21.282      858.592
05/30/2014  11:42:00     -182.453     -131.963        1.068       82.214       72.468       46.874     6759.205     5251.591     2197.137        3.245        0.710      225.174       47.929        0.045      344.318       21.049      858.582
05/30/2014  11:43:00     -192.841     -139.162       -3.419       69.907       58.971       34.878     4886.993     3477.615     1216.451        3.307        0.479      237.810       24.998        0.011      344.264       20.957      858.577
05/30/2014  11:44:00     -148.708      -29.135       -2.834       63.457       51.617       28.964     4026.796     2664.289      838.932        1.525        0.377      151.535       28.074        0.034      344.433       21.248      858.566
05/30/2014  11:45:00     -169.266      -45.080        4.651       81.888       60.459       34.205     6705.614     3655.293     1170.006        2.112        0.577      175.166       41.773        0.057      344.521       21.396      858.554
05/30/2014  11:46:00     -160.332      -47.542       -4.361       42.770       51.720       25.276     1829.268     2674.977      638.859        1.656        0.257      167.232       10.190        0.004      344.307       21.033      858.552
05/30/2014  11:47:00        1.063       46.763        3.742       40.215       29.905       28.833     1617.230      894.293      831.325        0.277        0.167       46.775       14.088        0.091      344.622       21.571      858.544
05/30/2014  11:48:00      -20.534        6.406       -0.879       26.638       18.476       19.843      709.571      341.351      393.763        0.095        0.072       21.510        8.901        0.171      344.920       22.081      858.542
05/30/2014  11:49:00       -1.170        2.046       14.749       25.628       20.070       27.420      656.774      402.814      751.873        0.102        0.091        2.356       13.826       34.425      345.220       22.597      858.533
05/30/2014  11:50:00      -53.956      -22.238       21.963       47.453       45.541       31.501     2251.830     2074.018      992.329        0.460        0.266       58.359       38.922        0.445      345.196       22.555      858.528
05/30/2014  11:51:00      -59.870      -43.229       18.529       79.170       57.382       41.490     6267.900     3292.675     1721.393        0.854        0.564       73.845       35.773        0.235      345.076       22.349      858.517
05/30/2014  11:52:00      -20.453     -106.503       16.996       76.898      105.266       42.933     5913.303    11080.911     1843.212        1.544        0.942      108.449       44.952        0.172      345.071       22.339      858.531
05/30/2014  11:53:00     -166.787     -162.358       -8.238       64.143       71.582       38.509     4114.310     5124.010     1482.975        3.248        0.536      232.762       28.887        0.015      344.413       21.209      858.558
05/30/2014  11:54:00     -149.611     -118.810        2.006       90.987       63.178       44.738     8278.587     3991.401     2001.475        2.538        0.714      191.048       44.459        0.054      344.548       21.442      858.572
05/30/2014  11:55:00      -56.992     -156.923       -4.569       47.473       64.223       29.486     2253.655     4124.560      869.444        1.757        0.362      166.952       10.082        0.004      344.266       20.963      858.583
05/30/2014  11:56:00      -31.888      -36.539      -15.021       27.259       51.832       28.542      743.049     2686.515      814.651        0.341        0.212       48.497       26.943        0.309      344.630       21.585      858.560
05/30/2014  11:57:00      -33.765       15.383       12.331       32.107       32.559       24.119     1030.837     1060.106      581.724        0.210        0.134       37.103       17.109        0.213      345.094       22.379      858.554
05/30/2014  11:58:00     -106.067      -28.014        3.189       58.012       39.001       23.844     3365.394     1521.091      568.528        0.875        0.273      109.704       27.361        0.062      344.711       21.725      858.548
05/30/2014  11:59:00     -121.380      -23.521      -10.166       62.622       67.666       30.732     3921.506     4578.733      944.476        1.242        0.472      123.638       28.222        0.052      344.579       21.497      858.546
05/30/2014  12:00:00      -38.863      -75.141        1.680       51.814       48.067       31.601     2684.688     2310.430      998.629        0.658        0.300       84.596       29.727        0.123      344.700       21.705      858.540
05/30/2014  12:01:00     -138.520      -53.081       -4.606       46.744       37.169       29.023     2184.964     1381.508      842.351        1.322        0.220      148.342       16.139        0.012      344.517       21.392      858.547
05/30/2014  12:02:00      -18.108      -28.004       14.590       42.068       42.634       30.950     1769.739     1817.632      957.923        0.293        0.227       33.348       23.843        0.511      344.886       22.023      858.516
05/30/2014  12:03:00       27.352       67.013        0.405       40.495       34.602       28.663     1639.878     1197.268      821.583        0.445        0.183       72.380       15.500        0.046      344.928       22.095      858.497
05/30/2014  12:04:00       60.793      -17.869       11.363       51.786       57.198       38.120     2681.748     3271.556     1453.100        0.577        0.370       63.364       38.672        0.372      345.105       22.399      858.475
05/30/2014  12:05:00       54.322      -74.141       16.848       47.812      117.562       42.177     2285.955    13820.877     1778.882        1.331        0.894       91.911       61.938        0.454      345.096       22.383      858.474
05/30/2014  12:06:00       38.251      -56.081       20.204       62.468      106.147       65.283     3902.276    11267.273     4261.934        1.222        0.972       67.884       74.762        1.213      345.092       22.376      858.445
05/30/2014  12:07:00       57.599      -68.531       26.073       86.307       92.213       62.825     7448.894     8503.250     3947.041        1.429        0.995       89.522       60.033        0.450      345.004       22.225      858.443
05/30/2014  12:08:00       51.976      -39.777       43.190       48.001       80.705       59.892     2304.061     6513.296     3587.004        0.927        0.620       65.450       50.723        0.601      345.118       22.421      858.423
05/30/2014  12:09:00      149.311      -96.239        9.360      108.845      133.843       94.456    11847.297    17913.852     8921.850        3.516        1.934      177.639       97.079        0.299      344.901       22.046      858.386
05/30/2014  12:10:00      120.628      -85.180       34.572       90.125      138.444       96.986     8122.518    19166.755     9406.235        2.984        1.835      147.672      108.096        0.536      344.944       22.121      858.368
05/30/2014  12:11:00       91.098      -86.599        2.332       76.939      105.903       60.660     5919.622    11215.499     3679.627        1.831        1.041      125.691       62.381        0.246      345.053       22.307      858.376
05/30/2014  12:12:00       52.034     -101.157       13.336       56.951      112.476       57.375     3243.404    12650.878     3291.855        1.615        0.959      113.755       63.709        0.314      345.026       22.263      858.357
05/30/2014  12:13:00       69.174     -120.344      -11.305       61.961       96.202       50.915     3839.142     9254.747     2592.322        1.754        0.784      138.808       53.407        0.148      344.996       22.209      858.346
05/30/2014  12:14:00       29.549      -44.072       28.455       60.025       81.117       43.777     3603.051     6579.997     1916.385        0.786        0.605       53.061       50.357        0.901      345.739       23.484      858.331
05/30/2014  12:15:00       66.294      -21.390       57.636       82.201       90.709       55.913     6756.966     8228.203     3126.273        1.314        0.906       69.659       61.465        0.779      345.138       22.454      858.313
05/30/2014  12:16:00       68.283       40.547       76.972       82.581       57.602       40.978     6819.700     3318.024     1679.212        1.202        0.591       79.414       34.433        0.188      345.029       22.267      858.269
05/30/2014  12:17:00       55.876      -42.285        1.540       53.572       59.618       46.359     2869.918     3554.316     2149.113        0.674        0.429       70.073       39.767        0.322      344.631       21.587      858.253
05/30/2014  12:18:00      105.225       38.454       39.146       86.511       72.981       59.519     7484.144     5326.252     3542.512        1.521        0.818      112.031       39.119        0.122      344.882       22.015      858.219
05/30/2014  12:19:00        5.418      -35.267       -1.733       37.418       37.984       29.376     1400.098     1442.775      862.932        0.249        0.185       35.681       13.956        0.153      344.969       22.165      858.187
05/30/2014  12:20:00      148.517     -184.524      -25.940      145.358      161.767       72.235    21128.893    26168.532     5217.896        5.464        2.626      236.868       92.079        0.151      344.834       21.932      858.175
05/30/2014  12:21:00       66.973     -149.657      -24.009      106.990      118.154       65.216    11446.917    13960.293     4253.115        2.855        1.483      163.959       71.460        0.190      345.117       22.416      858.164
05/30/2014  12:22:00       61.246       -1.215       62.292       85.436       93.610       50.144     7299.317     8762.878     2514.386        1.310        0.929       61.258       59.823        0.954      345.259       22.661      858.185
05/30/2014  12:23:00       97.553       17.131       30.666      124.078       92.106       66.993    15395.343     8483.470     4488.076        1.955        1.418       99.046       44.997        0.206      344.989       22.197      858.169
05/30/2014  12:24:00       48.527       -4.119       27.933      113.275       68.888       44.112    12831.218     4745.608     1945.841        1.133        0.976       48.702       35.695        0.537      345.296       22.724      858.178
05/30/2014  12:25:00       45.906     -134.345       -0.862       64.927       63.742       40.402     4215.464     4062.980     1632.336        1.503        0.496      141.971       22.077        0.024      345.112       22.409      858.201
05/30/2014  12:26:00      107.111       62.088       27.956       70.500       73.599       47.861     4970.234     5416.865     2290.707        1.439        0.634      123.805       39.733        0.103      345.171       22.510      858.194
05/30/2014  12:27:00       82.435     -207.746      -29.263       70.781       74.615       39.661     5009.885     5567.426     1573.017        3.148        0.608      223.503       34.169        0.023      345.287       22.708      858.185
05/30/2014  12:28:00       33.731     -112.847       -2.044       89.674       86.423       49.082     8041.358     7468.954     2409.089        1.589        0.896      117.780       50.381        0.183      345.597       23.240      858.204
05/30/2014  12:29:00      -25.351      -63.511       21.438       84.088       65.533       50.274     7070.868     4294.618     2527.501        0.951        0.695       68.384       29.925        0.191      345.675       23.375      858.219
05/30/2014  12:30:00       15.346     -123.941        3.252      120.423      137.426       82.997    14501.716    18885.872     6888.531        2.793        2.014      124.887       91.141        0.533      345.348       22.812      858.162
05/30/2014  12:31:00      -51.081     -112.639      -27.531       97.736       81.861       46.591     9552.399     6701.186     2170.720        1.724        0.921      123.681       39.773        0.103      345.347       22.812      858.166
05/30/2014  12:32:00     -273.007     -230.095       -7.438      194.022      161.960       65.776    37644.377    26230.971     4326.454        9.785        3.410      357.038       66.327        0.035      345.389       22.880      858.186
05/30/2014  12:33:00     -258.765      -63.586       -0.462      171.713      181.037       69.067    29485.399    32774.436     4770.210        6.900        3.352      266.463       88.263        0.110      345.487       23.050      858.201
05/30/2014  12:34:00     -185.301     -145.129        3.639      125.855      101.924       52.363    15839.603    10388.488     2741.935        4.219        1.449      235.370       49.435        0.044      345.368       22.846      858.214
05/30/2014  12:35:00     -289.982     -102.169       -8.894      127.514      146.260       60.540    16259.699    21391.848     3665.142        6.795        2.066      307.454       55.493        0.033      345.045       22.291      858.221
05/30/2014  12:36:00     -211.403      -79.432       -6.517      143.792       92.923       51.736    20676.210     8634.721     2676.595        4.151        1.599      225.833       61.953        0.075      345.090       22.369      858.209
05/30/2014  12:37:00     -176.337       -8.674       -9.075       70.772       69.866       42.744     5008.699     4881.318     1827.061        2.148        0.586      176.551       35.886        0.041      345.203       22.563      858.209
05/30/2014  12:38:00     -254.176      -48.781       -4.509      151.590      111.956       62.635    22979.678    12534.092     3923.165        5.321        1.972      258.814       74.101        0.082      345.149       22.469      858.222
05/30/2014  12:39:00     -122.030      -28.793        2.740       75.617       75.685       47.119     5717.996     5728.264     2220.202        1.469        0.683      125.381       43.271        0.119      345.264       22.670      858.209
05/30/2014  12:40:00     -152.778        5.282        7.992       64.925       71.770       43.019     4215.283     5150.949     1850.594        1.732        0.561      152.870       35.775        0.055      345.208       22.573      858.182
05/30/2014  12:41:00      -82.155       11.305       23.138       90.428       79.960       59.374     8177.277     6393.582     3525.286        1.275        0.905       82.929       45.640        0.303      345.446       22.980      858.174
05/30/2014  12:42:00      -46.073      -23.905       15.783       73.717       44.810       32.595     5434.218     2007.966     1062.411        0.572        0.425       51.906       35.032        0.456      345.714       23.442      858.172
05/30/2014  12:43:00     -167.582      -67.274        7.750      126.554      103.142       62.601    16015.948    10638.322     3918.861        3.162        1.529      180.581       64.717        0.128      345.337       22.793      858.186
05/30/2014  12:44:00     -196.161     -184.707       -7.649      105.486       78.518       43.073    11127.276     6165.093     1855.263        4.590        0.957      269.436       47.393        0.031      344.885       22.019      858.185
05/30/2014  12:45:00     -201.531     -238.995        1.548      149.948      102.496       62.233    22484.309    10505.408     3872.885        6.729        1.843      312.623       71.397        0.052      345.011       22.235      858.159
05/30/2014  12:46:00     -230.000     -121.855        8.520      101.342      107.396       57.070    10270.214    11533.996     3257.012        4.644        1.253      260.286       49.465        0.036      344.984       22.187      858.175
05/30/2014  12:47:00     -173.008     -124.331       -1.453       81.796       74.498       42.262     6690.534     5549.989     1786.066        2.971        0.701      213.049       40.834        0.037      345.042       22.288      858.176
05/30/2014  12:48:00      -97.097      -15.539       14.181      110.394       66.826       41.449    12186.812     4465.652     1718.058        1.412        0.919       98.333       45.809        0.217      345.380       22.867      858.174
05/30/2014  12:49:00     -305.384      -37.470      -19.261      107.269      102.000       56.212    11506.688    10404.092     3159.835        6.005        1.254      307.674       50.612        0.027      345.223       22.597      858.177
05/30/2014  12:50:00     -245.218      -21.799      -22.442      109.662       89.311       64.835    12025.719     7976.536     4203.625        4.265        1.210      246.185       52.459        0.045      345.140       22.453      858.164
05/30/2014  12:51:00     -103.003       63.412        9.504       65.113       56.740       44.063     4239.658     3219.461     1941.581        1.206        0.470      120.958       28.075        0.054      345.240       22.629      858.168
05/30/2014  12:52:00     -123.374       60.276        3.970       78.709       48.119       34.873     6195.152     2315.432     1216.104        1.430        0.486      137.311       37.409        0.074      345.146       22.468      858.180
05/30/2014  12:53:00      -60.438       -4.927       14.337       49.720       39.108       35.308     2472.103     1529.432     1246.679        0.456        0.262       60.638       36.882        0.370      345.263       22.668      858.166
05/30/2014  12:54:00     -132.631       58.672       -9.956       54.468       46.331       35.165     2966.720     2146.557     1236.607        1.374        0.317      145.029       29.515        0.041      344.987       22.196      858.164
05/30/2014  12:55:00     -257.548      -45.548      -17.598       80.360       66.955       41.388     6457.800     4482.942     1712.963        4.068        0.633      261.545       31.017        0.014      344.987       22.191      858.169
05/30/2014  12:56:00     -411.329       33.651      -52.738       68.776       56.192       32.372     4730.087     3157.579     1047.930        9.102        0.447      412.703       20.582        0.002      345.034       22.273      858.144
05/30/2014  12:57:00     -230.602       -5.233      -18.720      149.090       55.423       45.503    22227.716     3071.697     2070.486        4.046        1.368      230.661       65.270        0.080      345.298       22.726      858.158
05/30/2014  12:58:00      -89.949      -45.609       36.145      147.663       89.154       50.940    21804.408     7948.382     2594.850        2.191        1.617      100.851       66.389        0.433      345.438       22.967      858.175
05/30/2014  12:59:00     -298.061     -118.881        0.102      117.735       96.454       53.638    13861.570     9303.427     2877.012        6.450        1.302      320.894       57.362        0.032      344.979       22.179      858.184
05/30/2014  13:00:00     -201.010      -93.699       -9.246       71.094       64.318       42.779     5054.324     4136.810     1830.073        3.014        0.551      221.776       26.081        0.014      344.939       22.112      858.185
05/30/2014  13:01:00     -135.595     -188.120       -7.895       89.693      104.146       41.818     8044.862    10846.445     1748.719        3.723        1.032      231.895       41.283        0.032      344.990       22.198      858.196
05/30/2014  13:02:00      -67.534      -69.105        8.381       82.182       73.369       45.952     6753.829     5382.951     2111.566        1.182        0.712       96.624       47.144        0.238      345.091       22.373      858.170
05/30/2014  13:03:00      -85.894      -58.792        3.327      103.793      105.570       48.633    10773.069    11144.955     2365.189        1.756        1.214      104.088       46.309        0.198      345.173       22.513      858.166
05/30/2014  13:04:00      -67.258      -10.257       14.125       62.482       49.245       35.668     3903.988     2425.070     1272.191        0.621        0.380       68.035       32.114        0.223      345.350       22.817      858.154
05/30/2014  13:05:00     -226.524        4.818       -6.857      109.041       90.210       47.344    11889.838     8137.922     2241.466        3.682        1.113      226.575       42.046        0.034      345.253       22.648      858.163
05/30/2014  13:06:00     -203.795       63.996        2.035      170.496       75.973       66.812    29068.911     5771.907     4463.899        4.246        1.965      213.607       86.789        0.165      345.174       22.515      858.162
05/30/2014  13:07:00     -272.513      -81.214       -7.674      126.604       90.876       44.946    16028.664     8258.367     2020.130        5.361        1.315      284.357       43.759        0.024      345.084       22.359      858.165
05/30/2014  13:08:00     -209.420       19.849      -12.568      112.003       62.905       45.125    12544.737     3957.061     2036.303        3.147        0.927      210.359       54.915        0.068      345.200       22.558      858.161
05/30/2014  13:09:00     -241.999       55.647      -27.196       75.513       82.467       53.123     5702.189     6800.831     2822.051        3.886        0.766      248.315       39.319        0.025      345.240       22.625      858.146
05/30/2014  13:10:00     -154.062      -63.071        8.449      115.373      103.024       59.374    13310.968    10613.939     3525.246        2.761        1.373      166.472       61.713        0.137      345.370       22.850      858.121
05/30/2014  13:11:00     -218.022      -45.978       -2.814      129.478       89.307       51.770    16764.548     7975.753     2680.131        3.853        1.371      222.818       52.960        0.056      345.346       22.807      858.140
05/30/2014  13:12:00     -373.518      -72.242        1.978      143.951      122.749       73.355    20721.921    15067.413     5380.996        9.295        2.059      380.440       74.266        0.038      345.095       22.377      858.137
05/30/2014  13:13:00     -289.349      -90.444       -1.030      143.711      105.746       59.658    20652.893    11182.272     3559.123        6.364        1.770      303.155       73.804        0.059      345.218       22.589      858.113
05/30/2014  13:14:00     -182.831      -12.060        5.822      131.986       96.716       55.656    17420.212     9354.042     3097.625        3.173        1.494      183.228       62.637        0.117      345.351       22.817      858.124
05/30/2014  13:15:00     -205.595      -46.524       10.581      108.586       93.819       58.469    11790.816     8802.033     3418.566        3.427        1.201      210.794       57.154        0.074      345.434       22.956      858.140
05/30/2014  13:16:00     -202.256     -100.031        0.590      146.304      132.550       73.512    21404.827    17569.577     5404.066        4.764        2.219      225.641       85.635        0.144      345.225       22.601      858.137
05/30/2014  13:17:00     -157.737     -183.179        1.983      118.814       94.507       53.673    14116.794     8931.608     2880.768        4.218        1.296      241.735       61.207        0.064      345.070       22.335      858.136
05/30/2014  13:18:00      -61.415      -97.861        1.737       76.137      105.052       40.623     5796.806    11035.872     1650.265        1.591        0.924      115.536       42.227        0.134      345.304       22.738      858.148
05/30/2014  13:19:00       -8.414      -61.444        5.783       29.116       35.134       16.828      847.716     1234.407      283.190        0.312        0.118       62.017       13.778        0.049      345.257       22.658      858.134
05/30/2014  13:20:00     -111.351      -10.059        2.471       51.659       51.672       26.204     2668.617     2669.953      686.675        0.926        0.301      111.804       26.576        0.057      345.369       22.848      858.120
05/30/2014  13:21:00     -250.104      -12.381      -19.535       93.392       70.554       45.652     8722.085     4977.863     2084.103        3.943        0.789      250.410       49.990        0.040      345.155       22.480      858.121
05/30/2014  13:22:00      -74.766       22.049        9.487       80.700       48.157       37.068     6512.513     2319.088     1374.017        0.818        0.510       77.949       42.289        0.294      345.405       22.913      858.113
05/30/2014  13:23:00     -179.199       46.431        0.806       91.912       66.175       43.837     8447.725     4379.073     1921.669        2.451        0.737      185.116       37.244        0.040      345.370       22.849      858.096
05/30/2014  13:24:00     -263.498     -146.821       21.114      237.292      109.455       81.288    56307.682    11980.340     6607.699        8.315        3.745      301.641      106.833        0.125      345.240       22.627      858.080
05/30/2014  13:25:00     -203.045     -132.568        5.896      133.822      112.278       67.234    17908.394    12606.460     4520.403        4.693        1.752      242.491       73.679        0.092      345.444       22.976      858.091
05/30/2014  13:26:00     -287.946     -173.009        6.671      148.944      149.183       76.284    22184.280    22255.484     5819.244        8.156        2.513      335.924       77.578        0.053      345.319       22.762      858.086
05/30/2014  13:27:00     -269.701     -133.712      -18.883      122.787      147.179       54.915    15076.656    21661.643     3015.624        6.536        1.988      301.028       54.710        0.033      345.152       22.475      858.094
05/30/2014  13:28:00     -205.528     -122.001        0.297      130.535      106.420       51.938    17039.507    11325.309     2697.523        4.409        1.553      239.011       57.637        0.058      345.369       22.848      858.111
05/30/2014  13:29:00     -106.357     -258.080      -20.853      112.733      131.481       81.619    12708.806    17287.159     6661.620        5.750        1.833      279.137       38.994        0.020      345.231       22.611      858.121
05/30/2014  13:30:00      -78.335      -44.756       -3.945       63.174       62.949       38.457     3990.915     3962.544     1478.952        0.879        0.472       90.219       24.746        0.075      345.418       22.933      858.113
05/30/2014  13:31:00      -63.750      -12.168       10.591       86.888       74.332       35.590     7549.453     5525.213     1266.634        0.933        0.717       64.901       14.181        0.048      345.526       23.117      858.104
05/30/2014  13:32:00     -143.765      -58.718        0.341       79.659       67.534       41.538     6345.620     4560.890     1725.400        1.837        0.632      155.294       34.899        0.051      345.480       23.039      858.097
05/30/2014  13:33:00     -140.339      -96.124       -6.158      128.182       71.468       54.509    16430.694     5107.677     2971.237        2.674        1.225      170.102       49.159        0.084      345.517       23.100      858.077
05/30/2014  13:34:00       33.102     -119.755        6.517       97.824       88.683       44.623     9569.616     7864.701     1991.236        1.745        0.971      124.246       44.062        0.126      345.555       23.168      858.061
05/30/2014  13:35:00       42.266      -70.161        9.170       89.045      101.816       82.599     7929.065    10366.432     6822.596        1.595        1.256       81.908       72.925        0.793      345.506       23.085      858.029
05/30/2014  13:36:00      -15.222      -24.957       61.171       37.603       71.615       71.658     1413.956     5128.655     5134.821        0.813        0.584       29.233       61.651        4.448      345.431       22.957      858.022
05/30/2014  13:37:00      -60.044      -53.276        8.159       65.002       47.043       45.632     4225.288     2213.050     2082.255        0.751        0.426       80.272       29.774        0.138      345.861       23.695      858.013
05/30/2014  13:38:00       31.697      -99.793        4.557       89.269      106.929       57.156     7968.935    11433.754     3266.805        1.682        1.133      104.706       51.461        0.242      345.642       23.317      857.999
05/30/2014  13:39:00      104.274     -127.003        0.980       81.562       84.173       44.650     6652.285     7085.016     1993.644        2.136        0.787      164.325       55.785        0.115      345.454       22.993      857.983
05/30/2014  13:40:00      130.669     -160.452      -39.041       84.881      114.880       60.683     7204.722    13197.388     3682.426        3.421        1.204      206.928       48.552        0.055      345.601       23.243      857.971
05/30/2014  13:41:00       20.251      -91.295       35.061       76.781      133.983       70.486     5895.280    17951.427     4968.216        1.939        1.441       93.514       87.254        0.871      345.619       23.277      857.971
05/30/2014  13:42:00        3.276      -89.115       16.616       45.138      127.154       57.538     2037.475    16168.154     3310.617        1.487        1.076       89.176       62.381        0.489      345.818       23.620      858.000
05/30/2014  13:43:00       78.452     -182.503      -32.359      124.883      137.771       76.026    15595.689    18980.795     5779.902        4.042        2.018      198.651       65.183        0.108      345.329       22.780      857.986
05/30/2014  13:44:00      130.860     -136.301       -3.790      130.365      145.994       70.727    16995.016    21314.126     5002.308        3.951        2.166      188.950       83.948        0.197      345.423       22.941      857.972
05/30/2014  13:45:00      116.110      -93.963       17.170       86.541      111.361       84.344     7489.346    12401.243     7113.988        2.480        1.350      149.367       84.816        0.322      345.465       23.013      857.967
05/30/2014  13:46:00       16.101      -62.231       17.416       82.536       92.394       48.549     6812.272     8536.625     2356.962        1.107        0.885       64.280       55.823        0.754      345.643       23.320      857.969
05/30/2014  13:47:00      -55.740      -23.651       -9.145       43.920       41.712       23.128     1928.973     1739.919      534.925        0.398        0.210       60.550       15.398        0.065      345.790       23.572      857.976
05/30/2014  13:48:00        7.346      -20.554        9.206       46.206       32.192       25.744     2134.958     1036.336      662.779        0.220        0.192       21.828       15.844        0.527      345.829       23.640      857.977
05/30/2014  13:49:00       63.252       21.264       25.882       55.174       58.833       30.763     3044.163     3461.329      946.357        0.629        0.373       66.731       29.238        0.192      345.176       22.519      857.943
05/30/2014  13:50:00     -195.252     -113.106        3.641      165.977       98.254       64.444    27548.402     9653.848     4152.989        4.613        2.068      225.646       59.056        0.068      345.705       23.425      857.939
05/30/2014  13:51:00     -219.982     -134.528        9.642      143.341      104.704       63.406    20546.541    10962.926     4020.272        5.105        1.776      257.856       76.729        0.089      345.626       23.288      857.929
05/30/2014  13:52:00     -217.447     -136.417        6.029      145.450      103.737       62.960    21155.749    10761.435     3963.960        5.090        1.794      256.695       72.932        0.081      345.581       23.211      857.945
05/30/2014  13:53:00     -364.061     -126.590      -19.182      143.344      105.416       64.052    20547.428    11112.485     4102.664        9.234        1.788      385.442       65.112        0.029      345.580       23.207      857.915
05/30/2014  13:54:00     -371.146     -168.244      -18.153      129.879      113.634       67.107    16868.571    12912.660     4503.343       10.033        1.714      407.499       68.819        0.029      345.721       23.451      857.906
05/30/2014  13:55:00     -254.044      -58.898      -16.243      142.957       92.667       53.557    20436.568     8587.097     2868.400        5.008        1.595      260.783       58.253        0.050      345.784       23.559      857.935
05/30/2014  13:56:00     -278.499     -197.643        4.718      175.643      136.763       69.604    30850.368    18704.020     4844.717        8.551        2.720      341.503       78.322        0.053      345.681       23.382      857.925
05/30/2014  13:57:00     -265.306     -154.064       -5.446      179.164      138.593       79.461    32099.779    19208.017     6313.995        7.588        2.881      306.795       90.752        0.088      345.525       23.114      857.903
05/30/2014  13:58:00     -248.059      -97.544       -0.627      167.152      156.888       68.429    27939.777    24613.889     4682.564        6.413        2.862      266.549       70.148        0.069      345.607       23.256      857.912
05/30/2014  13:59:00     -319.950     -151.640      -21.088      114.163      114.582       59.955    13033.184    13129.028     3594.562        7.778        1.488      354.066       58.324        0.027      345.465       23.013      857.891
05/30/2014  14:00:00     -234.351     -219.543       12.349      138.272      131.683       80.943    19119.093    17340.417     6551.695        7.313        2.151      321.123       63.843        0.040      345.633       23.301      857.880
05/30/2014  14:01:00     -147.850     -112.576        1.705      155.865      103.386       58.486    24293.988    10688.575     3420.624        3.646        1.920      185.831       58.716        0.100      345.788       23.566      857.926
05/30/2014  14:02:00     -357.638      -64.098       -9.419      137.858      139.081       67.122    19004.930    19343.401     4505.372        8.747        2.143      363.337       73.558        0.041      345.695       23.406      857.925
05/30/2014  14:03:00     -298.399       -8.423       -4.325      161.302      134.317       66.274    26018.447    18041.051     4392.283        6.878        2.423      298.518       75.510        0.064      345.685       23.389      857.891
05/30/2014  14:04:00     -252.230      -62.137      -19.926       99.454       93.885       51.100     9891.136     8814.419     2611.199        4.459        1.066      259.771       52.812        0.041      345.562       23.178      857.880
05/30/2014  14:05:00     -314.474      -77.745      -21.820      123.444      111.585       43.674    15238.409    12451.257     1907.414        6.750        1.480      323.942       36.014        0.012      345.554       23.163      857.813
05/30/2014  14:06:00     -303.832     -127.080       -4.240      193.515      152.472       76.405    37448.088    23247.580     5837.731        8.749        3.327      329.338       80.827        0.060      345.856       23.682      857.801
05/30/2014  14:07:00     -183.827     -126.668        2.619      146.846      116.518       58.028    21563.875    13576.369     3367.306        4.417        1.925      223.243       70.366        0.099      346.017       23.961      857.866
05/30/2014  14:08:00     -217.220     -228.720        4.473      158.132      178.526       71.767    25005.686    31871.684     5150.527        8.076        3.101      315.432       60.017        0.036      345.743       23.488      857.903
05/30/2014  14:09:00      -99.533     -174.226       -1.239      149.522      100.398       75.798    22356.903    10079.705     5745.365        3.921        1.909      200.652       65.423        0.106      345.579       23.209      857.895
05/30/2014  14:10:00      -63.602     -220.919      -16.524       85.596      127.873       49.745     7326.676    16351.422     2474.580        3.963        1.308      229.892       35.225        0.023      345.736       23.478      857.860
05/30/2014  14:11:00     -155.811     -106.335        2.325      130.098      106.092       48.029    16925.542    11255.558     2306.832        3.303        1.524      188.638       32.153        0.029      345.954       23.850      857.848
05/30/2014  14:12:00     -300.361      -73.763        6.322      187.984      120.823       75.960    35337.931    14598.135     5769.887        7.569        2.785      309.285       83.494        0.073      345.981       23.897      857.873
05/30/2014  14:13:00     -101.542        1.603       38.856      147.187       99.572       71.032    21663.921     9914.571     5045.505        2.422        1.831      101.555       76.488        0.567      346.018       23.963      857.899
05/30/2014  14:14:00     -123.716      -73.641       -1.976      128.102       84.733       53.840    16410.229     7179.636     2898.773        2.361        1.324      143.974       63.237        0.193      346.078       24.065      857.904
05/30/2014  14:15:00     -184.503     -256.885      -11.194      130.606      190.433       62.550    17057.961    36264.797     3912.533        7.868        2.862      316.277       64.124        0.041      345.886       23.733      857.909
05/30/2014  14:16:00     -123.660     -196.652       23.506      136.566      179.263       72.534    18650.280    32135.163     5261.221        5.527        2.802      232.302       70.666        0.093      346.047       24.010      857.881
05/30/2014  14:17:00     -258.100      -87.473        2.512      154.835      145.855       83.051    23973.804    21273.806     6897.437        6.320        2.607      272.520       92.309        0.115      345.988       23.910      857.906
05/30/2014  14:18:00     -292.115      -12.345       -8.627      116.450       97.806       60.257    13560.556     9565.925     3630.941        5.615        1.338      292.376       60.213        0.042      345.965       23.870      857.918
05/30/2014  14:19:00      -88.993      -38.689        3.655       88.273       87.164       45.058     7792.078     7597.616     2030.266        1.342        0.871       97.039       35.961        0.137      346.243       24.349      857.907
05/30/2014  14:20:00      -52.159      -37.870        7.674       77.844       62.142       46.053     6059.713     3861.651     2120.855        0.813        0.602       64.457       44.772        0.482      346.257       24.374      857.881
05/30/2014  14:21:00     -197.576      -28.654       -0.289       80.712       74.170       35.532     6514.385     5501.229     1262.520        2.657        0.664      199.643       39.051        0.038      345.851       23.675      857.870
05/30/2014  14:22:00      -65.780      -37.848      -10.097       54.826       44.062       36.735     3005.885     1941.468     1349.461        0.608        0.315       75.892       28.812        0.144      345.963       23.869      857.841
05/30/2014  14:23:00     -215.412     -203.591        2.865      207.872      173.530       72.165    43210.965    30112.808     5207.848        8.318        3.927      296.398       82.214        0.077      346.058       24.030      857.819
05/30/2014  14:24:00     -354.472     -195.769        9.197      157.801      139.015       81.933    24901.198    19325.125     6712.949       10.749        2.547      404.940       89.157        0.048      345.855       23.680      857.845
05/30/2014  14:25:00     -296.419     -155.522       -4.893      159.981      120.351       65.263    25593.999    14484.441     4259.202        7.820        2.217      334.740       82.149        0.060      345.697       23.407      857.860
05/30/2014  14:26:00     -400.394      -93.878        0.309      179.773      149.013       77.401    32318.453    22204.928     5990.983       11.481        3.026      411.252       82.971        0.041      345.856       23.682      857.863
05/30/2014  14:27:00     -510.487      -65.863      -30.693      165.186      128.012       84.472    27286.512    16387.135     7135.558       15.833        2.540      514.718       72.396        0.020      345.683       23.385      857.832
05/30/2014  14:28:00     -385.435     -112.874      -14.744      118.764       89.799       50.110    14104.776     8063.908     2510.966        9.309        1.234      401.622       46.788        0.014      345.637       23.305      857.820
05/30/2014  14:29:00     -232.481     -125.233       -0.064      118.982       97.277       49.630    14156.750     9462.754     2463.170        4.790        1.304      264.066       55.658        0.044      345.769       23.533      857.806
05/30/2014  14:30:00     -283.471       -0.004      -21.155      114.227      115.384       58.250    13047.723    13313.554     3393.072        5.527        1.488      283.471       60.660        0.046      346.018       23.960      857.800
05/30/2014  14:31:00     -296.686     -101.930       -8.169      199.938      149.845       62.076    39975.076    22453.588     3853.475        8.237        3.314      313.707       76.509        0.059      346.087       24.080      857.808
05/30/2014  14:32:00     -314.958     -219.338        2.079      228.848      167.695       80.039    52371.553    28121.557     6406.251       11.709        4.345      383.807       89.650        0.055      345.916       23.784      857.797
05/30/2014  14:33:00     -155.890     -191.745       20.580      220.845      157.892       92.866    48772.325    24929.967     8624.133        7.189        4.116      247.119       94.845        0.147      346.016       23.958      857.788
05/30/2014  14:34:00     -467.859      -52.592      -25.004      214.724      148.080       75.847    46106.284    21927.827     5752.837       14.802        3.689      470.806       77.147        0.027      345.867       23.701      857.800
05/30/2014  14:35:00     -529.214      -41.923      -43.356      173.711      191.440       76.174    30175.394    36649.133     5802.422       17.815        3.631      530.872       81.137        0.023      345.817       23.614      857.785
05/30/2014  14:36:00     -352.192      -71.047      -10.390      179.909      149.613       89.633    32367.405    22384.017     8033.998        9.598        3.139      359.287       89.651        0.062      345.995       23.920      857.788
05/30/2014  14:37:00     -288.017      -96.748        4.712      196.175      155.234       88.641    38484.735    24097.526     7857.241        8.137        3.522      303.832       99.507        0.107      345.991       23.915      857.776
05/30/2014  14:38:00     -515.955     -139.179      -29.277      286.618      165.659       97.033    82149.868    27442.968     9415.360       20.270        5.950      534.397      120.214        0.051      345.810       23.604      857.784
05/30/2014  14:39:00     -574.568     -170.464      -23.510      221.738      198.245      104.876    49167.826    39301.183    10998.905       22.958        4.973      599.321      107.909        0.032      345.591       23.227      857.773
05/30/2014  14:40:00     -578.465     -121.048      -34.093      177.737      161.323       80.926    31590.355    26025.075     6549.035       20.729        3.208      590.994       86.908        0.022      345.583       23.214      857.775
05/30/2014  14:41:00     -534.747      -67.439      -34.924      178.709      176.494       73.989    31937.072    31150.302     5474.304       18.013        3.428      538.983       76.796        0.020      345.564       23.181      857.754
05/30/2014  14:42:00     -291.975     -190.321        9.747      193.099      128.896       79.268    37287.400    16614.170     6283.407        9.086        3.009      348.527       91.441        0.069      345.702       23.419      857.738
05/30/2014  14:43:00     -213.692      -70.856       -1.511      124.436      116.342       61.160    15484.356    13535.518     3740.494        4.172        1.638      225.133       65.679        0.085      345.933       23.814      857.708
05/30/2014  14:44:00     -207.706        4.470       -6.690      182.411      101.986       65.484    33273.854    10401.093     4288.122        4.558        2.398      207.754       79.091        0.145      346.035       23.992      857.711
05/30/2014  14:45:00     -331.056     -127.916      -13.831      158.667      121.903       65.921    25175.336    14860.251     4345.562        8.526        2.219      354.909       63.531        0.032      345.971       23.881      857.697
05/30/2014  14:46:00     -389.908      -85.436      -23.671      198.984      183.436       87.912    39594.525    33648.793     7728.590       12.041        4.049      399.158       96.046        0.058      345.876       23.717      857.700
05/30/2014  14:47:00     -275.750       22.585      -16.109      103.833       89.801       58.010    10781.237     8064.294     3365.145        4.950        1.111      276.673       44.490        0.026      345.894       23.747      857.695
05/30/2014  14:48:00     -392.135       25.812       -8.653      185.608      124.721       68.399    34450.388    15555.257     4678.410       10.459        2.734      392.984       80.880        0.042      345.902       23.762      857.663
05/30/2014  14:49:00     -386.485      -18.012       10.242      232.388      162.652       85.252    54004.318    26455.594     7267.971       11.875        4.386      386.905       99.211        0.066      345.816       23.614      857.629
05/30/2014  14:50:00     -408.425     -202.313      -23.638      210.002      121.677       76.614    44100.797    14805.374     5869.670       13.653        3.239      455.787      102.172        0.050      345.773       23.541      857.661
05/30/2014  14:51:00     -395.232     -159.458      -27.656      135.569      141.357       82.583    18378.879    19981.843     6819.885       11.378        2.259      426.187       68.233        0.026      345.834       23.645      857.684
05/30/2014  14:52:00     -335.647     -219.166       -5.283      161.089      123.237       74.637    25949.575    15187.361     5570.638       10.370        2.335      400.865       81.560        0.041      345.661       23.349      857.677
05/30/2014  14:53:00     -215.891      -91.329       -9.040      135.794       86.791       64.718    18440.041     7532.671     4188.473        4.259        1.508      234.414       73.192        0.097      345.813       23.608      857.648
05/30/2014  14:54:00     -162.659       -5.940       10.731      105.861       75.721       43.975    11206.604     5733.739     1933.834        2.274        0.944      162.768       45.699        0.079      345.987       23.909      857.624
05/30/2014  14:55:00     -238.411      -83.150      -14.082      158.204      104.694       54.772    25028.561    10960.871     2999.971        5.146        1.949      252.495       52.299        0.043      346.027       23.977      857.635
05/30/2014  14:56:00     -376.126     -144.156        9.602      218.804      181.135      101.465    47875.207    32810.054    10295.212       12.664        4.549      402.805      105.004        0.068      345.937       23.822      857.602
05/30/2014  14:57:00     -208.862     -102.939        2.666      158.773      102.634       75.345    25208.871    10533.748     5676.937        4.781        2.071      232.852       72.459        0.097      346.110       24.120      857.630
05/30/2014  14:58:00      -69.503      -54.526       29.790      157.879      103.818       76.022    24925.917    10778.245     5779.320        2.508        2.074       88.339       85.236        0.931      346.317       24.476      857.612
05/30/2014  14:59:00     -153.142     -122.722       -4.262      136.227       97.878       64.668    18557.851     9580.098     4181.943        3.542        1.616      196.247       72.203        0.135      346.106       24.114      857.605
05/30/2014  15:00:00     -201.387     -130.490       -0.135      203.321      177.445       94.134    41339.372    31486.627     8861.278        6.962        4.084      239.967       94.081        0.154      346.000       23.931      857.588
05/30/2014  15:01:00     -344.807     -169.853       -7.931      233.084      165.062       94.402    54328.244    27245.514     8911.674       11.913        4.524      384.372      102.411        0.071      345.850       23.672      857.577
05/30/2014  15:02:00     -327.836      -73.384       -5.623      204.624      128.696       73.077    41871.030    16562.617     5340.236        8.832        3.189      335.949       88.751        0.070      345.948       23.841      857.604
05/30/2014  15:03:00     -296.295      -73.586       -8.272      152.278      124.157       60.753    23188.673    15414.873     3690.934        6.778        2.115      305.296       67.038        0.048      346.039       23.999      857.594
05/30/2014  15:04:00     -417.777     -106.366      -32.393      232.070      124.432       86.949    53856.716    15483.326     7560.187       13.189        3.845      431.105       98.463        0.052      345.810       23.603      857.573
05/30/2014  15:05:00     -445.887        4.064      -40.333      152.370      130.665       83.090    23216.722    17073.288     6903.985       12.382        2.360      445.905       81.865        0.034      345.848       23.668      857.585
05/30/2014  15:06:00     -197.127      -32.098        6.865      137.267       94.566       55.537    18842.319     8942.748     3084.359        3.540        1.543      199.723       61.321        0.094      345.841       23.659      857.567
05/30/2014  15:07:00     -369.029       13.503      -28.955      133.139      127.282       63.040    17726.098    16200.657     3974.094        8.754        1.895      369.276       59.575        0.026      345.663       23.351      857.577
05/30/2014  15:08:00     -201.769       89.405       -7.500      171.578      119.431       73.169    29439.054    14263.864     5353.730        4.890        2.453      220.690       84.695        0.147      345.732       23.471      857.593
05/30/2014  15:09:00     -163.821      148.755      -24.554       96.644      133.768       61.744     9340.068    17893.988     3812.347        4.030        1.552      221.281       51.075        0.053      345.676       23.373      857.598
05/30/2014  15:10:00     -338.159      -11.183      -27.490      146.341       85.545       63.514    21415.547     7317.939     4034.003        7.399        1.638      338.344       78.760        0.054      345.661       23.348      857.607
05/30/2014  15:11:00     -175.071      -64.938       -9.114      117.797       62.504       48.484    13876.039     3906.756     2350.687        2.754        1.007      186.726       49.131        0.069      345.827       23.632      857.619
05/30/2014  15:12:00     -241.513      -64.839       -4.447      130.508      108.252       55.393    17032.280    11718.552     3068.431        4.718        1.591      250.066       49.091        0.039      345.882       23.729      857.638
05/30/2014  15:13:00     -343.078        2.672       -0.488      170.063      134.851       74.436    28921.294    18184.898     5540.711        8.517        2.632      343.088       72.004        0.044      345.820       23.621      857.660
05/30/2014  15:14:00     -298.210     -116.649        3.076      168.220      172.769       75.041    28297.862    29849.191     5631.142        8.315        3.189      320.213       81.446        0.065      345.625       23.286      857.621
05/30/2014  15:15:00     -276.853     -136.767      -11.242      130.795       96.267       66.867    17107.276     9267.416     4471.235        6.316        1.542      308.793       64.139        0.043      345.720       23.450      857.612
05/30/2014  15:16:00     -236.505     -197.654       -1.938      141.948      142.312       74.000    20149.111    20252.649     5476.046        7.043        2.294      308.224       75.734        0.060      345.791       23.570      857.611
05/30/2014  15:17:00     -229.430      -76.728        0.656      167.794      137.663       57.876    28154.957    18951.129     3349.625        5.448        2.523      241.920       71.881        0.088      345.867       23.702      857.606
05/30/2014  15:18:00     -246.582     -139.229        8.704      167.172      101.731       68.950    27946.360    10349.178     4754.145        6.165        2.152      283.174       83.392        0.087      345.740       23.484      857.575
05/30/2014  15:19:00     -231.732     -115.412       -0.739      147.445      132.067       61.070    21739.930    17441.710     3729.531        5.496        2.146      258.881       73.715        0.081      345.909       23.774      857.586
05/30/2014  15:20:00     -181.369     -111.642       -3.622      104.786      112.601       59.230    10980.071    12678.985     3508.149        3.626        1.358      212.976       65.144        0.094      345.900       23.760      857.595
05/30/2014  15:21:00     -162.634     -110.365        8.173      127.164       86.131       59.783    16170.600     7418.516     3573.947        3.292        1.358      196.546       61.696        0.099      345.942       23.830      857.601
05/30/2014  15:22:00     -212.308      -21.959       -4.828      182.599      110.578       57.215    33342.301    12227.529     3273.528        4.720        2.442      213.440       76.095        0.127      345.935       23.818      857.616
05/30/2014  15:23:00     -175.174      -40.159        6.839      104.015       81.436       58.541    10819.096     6631.825     3427.043        2.661        1.044      179.719       59.314        0.109      345.851       23.677      857.630
05/30/2014  15:24:00     -312.194     -199.157      -16.264      170.634      111.448       63.214    29115.961    12420.691     3995.964        9.145        2.277      370.309       75.683        0.042      345.739       23.481      857.653
05/30/2014  15:25:00     -304.008     -141.183       -9.522      129.415      133.276       59.532    16748.165    17762.459     3544.079        7.524        1.903      335.192       69.902        0.043      345.732       23.472      857.628
05/30/2014  15:26:00     -296.361     -121.238        8.808      143.777      135.830       69.127    20671.763    18449.911     4778.479        7.324        2.195      320.201       80.507        0.063      345.818       23.619      857.623
05/30/2014  15:27:00     -202.377     -222.460        2.949      150.523      148.262       78.524    22657.145    21981.561     6165.983        7.062        2.540      300.741       67.001        0.050      345.772       23.538      857.599
05/30/2014  15:28:00     -120.909     -339.651       -9.006       89.848       97.204       52.043     8072.628     9448.592     2708.431        7.514        1.011      360.529       46.021        0.016      345.713       23.436      857.595
05/30/2014  15:29:00      -59.671     -157.878        1.434      122.723      140.363       60.944    15060.899    19701.713     3714.215        3.347        1.924      168.778       65.895        0.152      345.794       23.577      857.554
05/30/2014  15:30:00     -209.008     -171.101        2.722      191.501      145.604       66.492    36672.714    21200.555     4421.217        6.762        3.115      270.111       71.399        0.070      345.802       23.590      857.532
05/30/2014  15:31:00     -221.120     -130.146       13.583      133.188      102.423       53.851    17738.914    10490.392     2899.896        4.857        1.556      256.577       57.038        0.049      345.807       23.597      857.531
05/30/2014  15:32:00     -263.665     -171.161        6.310      181.117      114.822       68.953    32803.406    13184.011     4754.570        7.479        2.537      314.349       70.067        0.050      345.745       23.492      857.528
05/30/2014  15:33:00     -334.524     -231.701        7.881      199.021      143.711       72.262    39609.324    20652.845     5221.867       11.556        3.274      406.930       87.006        0.046      345.710       23.432      857.567
05/30/2014  15:34:00     -311.233      -99.365        3.442      175.937      122.117       77.035    30953.993    14912.661     5934.395        7.927        2.590      326.710       75.982        0.054      345.611       23.262      857.556
05/30/2014  15:35:00     -261.062     -179.727        0.205      166.583      121.267       79.238    27749.860    14705.589     6278.733        7.458        2.437      316.946       75.903        0.057      345.509       23.085      857.527
05/30/2014  15:36:00     -342.160      -62.542      -25.689      121.464      148.507       61.097    14753.506    22054.386     3732.829        8.108        2.027      347.829       53.183        0.023      345.610       23.258      857.475
05/30/2014  15:37:00     -426.453      -93.546      -16.756      144.759      148.468       60.402    20955.050    22042.803     3648.351       11.876        2.332      436.593       51.038        0.014      345.596       23.235      857.426
05/30/2014  15:38:00     -249.803      -72.699        5.397      176.028      109.336       67.846    30986.027    11954.292     4603.085        5.762        2.377      260.167       68.134        0.069      345.773       23.540      857.428
05/30/2014  15:39:00     -262.281      -83.593       -2.650      199.526      116.451       75.054    39810.504    13560.723     5633.034        6.738        2.950      275.280       84.438        0.094      345.880       23.724      857.458
05/30/2014  15:40:00     -340.039      -26.281       -2.203      168.809      169.982       79.355    28496.587    28893.799     6297.284        8.999        3.184      341.053       62.084        0.033      345.866       23.700      857.479
05/30/2014  15:41:00     -149.627      -19.397        3.753      110.651       84.286       54.749    12243.621     7104.059     2997.424        2.256        1.117      150.879       57.925        0.147      346.021       23.966      857.480
05/30/2014  15:42:00      -50.796     -150.923       43.472      141.856      116.002       66.891    20123.017    13456.520     4474.348        3.264        1.903      159.242       79.547        0.250      346.024       23.974      857.469
05/30/2014  15:43:00     -199.669     -247.711        6.550      103.825      146.556       63.209    10779.664    21478.552     3995.414        6.876        1.813      318.165       52.508        0.027      345.893       23.746      857.453
05/30/2014  15:44:00     -141.908     -211.898       -3.262      115.656      164.099       53.546    13376.326    26928.323     2867.168        5.410        2.159      255.026       63.463        0.062      345.886       23.734      857.461
05/30/2014  15:45:00     -195.588     -231.797       12.661      135.893      162.518       81.359    18466.931    26411.966     6619.232        7.181        2.575      303.289       61.335        0.041      345.762       23.523      857.450
05/30/2014  15:46:00     -143.629     -235.821       -3.493      122.676      104.912       55.363    15049.523    11006.459     3065.062        5.268        1.456      276.117       48.800        0.031      345.749       23.500      857.390
05/30/2014  15:47:00     -186.730     -264.235      -10.215      125.055      126.970       69.303    15638.850    16121.392     4802.927        7.067        1.828      323.556       72.564        0.050      345.890       23.740      857.379
05/30/2014  15:48:00     -237.018     -227.930       -1.304      126.266      155.439       84.127    15943.084    24161.266     7077.274        7.765        2.359      328.831       69.024        0.044      345.849       23.670      857.350
05/30/2014  15:49:00     -381.381      -54.451       -4.453      217.015      147.382       79.887    47095.475    21721.347     6381.980       11.180        3.760      385.249       90.414        0.055      345.852       23.675      857.376
05/30/2014  15:50:00     -274.281     -108.596        3.811      204.724      125.067       80.974    41911.792    15641.631     6556.830        7.556        3.206      294.997       95.736        0.105      345.955       23.852      857.370
05/30/2014  15:51:00     -445.274     -242.582      -15.217      226.890      149.440       86.364    51479.195    22332.164     7458.761       16.929        4.064      507.065      103.847        0.042      345.910       23.776      857.389
05/30/2014  15:52:00     -154.054     -158.225       24.862      106.061      131.731       76.782    11249.028    17353.085     5895.403        4.193        1.725      220.834       52.448        0.056      345.980       23.896      857.391
05/30/2014  15:53:00     -362.170     -269.952       11.890      243.532      184.948       89.014    59307.889    34205.585     7923.441       15.279        5.072      451.709       89.056        0.039      345.692       23.401      857.345
05/30/2014  15:54:00     -276.289     -206.480        6.981      178.420      149.171       77.645    31833.600    22252.092     6028.722        8.955        3.006      344.920       79.153        0.053      345.665       23.354      857.336
05/30/2014  15:55:00     -264.659      -70.612        5.689      161.464      158.428       93.569    26070.527    25099.384     8755.189        6.748        2.996      273.917       94.798        0.120      345.765       23.526      857.399
05/30/2014  15:56:00     -230.936     -113.185       -0.013      106.501      129.960       64.375    11342.525    16889.676     4144.194        4.925        1.619      257.182       68.214        0.070      345.841       23.657      857.381
05/30/2014  15:57:00     -232.379     -236.884      -13.338      126.962      113.722       67.621    16119.273    12932.768     4572.603        7.195        1.681      331.834       64.587        0.038      345.670       23.363      857.374
05/30/2014  15:58:00     -235.559      -89.873       11.361      153.796      111.442       60.975    23653.310    12419.211     3717.962        5.173        1.990      252.122       62.816        0.062      345.751       23.502      857.326
05/30/2014  15:59:00     -374.977     -303.249       -6.945      163.700      156.207       82.857    26797.548    24400.486     6865.359       14.533        2.903      482.253       88.434        0.034      345.781       23.555      857.374
05/30/2014  16:00:00     -281.371     -177.752        3.710      224.100      132.416       82.236    50220.810    17534.059     6762.714        9.263        3.726      332.814      108.758        0.107      345.803       23.593      857.375
05/30/2014  16:01:00     -194.982     -156.700       21.345      157.102       91.258       71.494    24681.075     8328.044     5111.373        5.057        1.906      250.146       69.156        0.076      345.900       23.757      857.390
05/30/2014  16:02:00     -299.998     -171.539       -4.915      124.626      141.011       80.350    15531.715    19884.073     6456.141        8.065        2.094      345.578       64.102        0.034      345.832       23.641      857.380
05/30/2014  16:03:00     -197.705      -86.059       -1.667      125.921       93.504       54.499    15856.211     8742.918     2970.174        3.703        1.378      215.624       57.752        0.072      345.891       23.743      857.366
05/30/2014  16:04:00     -251.223     -190.744      -10.759      151.586      143.898       71.505    22978.441    20706.525     5113.011        7.420        2.440      315.430       71.776        0.052      345.767       23.529      857.365
05/30/2014  16:05:00     -263.833     -171.251      -10.372      158.041      154.584       63.526    24976.818    23896.179     4035.558        7.596        2.645      314.539       63.944        0.041      345.779       23.551      857.361
05/30/2014  16:06:00     -257.011     -192.942       11.426      155.375      146.618       72.247    24141.339    21496.909     5219.653        7.712        2.543      321.374       72.196        0.050      345.845       23.664      857.334
05/30/2014  16:07:00     -229.174     -373.513      -22.330      167.059      202.815       79.472    27908.766    41133.857     6315.821       13.393        3.768      438.215       97.281        0.049      345.731       23.467      857.339
05/30/2014  16:08:00     -112.174     -214.217      -17.895       91.457      109.092       45.323     8364.361    11901.077     2054.143        4.055        1.116      241.810       26.463        0.012      345.727       23.461      857.324
05/30/2014  16:09:00     -200.464     -187.880      -21.478      148.970      100.114       56.712    22191.953    10022.776     3216.219        5.568        1.772      274.745       55.792        0.041      345.869       23.705      857.324
05/30/2014  16:10:00     -221.678      -56.742       -9.219      201.230      107.395       78.027    40493.555    11533.752     6088.284        5.527        2.906      228.824       82.550        0.130      345.839       23.655      857.302
05/30/2014  16:11:00     -206.412      -76.097       11.939      131.866       94.862       54.740    17388.691     8998.710     2996.456        3.896        1.469      219.992       68.724        0.098      345.935       23.819      857.315
05/30/2014  16:12:00     -204.992     -251.527       18.947      178.057      119.803       88.577    31704.394    14352.732     7845.919        7.976        2.695      324.480       97.857        0.091      345.872       23.710      857.319
05/30/2014  16:13:00     -336.363     -198.087       -2.966      129.824      126.723       64.024    16854.195    16058.822     4099.100        9.469        1.851      390.357       69.685        0.032      345.802       23.590      857.296
05/30/2014  16:14:00     -242.087     -139.296        8.286      116.699      103.865       50.856    13618.644    10787.868     2586.380        5.253        1.350      279.302       35.890        0.017      345.751       23.503      857.290
05/30/2014  16:15:00     -238.646     -136.349       10.266      183.114      106.880       71.123    33530.831    11423.357     5058.412        6.282        2.501      274.851       80.253        0.085      345.948       23.840      857.308
05/30/2014  16:16:00     -239.917     -141.708       20.610      145.594      151.259       75.629    21197.563    22879.146     5719.718        6.392        2.490      278.642       74.980        0.072      345.935       23.818      857.318
05/30/2014  16:17:00     -449.072     -164.548      -30.147      187.974      119.881       75.517    35334.263    14371.484     5702.860       14.252        2.770      478.270       77.647        0.026      345.720       23.449      857.331
05/30/2014  16:18:00     -328.242     -155.657       -4.013      185.068      144.709       83.980    34249.988    20940.682     7052.664        9.710        3.112      363.279      101.119        0.077      345.681       23.382      857.297
05/30/2014  16:19:00     -307.077      -50.086       -9.411      195.843      152.343       90.892    38354.611    23208.449     8261.395        8.335        3.491      311.135      100.073        0.103      345.768       23.531      857.269
05/30/2014  16:20:00     -411.396      -88.336      -18.707      189.067      158.466       92.064    35746.271    25111.360     8475.704       12.335        3.467      420.773       92.407        0.048      345.655       23.338      857.232
05/30/2014  16:21:00     -442.623      -58.360        0.256      241.024      111.458       83.342    58092.685    12422.880     6945.919       13.838        3.873      446.454      107.225        0.058      345.719       23.448      857.215
05/30/2014  16:22:00     -235.318      -51.782       27.376      155.702      113.180       70.214    24243.238    12809.659     4930.000        5.039        2.099      240.949       61.803        0.066      345.903       23.762      857.267
05/30/2014  16:23:00     -251.157     -140.088        0.965       99.085       95.134       60.762     9817.787     9050.535     3691.990        5.263        1.128      287.584       56.590        0.039      345.757       23.513      857.288
05/30/2014  16:24:00     -176.282      -69.146        8.653      130.121      114.554       50.868    16931.578    13122.522     2587.538        3.428        1.632      189.358       63.649        0.113      345.877       23.718      857.284
05/30/2014  16:25:00     -154.805      -75.776        6.155      137.408       84.168       54.047    18880.949     7084.270     2921.072        2.931        1.444      172.356       65.001        0.142      345.922       23.797      857.282
05/30/2014  16:26:00     -245.552       39.994       -8.890      131.417      104.547       60.692    17270.427    10930.030     3683.461        4.692        1.594      248.788       67.075        0.073      345.821       23.622      857.258
05/30/2014  16:27:00     -234.963       44.588      -14.909      144.020       67.322       40.450    20741.651     4532.191     1636.195        4.216        1.346      239.157       46.436        0.038      345.892       23.745      857.224
05/30/2014  16:28:00     -241.198     -135.078      -11.777      139.035      105.680       61.346    19330.833    11168.222     3763.290        5.540        1.713      276.446       65.419        0.056      345.958       23.858      857.229
05/30/2014  16:29:00     -442.670     -211.693       -8.903      224.622      115.346       78.905    50454.932    13304.694     6225.985       15.540        3.499      490.684       93.991        0.037      345.696       23.408      857.224
05/30/2014  16:30:00     -294.963     -105.990        4.658      183.352      167.193       91.773    33618.115    27953.582     8422.324        8.411        3.500      313.428       94.560        0.091      345.818       23.618      857.199
05/30/2014  16:31:00     -300.841      -83.952       13.108      248.308      139.218      119.413    61656.772    19381.781    14259.503        9.649        4.765      312.335      139.304        0.199      345.873       23.713      857.188
05/30/2014  16:32:00     -214.823       46.046       -1.054      138.849      143.469       71.963    19279.094    20583.232     5178.610        4.665        2.252      219.702       56.204        0.065      346.012       23.952      857.207
05/30/2014  16:33:00     -526.374     -203.794      -43.948      177.890      203.395       87.311    31644.980    41369.590     7623.132       20.057        4.032      564.448       94.197        0.028      345.894       23.748      857.208
05/30/2014  16:34:00     -276.016       -4.354        0.851      136.822      117.620       55.532    18720.205    13834.420     3083.787        5.591        1.782      276.051       52.348        0.036      345.952       23.848      857.205
05/30/2014  16:35:00     -374.059       73.148      -26.413      199.473      121.401       86.823    39789.386    14738.093     7538.269       10.400        3.103      381.144       92.013        0.058      345.833       23.642      857.166
05/30/2014  16:36:00     -348.377      -68.354       -4.946      194.678      153.742       82.942    37899.529    23636.732     6879.325        9.723        3.421      355.019      106.901        0.091      345.913       23.781      857.152
05/30/2014  16:37:00     -183.093       -4.974        7.337      230.470      100.040       76.513    53116.647    10007.906     5854.236        5.128        3.449      183.161      102.599        0.314      346.028       23.978      857.155
05/30/2014  16:38:00     -212.230      -35.960        2.816      242.390      156.348       92.573    58752.701    24444.659     8569.679        6.904        4.588      215.255       98.495        0.209      345.944       23.834      857.146
05/30/2014  16:39:00     -677.395     -113.872      -54.245      224.471      183.075      111.653    50387.132    33516.402    12466.462       28.555        4.818      686.899      127.279        0.034      345.689       23.397      857.168
05/30/2014  16:40:00     -474.348     -132.598        0.615      211.647      159.409       73.778    44794.557    25411.272     5443.139       15.910        3.782      492.532       72.860        0.022      345.665       23.354      857.167
05/30/2014  16:41:00     -307.514      -34.470        5.038      157.532      137.067       79.776    24816.180    18787.252     6364.283        7.286        2.498      309.439       73.559        0.057      345.770       23.534      857.193
05/30/2014  16:42:00     -224.886     -151.347        6.243      134.640      116.461       63.881    18127.808    13563.242     4080.729        5.464        1.789      271.072       57.216        0.045      345.784       23.560      857.202
05/30/2014  16:43:00     -210.249     -112.282       -0.456      139.561       91.594       55.085    19477.152     8389.513     3034.315        4.385        1.545      238.353       54.955        0.053      345.863       23.695      857.215
05/30/2014  16:44:00     -350.130     -153.186        6.394      187.903      124.418       74.144    35307.644    15479.820     5497.347       10.118        2.814      382.174       90.189        0.056      345.746       23.494      857.202
05/30/2014  16:45:00     -242.273     -212.683        9.631      161.726      142.431       85.345    26155.384    20286.675     7283.845        7.886        2.686      322.383       89.118        0.076      345.825       23.629      857.184
05/30/2014  16:46:00     -358.436     -261.831      -14.559      183.841      140.252       82.517    33797.677    19670.554     6809.084       12.875        3.014      443.882       96.387        0.047      345.713       23.438      857.182
05/30/2014  16:47:00     -350.156     -121.531      -13.807      183.907      135.815       74.093    33821.613    18445.619     5489.842        9.765        2.888      370.647       86.124        0.054      345.654       23.335      857.204
05/30/2014  16:48:00     -254.438       -0.872      -11.638      142.388      100.414       76.736    20274.337    10082.940     5888.439        5.055        1.812      254.440       80.440        0.100      345.791       23.571      857.237
05/30/2014  16:49:00     -455.591     -135.157      -17.936      153.669      146.223       71.455    23614.113    21381.071     5105.872       13.812        2.505      475.217       69.262        0.021      345.631       23.294      857.197
05/30/2014  16:50:00     -434.348      -77.093      -26.849      206.524      114.806       76.832    42652.005    13180.323     5903.124       12.852        3.087      441.137       94.868        0.046      345.689       23.395      857.219
05/30/2014  16:51:00     -441.922     -192.873      -20.016      156.528      133.868       60.800    24501.028    17920.515     3696.678       13.950        2.306      482.178       63.355        0.017      345.689       23.396      857.221
05/30/2014  16:52:00     -374.442     -112.128      -28.208      168.373      157.045       90.056    28349.592    24662.996     8110.054       10.734        3.056      390.870       92.077        0.055      345.682       23.384      857.210
05/30/2014  16:53:00     -166.274      -86.747        3.929      219.440      139.264       83.298    48154.120    19394.578     6938.563        5.482        3.724      187.543       92.601        0.244      345.813       23.611      857.237
05/30/2014  16:54:00     -283.142     -152.936        6.536      151.240      183.459       66.286    22873.481    33657.136     4393.889        8.225        3.046      321.805       58.661        0.033      345.855       23.681      857.244
05/30/2014  16:55:00     -282.416     -107.368      -10.116      185.058      128.706       82.052    34246.301    16565.260     6732.498        7.446        2.877      302.137       80.119        0.070      346.037       23.992      857.251
05/30/2014  16:56:00     -552.954      -84.141      -22.490      235.798      190.259       90.016    55600.521    36198.499     8102.860       20.660        4.995      559.319      106.944        0.037      345.671       23.364      857.254
05/30/2014  16:57:00     -402.854      -61.103      -17.797      267.073      176.881      102.347    71327.855    31286.809    10474.994       13.969        5.654      407.462      120.646        0.088      345.741       23.486      857.237
05/30/2014  16:58:00     -569.915      -87.221      -38.252      236.815      164.663       93.942    56081.115    27113.879     8825.125       21.293        4.601      576.551      116.610        0.041      345.711       23.433      857.237
05/30/2014  16:59:00     -621.006     -191.413      -31.758      232.006      209.001      106.111    53826.984    43681.617    11259.448       26.601        5.438      649.837      112.630        0.030      345.547       23.151      857.217
05/30/2014  17:00:00     -618.387      -71.096      -56.994      185.916      192.122      100.126    34564.628    36910.933    10025.309       23.609        4.075      622.460       91.526        0.022      345.545       23.147      857.217
05/30/2014  17:01:00     -432.766      -95.333       -2.726      214.184      147.263       81.411    45874.813    21686.258     6627.706       13.527        3.709      443.142       80.524        0.033      345.781       23.553      857.208
05/30/2014  17:02:00     -374.205      -88.805      -35.032      111.565      112.556       54.665    12446.807    12668.966     2988.234        8.862        1.405      384.598       41.722        0.012      345.838       23.650      857.250
05/30/2014  17:03:00     -410.833      -64.359      -20.757      193.391      136.011       84.328    37400.173    18499.041     7111.260       11.817        3.151      415.843       92.138        0.049      345.892       23.743      857.215
05/30/2014  17:04:00     -302.414     -116.458       -5.401      184.237      152.260       96.606    33943.434    23183.083     9332.704        8.574        3.323      324.063       75.925        0.055      345.839       23.653      857.248
05/30/2014  17:05:00     -354.257     -101.700      -18.869      220.282      113.530       79.930    48523.991    12889.033     6388.855       10.199        3.390      368.566       95.932        0.068      345.756       23.511      857.249
05/30/2014  17:06:00     -393.606      -40.972      -22.367      220.031      145.938       87.821    48413.675    21297.854     7712.557       11.725        3.871      395.732       95.614        0.058      345.811       23.607      857.243
05/30/2014  17:07:00     -374.356     -105.757       15.110      315.930      228.822      133.955    99812.057    52359.708    17943.835       16.080        8.506      389.008      165.444        0.181      345.586       23.219      857.221
05/30/2014  17:08:00     -220.292      -60.914      -12.293      212.021      147.404      105.842    44952.723    21728.081    11202.596        6.512        3.894      228.559       84.655        0.137      345.726       23.459      857.203
05/30/2014  17:09:00     -376.313     -156.990      -26.534      210.977      181.221       90.716    44511.505    32841.125     8229.312       12.625        4.279      407.746       73.360        0.032      345.694       23.403      857.178
05/30/2014  17:10:00     -402.168      -73.956      -13.968      244.077      154.710       86.104    59573.612    23935.108     7413.945       12.914        4.546      408.912       98.047        0.057      345.733       23.471      857.187
05/30/2014  17:11:00     -620.684     -236.399      -45.518      271.160      182.096      110.934    73527.735    33158.906    12306.328       28.108        5.950      664.178      124.886        0.035      345.566       23.184      857.175
05/30/2014  17:12:00     -519.734     -103.267      -29.697      145.906      169.012       84.902    21288.422    28564.916     7208.418       16.935        2.853      529.893       80.273        0.023      345.681       23.382      857.164
05/30/2014  17:13:00     -281.419     -122.612       -3.725      151.948      121.285       77.433    23088.306    14710.132     5995.928        6.901        2.190      306.970       62.319        0.041      345.901       23.760      857.172
05/30/2014  17:14:00     -304.267      -79.981      -18.710      172.298      124.573       83.755    29686.477    15518.457     7014.983        7.576        2.611      314.603       98.720        0.098      345.924       23.799      857.201
05/30/2014  17:15:00     -369.686      -90.183      -17.467      133.348      107.897       65.606    17781.641    11641.792     4304.097        8.941        1.686      380.527       67.412        0.031      345.934       23.815      857.206
05/30/2014  17:16:00     -206.324     -147.831        5.390      158.717      123.350       80.507    25191.220    15215.325     6481.323        5.566        2.344      253.819       92.592        0.133      346.081       24.069      857.193
05/30/2014  17:17:00     -320.935     -233.375       21.141      225.357      164.084       93.518    50785.874    26923.514     8745.617       12.217        4.323      396.817      107.451        0.073      345.899       23.756      857.165
05/30/2014  17:18:00     -416.727     -153.669      -29.292      256.170      270.021      103.461    65622.922    72911.414    10704.265       17.366        7.462      444.157      128.948        0.084      345.875       23.715      857.161
05/30/2014  17:19:00     -485.280     -273.564      -18.449      226.600      199.843       98.551    51347.757    39937.285     9712.281       20.582        5.050      557.077      109.096        0.038      345.813       23.608      857.167
05/30/2014  17:20:00     -347.936       -5.061      -22.913      178.796      194.303       92.270    31968.071    37753.823     8513.669        9.991        3.912      347.973       91.464        0.069      346.180       24.239      857.199
05/30/2014  17:21:00     -495.335      -61.214      -37.549      252.485      135.356       80.812    63748.695    18321.146     6530.584       16.954        4.430      499.103      105.216        0.044      346.004       23.937      857.211
05/30/2014  17:22:00     -360.106      -54.355      -36.342      179.555      182.787       79.201    32239.937    33410.940     6272.802       10.292        3.596      364.186       67.995        0.035      345.946       23.837      857.178
05/30/2014  17:23:00     -477.544       12.664      -33.060      272.711      219.289      103.547    74371.059    48087.674    10722.012       18.121        6.659      477.712      130.228        0.074      345.750       23.500      857.148
05/30/2014  17:24:00     -454.625      -90.542      -29.441      272.648      200.915      104.386    74337.168    40366.727    10896.339       17.065        6.280      463.553      105.395        0.052      345.953       23.850      857.137
05/30/2014  17:25:00     -372.797      -63.963        6.730      203.819      213.177       97.576    41542.291    45444.367     9521.131       11.979        4.825      378.244       94.504        0.062      345.974       23.884      857.168
05/30/2014  17:26:00     -666.053      -71.558      -40.940      284.089      189.932      109.958    80706.541    36074.192    12090.703       28.962        6.444      669.886      138.343        0.043      345.753       23.505      857.208
05/30/2014  17:27:00     -469.044      -37.975       -5.212      207.854      198.742       99.458    43203.199    39498.246     9891.963       15.701        4.630      470.579      109.826        0.054      345.704       23.422      857.223
05/30/2014  17:28:00     -500.294     -156.046        5.605      297.176      217.121      105.871    88313.707    47141.696    11208.573       21.064        7.333      524.065      102.655        0.038      345.666       23.356      857.221
05/30/2014  17:29:00     -353.461      -99.633       -8.088      197.031      174.870       92.774    38821.273    30579.648     8606.993       10.645        3.900      367.235       98.152        0.071      345.665       23.355      857.236
05/30/2014  17:30:00     -422.605     -199.332       -2.191      273.590      224.269      119.689    74851.486    50296.516    14325.480       17.888        6.974      467.256      116.562        0.062      345.566       23.185      857.254
05/30/2014  17:31:00     -581.110      -94.846      -67.865      185.643      185.811       82.398    34463.379    34525.736     6789.511       21.352        3.789      588.799       79.094        0.018      345.467       23.015      857.280
05/30/2014  17:32:00     -300.549       -3.077      -13.854      178.821      150.211       84.891    31976.940    22563.361     7206.549        7.613        3.087      300.565       80.794        0.072      345.674       23.371      857.253
05/30/2014  17:33:00     -481.521     -118.642      -37.888      207.187      152.331       99.448    42926.647    23204.875     9889.937       16.168        3.801      495.922      103.100        0.043      345.486       23.046      857.217
05/30/2014  17:34:00     -259.267       23.262       -6.922      227.105      168.456       89.703    51576.652    28377.386     8046.545        7.789        4.400      260.309      101.870        0.153      345.850       23.672      857.146
05/30/2014  17:35:00     -488.115      -92.084      -27.677      238.738      191.062       82.985    56995.796    36504.530     6886.444       17.392        5.019      496.725       81.781        0.027      345.832       23.641      857.174
05/30/2014  17:36:00     -587.141        5.665      -58.080      259.094      156.843       84.988    67129.914    24599.653     7223.044       22.353        4.948      587.168       87.168        0.022      345.702       23.417      857.200
05/30/2014  17:37:00     -483.635     -118.625      -14.923      268.502      175.017       93.345    72093.417    30630.788     8713.210       17.980        5.572      497.971      115.936        0.054      345.675       23.373      857.185
05/30/2014  17:38:00     -575.481     -164.164      -21.228      224.528      180.705       99.845    50412.803    32654.434     9969.112       22.579        4.652      598.438      107.265        0.032      345.528       23.118      857.165
05/30/2014  17:39:00     -299.652     -139.513       -3.198      252.316      159.479       87.058    63663.546    25433.546     7579.082       10.295        4.834      330.538      107.309        0.105      345.777       23.547      857.141
05/30/2014  17:40:00     -311.324     -225.795       -1.783      194.719      136.766       83.277    37915.595    18704.975     6935.110       10.572        3.178      384.585       84.101        0.048      345.702       23.418      857.164
05/30/2014  17:41:00     -548.246      -31.393      -36.365      304.057      218.773      115.704    92450.718    47861.496    13387.429       22.826        7.685      549.144      144.819        0.070      345.651       23.330      857.189
05/30/2014  17:42:00     -525.363      -28.694      -39.303      240.394      193.961      101.002    57789.156    37621.037    10201.504       19.197        5.281      526.146      110.898        0.044      345.515       23.096      857.148
05/30/2014  17:43:00     -361.959     -115.808      -11.079      195.313      165.745       93.647    38147.180    27471.489     8769.844       10.945        3.719      380.034       93.545        0.061      345.546       23.149      857.174
05/30/2014  17:44:00     -277.019       -0.029       -9.509      186.812      148.661       77.260    34898.737    22100.209     5969.153        6.989        3.148      277.019       96.666        0.122      345.880       23.723      857.211
05/30/2014  17:45:00     -451.227     -130.479      -15.843      228.855      161.128       75.606    52374.570    25962.310     5716.322       15.245        4.203      469.713       94.055        0.040      345.786       23.562      857.203
05/30/2014  17:46:00     -646.166     -154.875       -9.823      228.929      154.758       78.697    52408.516    23950.024     6193.292       26.207        4.128      664.467       96.955        0.021      345.646       23.323      857.168
05/30/2014  17:47:00     -478.351     -246.265      -33.339      212.688      155.603       92.741    45236.011    24212.356     8600.946       18.430        3.902      538.021       94.823        0.031      345.709       23.429      857.160
05/30/2014  17:48:00     -453.236     -132.733      -11.018      175.139      156.711       83.022    30673.733    24558.422     6892.734       14.263        3.106      472.272       87.661        0.034      345.711       23.433      857.161
05/30/2014  17:49:00     -508.109      -17.892      -26.153      179.112      179.429       90.709    32081.131    32194.589     8228.187       16.583        3.625      508.424       88.562        0.030      345.657       23.341      857.169
05/30/2014  17:50:00     -613.837      -66.891      -28.486      172.281      167.427       80.792    29680.813    28031.767     6527.398       22.315        3.212      617.471       87.814        0.020      345.677       23.375      857.184
05/30/2014  17:51:00     -563.271     -189.686      -23.290      247.757      163.335       93.552    61383.589    26678.345     8752.058       22.529        4.841      594.353      106.452        0.032      345.526       23.117      857.207
05/30/2014  17:52:00     -350.894      -81.275       -6.525      216.759      114.288       69.538    46984.564    13061.855     4835.551        9.732        3.244      360.183       72.922        0.041      345.783       23.558      857.208
05/30/2014  17:53:00     -381.914     -169.732       -4.855      188.991      190.223      104.696    35717.777    36184.829    10961.193       12.876        4.143      417.932      107.785        0.067      345.698       23.410      857.212
05/30/2014  17:54:00     -487.369     -144.573      -20.504      295.219      229.431      111.749    87154.163    52638.397    12487.928       20.553        7.614      508.360      130.926        0.066      345.632       23.298      857.200
05/30/2014  17:55:00     -478.518     -249.826       -8.227      229.757      203.058      104.036    52788.242    41232.458    10823.468       19.813        5.242      539.808      129.670        0.058      345.542       23.143      857.234
05/30/2014  17:56:00     -466.314     -107.471      -17.818      182.144      167.083       95.991    33176.555    27916.881     9214.310       14.980        3.515      478.539       96.141        0.040      345.455       22.995      857.234
05/30/2014  17:57:00     -367.813      -34.965      -15.900      187.383      174.259       88.418    35112.573    30366.255     7817.770       10.501        3.665      369.471       86.215        0.054      345.617       23.272      857.183
05/30/2014  17:58:00     -465.044     -205.376      -35.594      212.326      158.974       98.220    45082.503    25272.648     9647.096       16.984        4.000      508.375      101.779        0.040      345.647       23.323      857.158
05/30/2014  17:59:00     -198.186     -105.879       22.807      182.538      157.546       88.385    33320.262    24820.637     7811.910        5.847        3.298      224.696       94.450        0.177      345.825       23.629      857.166
05/30/2014  18:00:00     -348.825      -91.672       -2.988      206.532      133.030       66.167    42655.292    17697.061     4378.067        9.740        3.237      360.670       84.225        0.055      345.815       23.613      857.179
05/30/2014  18:01:00     -287.944      -22.618        8.604      168.773      158.479       82.456    28484.237    25115.546     6798.956        7.194        3.020      288.831       78.027        0.073      345.705       23.424      857.147
05/30/2014  18:02:00     -244.931      -68.974        3.322      200.369      120.102       80.911    40147.819    14424.481     6546.556        6.293        3.056      254.457       88.597        0.121      345.828       23.634      857.135
05/30/2014  18:03:00     -394.942      -45.653      -26.445      206.478      197.542       84.065    42633.346    39022.801     7066.895       12.373        4.436      397.572       67.718        0.029      345.595       23.235      857.177
05/30/2014  18:04:00     -358.110      -62.559      -15.713      180.822      159.556       91.785    32696.737    25458.236     8424.485        9.948        3.329      363.534      100.873        0.077      345.585       23.219      857.150
05/30/2014  18:05:00     -492.091       -9.134      -18.083      186.345      185.849       68.363    34724.339    34539.779     4673.459       15.824        3.697      492.176       71.511        0.021      345.651       23.329      857.139
05/30/2014  18:06:00     -431.375      -97.567      -17.122      291.650      146.563      109.684    85059.550    21480.753    12030.583       15.721        5.929      442.271      141.718        0.103      345.642       23.314      857.174
05/30/2014  18:07:00     -426.891     -110.806       -6.467      251.373      198.292      102.711    63188.495    39319.620    10549.455       15.378        5.653      441.038      113.293        0.066      345.555       23.166      857.135
05/30/2014  18:08:00     -578.715     -128.805      -33.722      287.956      177.250      105.822    82918.449    31417.487    11198.283       23.906        6.277      592.876      106.032        0.032      345.409       22.916      857.159
05/30/2014  18:09:00     -651.165     -186.243      -11.626      233.232      190.885      100.369    54397.062    36437.264    10073.927       27.985        5.045      677.275      112.024        0.027      345.310       22.745      857.154
05/30/2014  18:10:00     -655.554     -209.354      -23.862      221.833      186.142      101.223    49209.874    34648.752    10246.093       28.411        4.705      688.171      109.234        0.025      345.354       22.820      857.193
05/30/2014  18:11:00     -351.343     -164.907        4.988      227.030      167.107      109.084    51542.720    27924.899    11899.274       12.100        4.568      388.119      121.345        0.098      345.423       22.940      857.194
05/30/2014  18:12:00     -433.049     -181.709       -1.382      252.063      198.977      112.390    63535.643    39592.042    12631.584       16.813        5.788      469.627      124.652        0.070      345.381       22.867      857.156
05/30/2014  18:13:00     -338.748      -91.393        1.142      262.755      137.108       94.129    69040.331    18798.530     8860.270       10.988        4.835      350.860      115.247        0.108      345.500       23.071      857.163
05/30/2014  18:14:00     -520.760      -30.843      -34.829      181.771      163.121       90.647    33040.870    26608.506     8216.947       17.060        3.393      521.673       96.964        0.035      345.422       22.936      857.167
05/30/2014  18:15:00     -598.952      -38.483      -47.896      231.783      166.525       92.823    53723.483    27730.532     8616.162       22.628        4.504      600.187      101.845        0.029      345.439       22.966      857.144
05/30/2014  18:16:00     -375.169     -131.196       -0.784      208.801      220.031       91.896    43598.034    48413.556     8444.807       12.919        5.023      397.447      106.832        0.072      345.547       23.151      857.175
05/30/2014  18:17:00     -470.147     -257.071      -11.094      247.151      196.183      106.274    61083.512    38487.716    11294.239       19.903        5.543      535.839      118.672        0.049      345.319       22.760      857.169
05/30/2014  18:18:00     -276.355     -130.521        4.969      165.849      156.465       74.494    27506.011    24481.213     5549.395        7.547        2.877      305.627       80.341        0.069      345.523       23.110      857.188
05/30/2014  18:19:00     -451.957     -166.448      -21.486      185.666      178.625       86.796    34472.027    31906.991     7533.558       15.316        3.696      481.633       95.928        0.040      345.483       23.041      857.182
05/30/2014  18:20:00     -407.518     -115.999      -21.708      173.698      140.117       86.154    30170.873    19632.842     7422.472       11.860        2.861      423.706       92.937        0.048      345.431       22.951      857.208
05/30/2014  18:21:00     -296.757      -87.280       -3.073      211.841      129.832       75.652    44876.584    16856.429     5723.178        8.156        3.373      309.326       76.123        0.061      345.532       23.125      857.218
05/30/2014  18:22:00     -290.074     -179.856      -14.267      219.769      118.450       92.626    48298.423    14030.463     8579.532        9.379        3.545      341.308      107.137        0.099      345.495       23.064      857.212
05/30/2014  18:23:00     -283.724     -156.273        3.511      218.732      149.893       93.355    47843.618    22467.937     8715.217        9.196        3.951      323.914      114.638        0.125      345.460       23.003      857.248
05/30/2014  18:24:00     -416.717     -294.885      -16.469      190.051      168.467       95.014    36119.309    28381.108     9027.588       16.719        3.676      510.500       91.399        0.032      345.405       22.907      857.235
05/30/2014  18:25:00     -421.436     -155.541      -26.742      178.447      148.485       78.463    31843.427    22047.908     6156.406       13.127        3.002      449.222       79.454        0.031      345.375       22.857      857.254
05/30/2014  18:26:00     -345.411     -125.546      -22.778      156.814      117.444       69.265    24590.706    13793.029     4797.595        8.938        2.159      367.519       78.369        0.045      345.505       23.079      857.283
05/30/2014  18:27:00     -260.749     -129.845        6.443      135.403      108.450       61.434    18333.849    11761.325     3774.078        5.937        1.693      291.290       66.353        0.052      345.505       23.079      857.287
05/30/2014  18:28:00     -173.091      -58.121       13.542      133.467      106.141       60.464    17813.494    11265.974     3655.905        3.312        1.637      182.589       68.503        0.141      345.639       23.309      857.287
05/30/2014  18:29:00     -498.617     -110.344      -17.970      206.167      135.953       86.089    42505.012    18483.126     7411.283       16.474        3.420      510.680      101.716        0.040      345.289       22.709      857.285
05/30/2014  18:30:00     -520.109      -94.065      -37.715      245.140      160.457       95.677    60093.820    25746.367     9154.059       18.787        4.750      528.547      102.131        0.037      345.388       22.877      857.259
05/30/2014  18:31:00     -540.625     -130.279      -26.888      234.099      181.106      110.599    54802.492    32799.530    12232.093       20.488        4.992      556.101      127.518        0.053      345.337       22.790      857.288
05/30/2014  18:32:00     -488.785     -263.335      -10.764      251.658      180.729      111.404    63332.000    32663.064    12410.944       20.837        5.420      555.208      119.641        0.046      345.250       22.642      857.310
05/30/2014  18:33:00     -364.935     -149.742        1.663      220.117      122.057       78.035    48451.497    14897.869     6089.525       11.251        3.472      394.461       90.690        0.053      345.157       22.482      857.308
05/30/2014  18:34:00     -394.972      -98.702      -11.336      176.376      125.607       75.764    31108.659    15777.189     5740.115       10.924        2.631      407.118       84.912        0.044      345.322       22.767      857.327
05/30/2014  18:35:00     -258.657      -48.249        3.257      192.241      118.577       84.105    36956.788    14060.402     7073.707        6.365        2.905      263.119       97.384        0.137      345.425       22.944      857.342
05/30/2014  18:36:00     -504.838     -171.540      -13.613      219.376      156.760       91.229    48126.001    24573.585     8322.728       18.273        4.051      533.186      108.050        0.041      345.293       22.715      857.357
05/30/2014  18:37:00     -632.682     -159.898      -50.791      229.007      175.207       98.242    52444.270    30697.547     9651.580       26.059        4.640      652.575       96.555        0.022      345.195       22.548      857.343
05/30/2014  18:38:00     -368.239     -112.604      -14.885      214.105      132.296       84.500    45841.139    17502.184     7140.307       10.948        3.524      385.070       61.288        0.025      345.342       22.800      857.337
05/30/2014  18:39:00     -343.486      -83.659      -20.073      132.747      101.513       59.587    17621.663    10304.860     3550.641        7.842        1.574      353.527       53.634        0.023      345.352       22.817      857.401
05/30/2014  18:40:00     -225.961     -103.387      -11.619      137.879      101.067       65.739    19010.543    10214.607     4321.560        4.771        1.677      248.490       71.316        0.082      345.358       22.827      857.403
05/30/2014  18:41:00     -277.092     -105.751        7.041      141.409      157.058       70.725    19996.624    24667.178     5001.959        6.883        2.483      296.586       69.077        0.054      345.377       22.861      857.423
05/30/2014  18:42:00     -388.484     -138.030      -16.447      188.527      169.801       86.121    35542.542    28832.460     7416.883       12.100        3.590      412.277       91.717        0.049      345.149       22.471      857.420
05/30/2014  18:43:00     -332.580     -167.358      -11.693      165.090      153.913       64.353    27254.697    23689.103     4141.258        9.691        2.754      372.315       51.400        0.019      345.142       22.457      857.434
05/30/2014  18:44:00     -282.166      -22.611       -4.196      164.443      104.858       68.390    27041.392    10995.177     4677.244        6.142        2.136      283.070       80.536        0.081      345.243       22.630      857.459
05/30/2014  18:45:00     -247.510      -33.180      -15.453      156.645       95.358       66.568    24537.762     9093.139     4431.235        5.032        1.903      249.724       65.296        0.068      345.262       22.663      857.461
05/30/2014  18:46:00     -554.672     -174.334      -37.031      250.921      172.195      100.986    62961.113    29651.244    10198.075       22.110        5.141      581.423      104.875        0.033      345.102       22.390      857.444
05/30/2014  18:47:00     -566.576     -100.576      -31.239      192.409      171.711       79.126    37021.073    29484.675     6260.967       20.242        3.638      575.433       76.462        0.018      345.110       22.403      857.450
05/30/2014  18:48:00     -374.149     -143.500       -4.070      226.743      126.840       83.647    51412.277    16088.263     6996.825       11.753        3.725      400.724      103.241        0.066      345.060       22.317      857.482
05/30/2014  18:49:00     -345.980      -67.266      -18.409      207.335      158.245       66.727    42987.725    25041.515     4452.507        9.851        3.624      352.458       93.567        0.070      345.081       22.354      857.500
05/30/2014  18:50:00     -412.582      -58.754      -32.690      183.027      182.949       86.773    33498.877    33470.481     7529.471       12.461        3.725      416.744       92.328        0.049      345.123       22.423      857.502
05/30/2014  18:51:00     -434.649     -120.708      -11.382      258.552      180.876      100.879    66849.287    32716.157    10176.622       15.666        5.487      451.099      119.365        0.070      345.061       22.321      857.480
05/30/2014  18:52:00     -364.770      -68.982      -11.319      183.946      147.125       92.545    33836.184    21645.788     8564.603       10.098        3.202      371.236       96.605        0.068      345.070       22.334      857.492
05/30/2014  18:53:00     -599.687     -106.871      -16.086      231.255      194.590      109.758    53478.877    37865.319    12046.751       23.733        5.170      609.136      121.417        0.040      344.968       22.161      857.472
05/30/2014  18:54:00     -552.631      -28.954      -45.197      234.666      190.240       95.630    55068.142    36191.068     9145.092       20.432        5.020      553.389      112.448        0.041      345.005       22.224      857.473
05/30/2014  18:55:00     -468.836      -41.246      -25.806      160.913      131.937       86.568    25892.915    17407.244     7493.984       13.647        2.540      470.646       90.951        0.037      345.000       22.216      857.523
05/30/2014  18:56:00     -338.040      -54.945      -14.267      164.309      116.849       70.114    26997.512    13653.629     4915.950        8.152        2.278      342.476       72.943        0.045      345.035       22.274      857.565
05/30/2014  18:57:00     -436.178      -23.183      -41.071      166.544      101.528       62.792    27736.902    10307.907     3942.884       11.722        2.099      436.794       60.615        0.019      344.981       22.182      857.595
05/30/2014  18:58:00     -455.966     -120.571      -23.074      162.237      180.114       89.264    26320.795    32441.100     7968.124       14.484        3.337      471.638       87.230        0.034      344.970       22.163      857.589
05/30/2014  18:59:00     -238.870      -23.555      -23.921      141.516       95.434       46.519    20026.858     9107.728     2163.996        4.474        1.565      240.029       33.949        0.020      345.092       22.374      857.601
05/30/2014  19:00:00     -412.809       61.379      -28.544      191.719      114.383       69.916    36756.023    13083.454     4888.180       11.485        2.736      417.347       76.897        0.034      345.051       22.302      857.644
05/30/2014  19:01:00     -298.326      -51.773       -0.847      151.977      117.340       58.425    23097.016    13768.634     3413.522        6.597        2.014      302.785       65.984        0.047      345.084       22.360      857.637
05/30/2014  19:02:00     -476.495      -69.331      -27.757      219.353      170.127       86.957    48115.708    28943.204     7561.435       15.861        4.231      481.513       87.793        0.033      344.975       22.173      857.627
05/30/2014  19:03:00     -530.504      -57.713      -47.708      163.434      144.653       82.361    26710.562    20924.353     6783.260       17.072        2.721      533.635       85.448        0.026      344.928       22.092      857.658
05/30/2014  19:04:00     -424.789      -98.928       -8.326      189.640      165.482       84.044    35963.149    27384.235     7063.343       13.034        3.521      436.156       95.800        0.048      344.892       22.030      857.643
05/30/2014  19:05:00     -369.670       -6.156      -17.571      147.950      144.358       73.711    21889.084    20839.190     5433.381        9.257        2.408      369.721       68.730        0.035      344.943       22.116      857.669
05/30/2014  19:06:00     -373.277     -156.605      -16.809      177.944      149.784       86.745    31664.034    22435.292     7524.622       11.287        3.081      404.797       79.336        0.038      344.942       22.115      857.661
05/30/2014  19:07:00     -486.588     -134.447      -18.844      230.290      192.026       92.351    53033.600    36873.895     8528.765       17.680        4.922      504.820      122.841        0.059      344.867       21.986      857.637
05/30/2014  19:08:00     -322.105      -84.024        7.288      266.979      135.444       72.868    71277.572    18345.134     5309.809       10.288        4.747      332.884       94.778        0.081      344.860       21.975      857.666
05/30/2014  19:09:00     -292.371      -92.011      -12.599      127.921      130.474       61.044    16363.874    17023.550     3726.317        6.560        1.856      306.508       50.801        0.027      344.909       22.060      857.678
05/30/2014  19:10:00     -327.499      -70.728      -21.863      126.849      119.366       62.461    16090.764    14248.205     3901.432        7.348        1.712      335.049       58.046        0.030      344.910       22.060      857.703
05/30/2014  19:11:00     -252.752      -88.311       -7.449      199.637      110.299       79.798    39854.773    12165.824     6367.715        6.505        2.919      267.735       98.576        0.136      344.903       22.049      857.706
05/30/2014  19:12:00     -164.768      -62.645       -5.796      142.500      107.050       56.050    20306.182    11459.618     3141.646        3.300        1.745      176.275       57.728        0.107      344.934       22.104      857.706
05/30/2014  19:13:00     -209.369      -39.254       -5.084      129.314       94.959       59.931    16722.075     9017.194     3591.773        3.736        1.467      213.017       59.545        0.078      344.919       22.077      857.715
05/30/2014  19:14:00     -501.518     -128.251      -15.310      183.861      141.879       77.704    33805.007    20129.651     6037.876       16.408        2.999      517.657       79.060        0.023      344.774       21.829      857.718
05/30/2014  19:15:00     -346.425      -93.579      -14.883      187.008      143.817       89.822    34972.058    20683.330     8068.076        9.634        3.186      358.842      100.732        0.079      344.798       21.869      857.721
05/30/2014  19:16:00     -390.627     -132.280       -2.022      161.747      150.191       76.671    26161.997    22557.352     5878.436       11.233        2.730      412.417       82.748        0.040      344.727       21.747      857.725
05/30/2014  19:17:00     -199.661       -4.398       20.549      199.636      133.066       91.449    39854.414    17706.540     8362.999        5.310        3.296      199.710      108.414        0.295      344.732       21.756      857.735
05/30/2014  19:18:00     -210.545      -54.965       16.820      127.366      138.653       82.782    16222.154    19224.711     6852.821        4.496        2.115      217.602       72.396        0.111      344.753       21.791      857.703
05/30/2014  19:19:00     -365.878     -127.156      -16.560      161.937      104.761       69.762    26223.726    10974.770     4866.730        9.618        2.103      387.344       79.598        0.042      344.699       21.698      857.718
05/30/2014  19:20:00     -396.200     -119.073      -13.952      193.284      155.742       77.834    37358.849    24255.488     6058.178       11.950        3.384      413.706       91.763        0.049      344.683       21.672      857.724
05/30/2014  19:21:00     -409.917     -155.061      -19.493      310.492      179.526       97.331    96405.133    32229.706     9473.282       16.525        6.905      438.265      125.360        0.082      344.659       21.633      857.720
05/30/2014  19:22:00     -602.179     -114.457      -23.741      229.839      195.824      111.120    52826.065    38347.129    12347.636       23.988        5.176      612.960      119.086        0.038      344.592       21.516      857.739
05/30/2014  19:23:00     -477.756      -73.314      -37.953      205.505      162.511       85.042    42232.204    26409.848     7232.085       15.545        3.794      483.348       84.705        0.031      344.626       21.576      857.756
05/30/2014  19:24:00     -582.318      -26.939      -50.333      175.007      178.591       98.730    30627.387    31894.597     9747.612       20.730        3.613      582.941       95.288        0.027      344.556       21.454      857.780
05/30/2014  19:25:00     -379.876     -107.791      -16.108      160.552      149.572       72.932    25776.883    22371.678     5319.102       10.481        2.673      394.873       74.114        0.035      344.596       21.523      857.815
05/30/2014  19:26:00     -409.847     -117.941      -23.552      184.592      129.636       70.289    34074.250    16805.412     4940.612       11.912        2.791      426.479       80.620        0.036      344.583       21.501      857.838
05/30/2014  19:27:00     -520.828       36.920      -47.801      156.961      110.322       80.759    24636.862    12170.973     6522.095       15.911        2.166      522.135       84.054        0.026      344.542       21.431      857.844
05/30/2014  19:28:00     -563.951       -2.629      -37.161      176.880      137.679       78.020    31286.600    18955.418     6087.152       18.787        2.816      563.957       89.220        0.025      344.525       21.402      857.860
05/30/2014  19:29:00     -266.565      -46.240        3.412      210.447      112.685       74.200    44287.841    12698.019     5505.683        6.784        3.125      270.546       89.376        0.109      344.505       21.368      857.883
05/30/2014  19:30:00     -524.914      -79.771      -26.017      245.469      177.618       90.590    60255.182    31548.105     8206.504       19.127        5.000      530.940      107.509        0.041      344.497       21.354      857.879
05/30/2014  19:31:00     -435.711      -60.123      -30.226      160.663      158.470       70.219    25812.547    25112.824     4930.648       12.510        2.793      439.840       65.549        0.022      344.494       21.349      857.905
05/30/2014  19:32:00     -474.511     -118.988      -30.531      175.232      165.939       78.212    30706.217    27535.874     6117.136       15.229        3.218      489.203       81.017        0.027      344.441       21.258      857.907
05/30/2014  19:33:00     -573.845     -136.194      -32.514      191.592      138.096       88.297    36707.462    19070.631     7796.431       20.623        3.179      589.785       97.006        0.027      344.410       21.205      857.891
05/30/2014  19:34:00     -372.150      -47.439       -4.847      236.836      119.607       85.732    56091.449    14305.834     7349.980       10.924        3.887      375.162       99.473        0.070      344.455       21.283      857.893
05/30/2014  19:35:00     -215.659      -58.495      -11.310      126.344      105.796       65.774    15962.927    11192.840     4326.230        4.076        1.574      223.451       49.234        0.049      344.463       21.295      857.886
05/30/2014  19:36:00     -204.351      -76.540        6.630      214.631      135.158       72.322    46066.677    18267.560     5230.473        5.860        3.478      218.215       90.870        0.173      344.448       21.273      857.873
05/30/2014  19:37:00     -616.030     -106.350      -20.565      212.974      168.117      108.657    45357.941    28263.197    11806.352       23.831        4.271      625.142      121.109        0.038      344.381       21.156      857.836
05/30/2014  19:38:00     -344.694     -112.932      -12.337      218.828      184.478       90.407    47885.482    34032.123     8173.410       11.089        4.505      362.722       83.431        0.053      344.392       21.174      857.861
05/30/2014  19:39:00     -409.739      -90.728      -17.269      242.162      115.538       76.203    58642.615    13349.063     5806.885       12.709        3.890      419.663       93.309        0.049      344.369       21.136      857.861
05/30/2014  19:40:00     -479.445     -148.554      -21.781      211.386      184.684       84.604    44683.870    34108.103     7157.777       16.916        4.297      501.932       81.702        0.026      344.349       21.101      857.878
05/30/2014  19:41:00     -217.440      -97.911       20.707      151.776      136.018       83.524    23036.050    18500.887     6976.276        5.289        2.426      238.467       78.658        0.109      344.332       21.072      857.901
05/30/2014  19:42:00     -235.825     -123.065       -9.679      149.121      154.350       77.941    22237.000    23823.925     6074.813        6.148        2.607      266.004       78.231        0.086      344.324       21.060      857.915
05/30/2014  19:43:00     -296.523     -147.615      -13.695      150.476      137.607       76.699    22643.073    18935.757     5882.741        7.867        2.373      331.234       60.085        0.033      344.334       21.075      857.921
05/30/2014  19:44:00     -304.462     -109.352       -6.564      123.243      141.374       58.989    15188.946    19986.571     3479.687        7.167        1.933      323.504       58.479        0.033      344.342       21.089      857.931
05/30/2014  19:45:00     -294.773      -98.176        0.038      168.318      114.964       61.916    28330.877    13216.624     3833.605        7.095        2.269      310.692       74.143        0.057      344.287       20.995      857.938
05/30/2014  19:46:00     -218.149      -43.725       -1.799      152.849      115.802       51.995    23362.926    13410.087     2703.500        4.448        1.974      222.488       61.914        0.077      344.259       20.948      857.920
05/30/2014  19:47:00     -198.024      -14.513        2.503      100.339       84.776       57.203    10067.964     7186.886     3272.188        2.997        1.026      198.555       55.496        0.078      344.219       20.880      857.921
05/30/2014  19:48:00     -247.438      -46.169        4.668      204.907      108.477       64.482    41986.711    11767.293     4157.966        6.063        2.896      251.708       81.173        0.104      344.188       20.829      857.909
05/30/2014  19:49:00     -369.778      -60.985       -4.590      235.379      157.239       89.970    55403.508    24724.195     8094.629       11.433        4.411      374.773      112.201        0.090      344.197       20.843      857.899
05/30/2014  19:50:00     -496.052      -53.182      -27.275      218.971      143.685       79.637    47948.291    20645.507     6342.062       16.227        3.747      498.894       94.960        0.036      344.167       20.789      857.910
05/30/2014  19:51:00     -316.052     -104.999      -17.861      187.186      139.188       73.398    35038.616    19373.407     5387.292        8.550        2.990      333.037       84.969        0.065      344.134       20.733      857.915
05/30/2014  19:52:00     -299.147        5.830       -4.576      138.481      111.117       64.575    19177.075    12347.020     4169.871        6.261        1.785      299.204       63.460        0.045      344.120       20.711      857.925
05/30/2014  19:53:00     -244.970        4.715       -7.238      138.011       97.751       65.635    19046.957     9555.181     4307.969        4.649        1.646      245.016       71.019        0.084      344.120       20.710      857.922
05/30/2014  19:54:00     -313.432       35.591      -16.899      239.804      108.573       89.062    57505.897    11788.200     7932.098        8.849        3.861      315.446      121.155        0.148      344.090       20.659      857.900
05/30/2014  19:55:00     -301.117      -49.876       -7.056      152.417      136.431       62.843    23230.830    18613.448     3949.284        6.949        2.290      305.220       57.214        0.035      344.097       20.672      857.909
05/30/2014  19:56:00     -450.711       14.174      -12.620      182.300      127.116       78.214    33233.221    16158.530     6117.465       12.949        2.775      450.934       84.471        0.035      344.078       20.638      857.902
05/30/2014  19:57:00     -297.616     -100.255       -1.578      191.601      137.043       79.918    36710.775    18780.909     6386.888        8.024        3.094      314.049       94.306        0.090      344.053       20.598      857.897
05/30/2014  19:58:00     -349.743     -101.957        2.119      174.592      125.633       78.603    30482.344    15783.634     6178.504        9.257        2.622      364.301       84.012        0.053      344.033       20.562      857.911
05/30/2014  19:59:00     -242.723      -68.745      -11.198      124.786      103.845       66.529    15571.526    10783.683     4426.169        4.727        1.539      252.271       60.975        0.058      344.030       20.557      857.912
05/30/2014  20:00:00     -410.270      -63.409       -3.572      162.011      129.029       79.461    26247.503    16648.555     6313.974       11.077        2.461      415.141       73.421        0.031      344.020       20.541      857.931
05/30/2014  20:01:00     -450.042     -105.390      -19.406      172.541      155.270       77.745    29770.307    24108.649     6044.260       13.696        2.996      462.217       86.584        0.035      344.022       20.543      857.964
05/30/2014  20:02:00     -314.156      -98.568       -8.196      159.057      113.945       74.168    25299.013    12983.404     5500.906        7.612        2.189      329.256       80.170        0.059      343.982       20.475      857.984
05/30/2014  20:03:00     -367.604      -41.085      -26.537      160.831      136.400       59.260    25866.693    18604.919     3511.716        9.274        2.399      369.893       62.178        0.028      343.984       20.479      857.993
05/30/2014  20:04:00     -423.277     -101.697      -15.890      174.734      112.260       74.456    30531.984    12602.227     5543.673       11.921        2.434      435.323       78.691        0.033      343.956       20.429      857.975
05/30/2014  20:05:00     -571.512       33.095      -39.238      198.286      176.537       81.584    39317.232    31165.299     6655.987       20.318        3.857      572.469       87.647        0.023      343.944       20.410      857.949
05/30/2014  20:06:00     -485.004     -153.667      -20.533      147.004      141.786       73.265    21610.149    20103.221     5367.793       15.316        2.354      508.766       64.152        0.016      343.912       20.355      857.974
05/30/2014  20:07:00     -374.116      -73.047      -19.765      216.342      127.804       83.684    46803.967    16333.983     7002.954       10.790        3.507      381.181      102.711        0.073      343.900       20.334      858.026
05/30/2014  20:08:00     -408.741      -83.483      -18.501      250.304      109.815       81.769    62651.900    12059.291     6686.211       12.787        4.070      417.180       98.370        0.056      343.902       20.338      858.061
05/30/2014  20:09:00     -351.587      -18.243       -8.661      174.989      126.599       75.359    30621.136    16027.415     5679.034        8.816        2.616      352.059       83.543        0.056      343.883       20.306      858.091
05/30/2014  20:10:00     -575.900      -39.554      -47.848      166.132       97.961       68.212    27599.766     9596.317     4652.942       18.867        2.092      577.257       56.294        0.010      343.911       20.353      858.097
05/30/2014  20:11:00     -293.130      -89.677       -7.478      205.447      168.171       78.688    42208.559    28281.344     6191.758        8.534        3.834      306.541       88.438        0.083      343.858       20.265      858.072
05/30/2014  20:12:00     -438.577      -68.488      -40.416      166.444      112.545       78.024    27703.701    12666.337     6087.799       12.256        2.323      443.892       83.826        0.036      343.843       20.237      858.085
05/30/2014  20:13:00     -509.393      -10.806      -45.714      134.956      112.238       71.210    18213.046    12597.479     5070.867       14.878        1.794      509.508       70.293        0.019      343.844       20.239      858.100
05/30/2014  20:14:00     -417.422      -48.615      -33.101      147.699      153.961       70.049    21815.036    23703.873     4906.862       11.405        2.521      420.244       70.122        0.028      343.807       20.176      858.105
05/30/2014  20:15:00     -439.355      -47.253      -34.033      170.931      147.187       73.854    29217.500    21663.978     5454.341       12.637        2.817      441.888       68.385        0.024      343.769       20.111      858.120
05/30/2014  20:16:00     -451.600      -20.010      -26.871      198.687      127.700       79.939    39476.435    16307.368     6390.320       13.361        3.109      452.043       88.242        0.038      343.755       20.087      858.122
05/30/2014  20:17:00     -361.166      -37.129       -2.767      196.188      161.452       99.255    38489.583    26066.750     9851.621       10.310        3.720      363.069      110.400        0.092      343.749       20.076      858.119
05/30/2014  20:18:00     -418.137     -132.037       -6.037      185.083      176.123       90.301    34255.872    31019.360     8154.281       13.285        3.671      438.489       88.717        0.041      343.718       20.023      858.137
05/30/2014  20:19:00     -414.478     -101.961      -13.114      167.054      138.773       70.088    27907.082    19257.903     4912.274       11.721        2.604      426.835       69.021        0.026      343.701       19.993      858.165
05/30/2014  20:20:00     -407.690      -61.465      -15.183      173.912      141.457       85.483    30245.319    20010.140     7307.296       11.388        2.878      412.297       89.966        0.048      343.689       19.974      858.171
05/30/2014  20:21:00     -450.413      -83.891      -30.518      125.952      135.770       60.469    15863.815    18433.461     3656.473       12.439        1.898      458.159       58.070        0.016      343.707       20.002      858.173
05/30/2014  20:22:00     -300.685      -76.680       -9.677      158.831      123.479       69.713    25227.319    15247.067     4859.839        7.085        2.267      310.308       82.851        0.071      343.678       19.955      858.198
05/30/2014  20:23:00     -260.480      -72.239        8.751      208.702      133.479       84.803    43556.730    17816.756     7191.519        7.084        3.428      270.312       95.741        0.125      343.639       19.890      858.196
05/30/2014  20:24:00     -424.352      -59.162      -13.361      213.989       99.149       78.981    45791.380     9830.463     6238.013       12.279        3.093      428.456       86.507        0.041      343.637       19.884      858.218
05/30/2014  20:25:00     -458.792      -75.906      -22.855      182.184      118.998       74.948    33190.933    14160.414     5617.160       13.486        2.648      465.029       83.208        0.032      343.650       19.906      858.217
05/30/2014  20:26:00     -427.780      -21.486      -38.301      132.496       94.680       56.628    17555.235     8964.290     3206.710       10.732        1.486      428.319       61.995        0.021      343.655       19.916      858.222
05/30/2014  20:27:00     -262.710      -82.434       -6.214      107.522       92.513       52.949    11560.908     8558.676     2803.624        4.938        1.146      275.340       53.998        0.038      343.604       19.829      858.232
05/30/2014  20:28:00     -422.902      -46.810      -28.486      212.702      126.289       71.272    45242.314    15948.925     5079.640       12.405        3.314      425.485       89.095        0.044      343.633       19.878      858.225
05/30/2014  20:29:00     -406.347      -43.241      -21.263      139.166      109.493       62.710    19367.118    11988.671     3932.602       10.136        1.764      408.641       64.862        0.025      343.582       19.792      858.222
05/30/2014  20:30:00     -466.585      -75.551      -28.033      281.387      100.112       80.842    79178.876    10022.349     6535.370       15.995        4.787      472.662      119.015        0.063      343.624       19.863      858.231
05/30/2014  20:31:00     -400.275      -79.562      -52.710      119.679      122.349       66.739    14323.054    14969.382     4454.042       10.153        1.687      408.105       50.802        0.015      343.650       19.908      858.223
05/30/2014  20:32:00     -322.924     -109.746       -7.491      116.464      105.614       56.547    13563.806    11154.306     3197.570        7.214        1.396      341.064       61.250        0.032      343.599       19.820      858.247
05/30/2014  20:33:00     -333.385      -88.508      -15.617      164.135      104.279       69.426    26940.399    10874.172     4819.973        8.092        2.132      344.934       69.957        0.041      343.579       19.787      858.246
05/30/2014  20:34:00     -325.235     -121.005      -22.368      102.799       92.502       60.065    10567.729     8556.615     3607.863        7.182        1.137      347.016       50.629        0.021      343.547       19.732      858.254
05/30/2014  20:35:00     -315.399      -57.976       -9.566      164.938      162.304       68.717    27204.557    26342.431     4722.064        8.059        2.913      320.683       75.577        0.056      343.529       19.701      858.272
05/30/2014  20:36:00     -315.039     -121.928       -3.659      154.827      120.171       69.464    23971.312    14441.023     4825.246        7.867        2.162      337.810       65.757        0.038      343.526       19.697      858.251
05/30/2014  20:37:00     -284.249       -6.662      -22.403       99.914      103.513       51.103     9982.886    10714.944     2611.487        5.232        1.165      284.327       42.745        0.023      343.510       19.668      858.254
05/30/2014  20:38:00     -333.214      -65.196      -24.025      104.195       93.196       53.413    10856.511     8685.463     2852.975        6.912        1.120      339.532       48.817        0.021      343.535       19.711      858.223
05/30/2014  20:39:00     -299.241      -15.560       -8.895      171.833      120.312       66.640    29526.706    14474.958     4440.921        6.914        2.422      299.646       72.675        0.059      343.511       19.671      858.221
05/30/2014  20:40:00     -422.478      -82.160      -14.103      163.913      123.917       71.960    26867.543    15355.426     5178.292       11.641        2.370      430.393       79.623        0.034      343.489       19.635      858.239
05/30/2014  20:41:00     -391.865      -34.804      -25.162      155.950      142.279       72.469    24320.416    20243.225     5251.739       10.260        2.491      393.408       74.850        0.036      343.491       19.638      858.247
05/30/2014  20:42:00     -316.195      -61.091       -0.153      146.758      138.769       75.820    21538.023    19256.883     5748.609        7.512        2.327      322.043       77.361        0.058      343.453       19.572      858.246
05/30/2014  20:43:00     -319.932      -46.512       -4.544      191.999      141.826       78.057    36863.642    20114.643     6092.944        8.379        3.154      323.295       74.150        0.053      343.471       19.603      858.228
05/30/2014  20:44:00     -438.784     -107.065       -1.502      205.574      149.476       89.036    42260.470    22343.065     7927.478       13.825        3.627      451.658       98.651        0.048      343.489       19.632      858.228
05/30/2014  20:45:00     -477.828     -109.804      -27.266      153.278      153.932       69.502    23494.255    23695.111     4830.563       14.656        2.601      490.282       78.083        0.025      343.472       19.606      858.246
05/30/2014  20:46:00     -493.693      -89.240      -32.661      210.791      164.350       82.425    44432.750    27011.032     6793.944       16.548        3.912      501.694       84.779        0.029      343.472       19.603      858.236
05/30/2014  20:47:00     -595.337     -136.652      -27.101      241.021      119.944       81.585    58091.238    14386.509     6656.192       22.647        3.957      610.819       97.155        0.025      343.467       19.596      858.220
05/30/2014  20:48:00     -442.816      -43.317      -18.100      158.561      158.467       69.394    25141.490    25111.740     4815.537       12.667        2.753      444.930       65.739        0.022      343.455       19.575      858.231
05/30/2014  20:49:00     -404.387      -91.943      -13.207      172.924      141.585       80.676    29902.573    20046.422     6508.652       11.430        2.823      414.708       76.405        0.034      343.430       19.533      858.236
05/30/2014  20:50:00     -302.034      -39.545      -11.849      178.880      124.032       76.902    31997.980    15383.967     5913.917        7.310        2.665      304.612       86.595        0.081      343.405       19.491      858.268
05/30/2014  20:51:00     -304.420      -75.031      -16.804      133.678      124.789       69.881    17869.903    15572.329     4883.371        6.845        1.916      313.531       73.074        0.054      343.362       19.418      858.276
05/30/2014  20:52:00     -423.129     -108.389        3.107      204.333      145.313       86.997    41752.135    21115.754     7568.413       13.060        3.522      436.791       98.020        0.050      343.371       19.431      858.289
05/30/2014  20:53:00     -322.500      -83.881       -7.425      160.362      117.368       71.502    25715.908    13775.349     5112.469        7.784        2.230      333.231       75.030        0.051      343.339       19.379      858.315
05/30/2014  20:54:00     -473.849      -26.890      -27.720      167.016      160.488       80.833    27894.477    25756.521     6534.028       14.309        3.009      474.612       87.872        0.034      343.393       19.469      858.304
05/30/2014  20:55:00     -474.159      -78.714      -22.053      150.301      119.340       63.137    22590.315    14241.917     3986.305       13.616        2.041      480.648       68.701        0.020      343.356       19.407      858.316
05/30/2014  20:56:00     -466.012      -46.159      -41.696      143.879      162.263       71.289    20701.202    26329.385     5082.086       13.656        2.606      468.292       61.055        0.017      343.345       19.387      858.321
05/30/2014  20:57:00     -435.527      -21.070      -45.084      168.207      129.373       62.989    28293.743    16737.392     3967.583       12.057        2.450      436.037       68.747        0.025      343.324       19.352      858.343
05/30/2014  20:58:00     -300.174      -97.670      -16.893      127.057       99.228       59.131    16143.457     9846.164     3496.494        6.470        1.474      315.664       55.718        0.031      343.279       19.274      858.360
05/30/2014  20:59:00     -426.808     -187.207      -19.782      152.928      118.852       74.958    23386.917    14125.873     5618.683       13.036        2.157      466.060       57.949        0.015      343.232       19.195      858.361
05/30/2014  21:00:00     -362.036      -71.896      -13.924      115.430      121.943       65.109    13324.089    14870.171     4239.205        8.443        1.622      369.106       57.914        0.025      343.199       19.139      858.378
05/30/2014  21:01:00     -383.971     -104.428      -11.880      194.110      134.079       74.249    37678.763    17977.294     5512.849       10.981        3.058      397.918       66.724        0.028      343.190       19.124      858.406
05/30/2014  21:02:00     -380.332      -93.732      -25.541       93.578       96.287       59.706     8756.907     9271.283     3564.748        8.784        1.080      391.712       57.633        0.022      343.234       19.198      858.417
05/30/2014  21:03:00     -288.130      -87.490       -4.846      108.531      134.661       62.637    11778.998    18133.675     3923.348        6.226        1.692      301.120       49.590        0.027      343.235       19.200      858.419
05/30/2014  21:04:00     -360.609      -60.112      -35.252       89.424       97.536       52.956     7996.625     9513.251     2804.341        7.760        1.016      365.585       48.204        0.017      343.193       19.127      858.430
05/30/2014  21:05:00     -361.667      -55.825      -30.043      148.192       97.326       55.022    21961.009     9472.313     3027.409        8.463        1.723      365.950       66.470        0.033      343.164       19.079      858.417
05/30/2014  21:06:00     -327.169      -18.575      -13.324      116.413      121.288       68.588    13551.913    14710.695     4704.296        7.026        1.648      327.696       53.707        0.027      343.172       19.093      858.387
05/30/2014  21:07:00     -321.140      -96.218      -16.914      132.067      123.294       75.272    17441.630    15201.501     5665.837        7.548        1.915      335.244       71.662        0.046      343.123       19.008      858.364
05/30/2014  21:08:00     -369.135      -92.009      -13.395      163.322       94.577       65.539    26673.977     8944.800     4295.387        9.240        1.996      380.429       79.220        0.043      343.147       19.050      858.339
05/30/2014  21:09:00     -375.609     -115.412      -13.482      157.314      123.691       67.733    24747.814    15299.420     4587.814        9.960        2.232      392.940       64.421        0.027      343.102       18.974      858.340
05/30/2014  21:10:00     -388.963     -150.094      -28.172      129.239      102.292       63.214    16702.844    10463.602     3995.977       10.288        1.558      416.918       53.011        0.016      343.127       19.017      858.342
05/30/2014  21:11:00     -354.551     -109.632       -2.873      132.925      115.001       69.789    17669.183    13225.273     4870.440        8.674        1.788      371.114       68.500        0.034      343.119       19.002      858.348
05/30/2014  21:12:00     -411.713      -77.965      -18.877      153.921      115.655       61.370    23691.803    13376.096     3766.283       10.838        2.042      419.030       57.088        0.019      343.147       19.049      858.360
05/30/2014  21:13:00     -313.486      -44.324       -7.031      107.222      112.504       61.265    11496.620    12657.179     3753.444        6.409        1.395      316.604       45.100        0.020      343.087       18.948      858.347
05/30/2014  21:14:00     -353.666      -14.626      -11.373      152.671      123.350       76.076    23308.358    15215.285     5787.630        8.486        2.216      353.968       64.720        0.033      343.082       18.940      858.357
05/30/2014  21:15:00     -472.123      -88.629      -10.899      181.669      156.661       91.603    33003.518    24542.685     8391.174       14.839        3.297      480.370       89.455        0.035      343.105       18.979      858.350
05/30/2014  21:16:00     -390.864      -39.413      -14.377      196.140      136.780       88.819    38471.078    18708.772     7888.816       10.979        3.253      392.846      103.430        0.069      343.101       18.973      858.355
05/30/2014  21:17:00     -374.762      -52.953       -1.872      193.014      114.337       81.176    37254.232    13072.879     6589.497       10.007        2.846      378.484       84.271        0.050      343.123       19.010      858.385
05/30/2014  21:18:00     -422.617      -54.095      -16.327      215.463      144.605       87.560    46424.342    20910.575     7666.668       12.838        3.750      426.065      107.194        0.063      343.123       19.009      858.412
05/30/2014  21:19:00     -395.060     -103.838      -14.709      190.651      129.964       87.431    36347.905    16890.671     7644.180       11.396        3.044      408.479       91.798        0.051      343.134       19.028      858.436
05/30/2014  21:20:00     -274.385       -8.005       -5.993      139.252      152.863       78.950    19391.187    23367.156     6233.156        6.218        2.450      274.502       70.761        0.066      343.071       18.920      858.428
05/30/2014  21:21:00     -465.679      -56.007      -19.787      219.948      190.516       84.673    48376.948    36296.524     7169.588       15.610        4.592      469.035       95.675        0.042      343.092       18.956      858.447
05/30/2014  21:22:00     -466.356      -49.214      -28.351      228.939      155.379       92.285    52412.935    24142.751     8516.497       15.288        4.254      468.945      102.356        0.048      343.093       18.959      858.453
05/30/2014  21:23:00     -469.290        7.460      -31.536      187.754      118.585       74.801    35251.399    14062.515     5595.167       13.809        2.745      469.350       86.711        0.034      343.073       18.925      858.499
05/30/2014  21:24:00     -504.617      -64.602      -42.843      262.147      134.111       84.261    68721.149    17985.747     7099.858       17.721        4.690      508.736      107.141        0.044      343.087       18.947      858.504
05/30/2014  21:25:00     -509.608     -128.908      -26.619      248.855      158.368       93.830    61928.801    25080.278     8804.138       18.640        4.791      525.659      118.439        0.051      343.042       18.872      858.515
05/30/2014  21:26:00     -497.259      -75.500      -20.712      212.338      139.662       99.406    45087.355    19505.565     9881.465       16.392        3.724      502.958      116.827        0.054      343.010       18.817      858.509
05/30/2014  21:27:00     -424.360      -85.955      -29.051      149.420      121.865       67.583    22326.365    14851.160     4567.465       11.502        2.087      432.977       72.305        0.028      343.020       18.834      858.519
05/30/2014  21:28:00     -294.004      -38.685       -9.671      137.069      122.310       65.997    18788.006    14959.748     4355.567        6.306        1.905      296.539       68.964        0.054      342.971       18.750      858.533
05/30/2014  21:29:00     -238.203      -48.249        5.514      132.748       96.285       64.729    17621.918     9270.821     4189.819        4.508        1.554      243.040       55.097        0.051      342.919       18.662      858.560
05/30/2014  21:30:00     -285.008      -75.642        6.084      175.082      131.684       71.977    30653.800    17340.600     5180.749        7.007        2.659      294.875       75.579        0.066      342.925       18.673      858.574
05/30/2014  21:31:00     -263.521      -84.977       -1.033      189.026      107.392       79.144    35730.705    11533.128     6263.781        6.509        2.676      276.883       88.609        0.102      342.887       18.609      858.595
05/30/2014  21:32:00     -161.557      -34.554       10.241      117.896       94.415       68.517    13899.485     8914.251     4694.512        2.745        1.375      165.211       57.281        0.120      342.857       18.557      858.605
05/30/2014  21:33:00     -435.049       47.364      -34.239      220.743      138.669       77.587    48727.625    19228.985     6019.706       13.331        3.699      437.620       74.410        0.029      342.904       18.637      858.595
05/30/2014  21:34:00     -360.165      -65.607      -24.444      131.986      120.043       69.124    17420.367    14410.318     4778.059        8.561        1.830      366.092       63.950        0.031      342.858       18.560      858.611
05/30/2014  21:35:00     -500.094      -82.750      -38.614      164.547      161.705       88.316    27075.668    26148.453     7799.747       15.972        3.051      506.894       92.202        0.033      342.888       18.611      858.597
05/30/2014  21:36:00     -439.030     -101.101      -29.882      232.464      123.046       86.512    54039.654    15140.371     7484.397       14.025        3.833      450.521       96.866        0.046      342.876       18.588      858.600
05/30/2014  21:37:00     -526.752     -107.357      -34.921      202.080      134.486       69.039    40836.135    18086.574     4766.317       17.694        3.184      537.581       79.518        0.022      342.867       18.574      858.605
05/30/2014  21:38:00     -465.020     -109.438      -15.270      198.150      132.312       89.216    39263.562    17506.402     7959.486       14.658        3.236      477.724      108.125        0.051      342.823       18.499      858.611
05/30/2014  21:39:00     -416.557      -27.849      -13.278      193.798      127.198       74.482    37557.729    16179.388     5547.535       11.687        2.964      417.487       94.092        0.051      342.835       18.518      858.633
05/30/2014  21:40:00     -317.199       -4.512      -16.996      204.788       92.446       68.279    41938.241     8546.248     4661.981        7.802        2.757      317.231       94.406        0.089      342.799       18.457      858.661
05/30/2014  21:41:00     -259.993      -42.536      -19.163      121.817      109.944       63.836    14839.325    12087.662     4075.027        5.038        1.550      263.450       56.668        0.046      342.801       18.462      858.675
05/30/2014  21:42:00     -350.432      -89.716        8.256      256.536      143.702       99.733    65810.493    20650.170     9946.718       11.364        4.820      361.735      131.185        0.132      342.810       18.476      858.672
05/30/2014  21:43:00     -348.997     -137.277      -24.611      163.702      142.930       62.907    26798.497    20429.020     3957.278        9.621        2.559      375.025       71.659        0.037      342.827       18.506      858.685
05/30/2014  21:44:00     -362.823      -77.909       -6.183      178.137      118.557       74.373    31732.741    14055.726     5531.416        9.452        2.566      371.093       82.330        0.049      342.797       18.456      858.702
05/30/2014  21:45:00     -345.402      -42.081      -11.248      242.335      120.787       75.968    58726.038    14589.522     5771.091       10.013        3.954      347.956       87.780        0.064      342.790       18.443      858.697
05/30/2014  21:46:00     -345.363      -98.414      -11.053      157.629      130.424       75.550    24846.873    17010.449     5707.806        8.831        2.378      359.111       76.972        0.046      342.774       18.417      858.701
05/30/2014  21:47:00     -308.594      -37.851       -0.799      161.194      127.360       70.153    25983.564    16220.623     4921.498        7.189        2.356      310.907       70.627        0.052      342.783       18.431      858.722
05/30/2014  21:48:00     -295.238      -89.700       -9.535      167.997      133.375       68.212    28223.042    17788.898     4652.902        7.297        2.533      308.564       73.464        0.057      342.745       18.367      858.733
05/30/2014  21:49:00     -465.813      -35.905      -29.308      187.744      134.530       85.296    35247.765    18098.372     7275.445       13.986        3.031      467.195       83.770        0.032      342.779       18.424      858.743
05/30/2014  21:50:00     -436.067      -84.567      -27.705      148.985      139.002       83.669    22196.601    19321.647     7000.466       12.329        2.426      444.191       84.301        0.036      342.764       18.398      858.758
05/30/2014  21:51:00     -265.110     -111.946       -1.400      130.345      110.434       61.519    16989.739    12195.641     3784.642        5.789        1.649      287.776       54.110        0.035      342.760       18.392      858.784
05/30/2014  21:52:00     -303.518      -96.694      -14.050      183.625      131.026       70.731    33718.295    17167.925     5002.874        7.877        2.794      318.548       86.823        0.074      342.741       18.359      858.809
05/30/2014  21:53:00     -436.884      -83.892      -11.993      171.626      132.958       72.064    29455.481    17677.812     5193.206       12.518        2.616      444.865       82.499        0.034      342.780       18.426      858.826
05/30/2014  21:54:00     -336.426       -0.045      -27.014      186.428      118.076       70.827    34755.263    13942.004     5016.525        8.380        2.686      336.426       81.532        0.059      342.764       18.400      858.825
05/30/2014  21:55:00     -163.382      -18.343       15.324      144.213      106.293       61.348    20797.415    11298.236     3763.554        3.155        1.793      164.409       75.765        0.212      342.678       18.255      858.852
05/30/2014  21:56:00     -229.198      -85.115      -17.893      101.953       73.550       44.747    10394.501     5409.540     2002.261        3.895        0.890      244.492       47.644        0.038      342.745       18.366      858.858
05/30/2014  21:57:00     -179.252     -111.638        7.493      123.300      121.982       63.262    15202.965    14879.709     4002.094        3.936        1.704      211.173       69.231        0.107      342.698       18.286      858.869
05/30/2014  21:58:00     -192.460      -90.271       -4.530      142.262       93.962       66.615    20238.583     8828.820     4437.553        3.935        1.675      212.579       64.243        0.091      342.719       18.321      858.882
05/30/2014  21:59:00     -210.288     -101.459       -7.016      101.047       91.020       42.054    10210.469     8284.603     1768.545        3.741        1.013      233.485       39.188        0.028      342.682       18.260      858.918
05/30/2014  22:00:00     -301.064      -96.522      -19.025      161.023       98.612       64.243    25928.261     9724.277     4127.198        7.004        1.989      316.158       76.882        0.059      342.690       18.272      858.939
05/30/2014  22:01:00     -250.557      -46.331       -4.739      111.181      100.924       50.871    12361.312    10185.623     2587.859        4.504        1.257      254.804       48.325        0.036      342.718       18.319      858.968
05/30/2014  22:02:00     -144.221      -57.461       -7.511       94.755       94.217       50.765     8978.569     8876.785     2577.080        2.229        1.022      155.246       44.822        0.083      342.715       18.316      859.012
05/30/2014  22:03:00     -165.266      -41.463        0.529      114.646       87.722       49.136    13143.672     7695.219     2414.299        2.614        1.163      170.388       43.302        0.065      342.673       18.246      859.024
05/30/2014  22:04:00     -227.557      -46.659       -9.995      113.511       94.296       53.812    12884.757     8891.723     2895.785        3.936        1.234      232.291       60.579        0.068      342.720       18.324      859.051
05/30/2014  22:05:00      -89.151       11.085        0.940       64.842       65.002       34.397     4204.427     4225.319     1183.152        0.884        0.481       89.837       19.330        0.046      342.700       18.293      859.041
05/30/2014  22:06:00      -16.048        5.146       13.148       78.656       68.628       38.240     6186.788     4709.779     1462.261        0.641        0.618       16.853       29.969        3.162      342.596       18.117      859.047
05/30/2014  22:07:00     -107.110      -96.876       -3.916       76.713       62.550       34.604     5884.914     3912.442     1197.456        1.593        0.550      144.422       30.978        0.046      342.665       18.232      859.090
05/30/2014  22:08:00      -15.530       62.185       18.326       59.870       63.191       40.574     3584.381     3993.112     1646.284        0.683        0.461       64.095       38.076        0.353      342.518       17.983      859.124
05/30/2014  22:09:00      -79.225       63.799       38.807      117.978       56.043       48.723    13918.763     3140.796     2373.964        1.564        0.972      101.720       56.061        0.304      342.585       18.095      859.144
05/30/2014  22:10:00      -82.839       27.706       19.764       97.025       44.580       41.060     9413.875     1987.396     1685.934        1.055        0.654       87.349       46.321        0.281      342.607       18.134      859.190
05/30/2014  22:11:00      142.438       89.830       21.232       56.739       41.058       43.886     3219.367     1685.742     1925.984        1.782        0.342      168.399       26.002        0.024      342.487       17.930      859.215
05/30/2014  22:12:00       83.276       78.735       23.458       53.491       38.226       42.949     2861.236     1461.198     1844.617        0.992        0.308      114.604       24.470        0.046      342.449       17.866      859.228
05/30/2014  22:13:00       24.674       -4.634       29.421       31.413       48.482       34.569      986.754     2350.460     1194.983        0.301        0.227       25.105       35.807        2.034      342.119       17.304      859.240
05/30/2014  22:14:00      -22.051       36.914        9.274       27.491       29.201       28.914      755.731      852.679      836.036        0.219        0.122       42.999       18.522        0.186      342.021       17.138      859.243
05/30/2014  22:15:00       83.962       23.314       26.797       82.046       40.766       38.233     6731.584     1661.899     1461.731        0.908        0.493       87.139       39.373        0.204      341.980       17.069      859.241
05/30/2014  22:16:00       46.931       58.101       59.489       67.074       56.067       52.171     4498.880     3143.465     2721.763        0.974        0.518       74.687       41.992        0.316      342.049       17.186      859.224
05/30/2014  22:17:00       20.049       -6.712       35.816       48.808       46.173       29.015     2382.197     2131.945      841.875        0.354        0.268       21.143       11.456        0.294      341.769       16.712      859.257
05/30/2014  22:18:00      109.376       83.747       23.377       51.330       42.650       35.163     2634.753     1818.993     1236.462        1.261        0.285      137.756       18.211        0.017      342.097       17.269      859.272
05/30/2014  22:19:00       92.846       53.307       29.508       48.111       40.753       30.859     2314.677     1660.820      952.283        0.863        0.246      107.061       24.463        0.052      342.082       17.242      859.268
05/30/2014  22:20:00       39.219       26.255       33.418       48.516       37.756       25.908     2353.765     1425.520      671.250        0.390        0.223       47.196        2.431        0.003      341.900       16.935      859.287
05/30/2014  22:21:00       22.115        4.186       10.943       23.903       24.958       17.887      571.343      622.920      319.946        0.107        0.076       22.508       14.184        0.397      341.810       16.782      859.309
05/30/2014  22:22:00       31.479       -4.963        7.258       32.367       23.533       22.174     1047.646      553.795      491.678        0.158        0.105       31.868       17.441        0.300      341.692       16.582      859.326
05/30/2014  22:23:00       68.313       -8.701       -2.160       28.000       28.899       26.701      783.986      835.153      712.929        0.354        0.117       68.864       17.820        0.067      341.797       16.759      859.348
05/30/2014  22:24:00       13.988        1.750       10.932       16.837       18.214       14.031      283.500      331.757      196.877        0.057        0.041       14.097        7.773        0.304      341.669       16.541      859.369
05/30/2014  22:25:00       51.883      -13.000      -15.665       14.363       22.433       25.397      206.293      503.229      645.014        0.223        0.068       53.487       12.885        0.058      341.962       17.038      859.374
05/30/2014  22:26:00       59.021      -11.508        6.834       23.642       25.081       23.302      558.959      629.039      542.961        0.270        0.087       60.132        6.392        0.011      342.073       17.228      859.371
05/30/2014  22:27:00       47.442      -11.759       25.078       46.684       43.316       25.155     2179.390     1876.278      632.778        0.385        0.234       48.877       29.323        0.360      341.589       16.408      859.379
05/30/2014  22:28:00       62.707       -7.473        4.639       31.778       27.355       25.147     1009.833      748.292      632.392        0.320        0.120       63.151       15.657        0.061      341.760       16.697      859.391
05/30/2014  22:29:00       46.846       27.028       11.681       27.727       29.432       20.509      768.778      866.224      420.636        0.256        0.103       54.084        8.318        0.024      341.649       16.510      859.378
05/30/2014  22:30:00       11.952      -35.328       -1.219       30.371       43.350       29.787      922.403     1879.264      887.236        0.254        0.184       37.295       19.755        0.281      341.462       16.191      859.365
05/30/2014  22:31:00       62.181      -58.920        3.129       41.948       42.309       34.179     1759.600     1790.065     1168.227        0.603        0.236       85.662       27.103        0.100      341.433       16.143      859.365
05/30/2014  22:32:00       43.891      -16.067        3.514       62.813       38.727       30.803     3945.434     1499.760      948.816        0.429        0.320       46.739       34.650        0.550      341.699       16.592      859.374
05/30/2014  22:33:00        0.918      -48.686        8.778       32.735       48.865       30.598     1071.558     2387.762      936.256        0.342        0.220       48.695       28.178        0.335      342.164       17.384      859.388
05/30/2014  22:34:00       -2.882      -21.885        3.049       51.281       36.164       22.756     2629.751     1307.838      517.830        0.248        0.223       22.074       21.124        0.916      342.204       17.449      859.392
05/30/2014  22:35:00      -20.237      -45.236        8.568       68.108       33.330       28.651     4638.661     1110.874      820.891        0.455        0.329       49.556       10.673        0.046      342.176       17.402      859.407
05/30/2014  22:36:00        7.957      -69.092      -10.999       32.662       23.050       19.991     1066.793      531.309      399.652        0.348        0.100       69.549       17.940        0.067      342.365       17.724      859.418
05/30/2014  22:37:00      -73.247      -54.964        1.387       38.631       43.580       19.316     1492.375     1899.239      373.090        0.608        0.188       91.576       20.319        0.049      342.550       18.037      859.417
05/30/2014  22:38:00      -27.773      -28.629        2.047       15.966       20.496       13.763      254.902      420.090      189.410        0.123        0.043       39.887        9.293        0.054      342.585       18.097      859.415
05/30/2014  22:39:00      -40.331       -1.432       10.465       25.786       16.714       16.579      664.934      279.372      274.854        0.148        0.061       40.356       12.224        0.092      342.518       17.983      859.415
05/30/2014  22:40:00      -51.580      -23.230        5.813       27.546       23.020       20.410      758.764      529.913      416.587        0.247        0.085       56.569       18.853        0.111      342.419       17.814      859.414
05/30/2014  22:41:00      -45.286      -49.044       -4.678       31.469       27.477       20.077      990.277      755.003      403.097        0.331        0.107       66.754       10.712        0.026      342.075       17.232      859.408
05/30/2014  22:42:00      -77.341      -11.414        6.324       41.550       19.186       17.640     1726.378      368.121      311.154        0.428        0.120       78.179       18.646        0.057      342.192       17.429      859.409
05/30/2014  22:43:00      -93.513      -18.373       -4.905       32.558       24.662       17.035     1060.026      608.200      290.208        0.553        0.098       95.300       13.874        0.021      342.328       17.660      859.403
05/30/2014  22:44:00     -113.686      -33.928       -2.832       51.377       37.328       22.054     2639.631     1393.400      486.361        0.930        0.226      118.641       26.356        0.049      342.297       17.608      859.393
05/30/2014  22:45:00      -75.871      -46.086        0.938       51.448       28.970       17.884     2646.887      839.284      319.850        0.584        0.190       88.771       19.402        0.048      342.312       17.635      859.370
05/30/2014  22:46:00     -119.309      -25.491        1.681       63.113       41.722       23.811     3983.271     1740.740      566.950        1.059        0.315      122.002       24.127        0.039      342.251       17.530      859.365
05/30/2014  22:47:00     -142.012       -2.514       -2.693       74.408       37.860       32.948     5536.556     1433.380     1085.583        1.412        0.403      142.034       37.564        0.070      342.072       17.225      859.366
05/30/2014  22:48:00     -197.556      -13.907      -20.970       35.473       53.846       25.350     1258.347     2899.346      642.647        2.223        0.240      198.045       25.595        0.017      342.413       17.804      859.354
05/30/2014  22:49:00     -265.458       -9.961      -28.254       82.839       63.301       32.591     6862.331     4007.060     1062.195        4.165        0.597      265.644       31.214        0.014      342.470       17.900      859.335
05/30/2014  22:50:00     -188.850        0.282      -16.807       90.358       71.027       40.438     8164.554     5044.785     1635.196        2.539        0.742      188.850       40.890        0.047      342.512       17.972      859.331
05/30/2014  22:51:00     -142.191      -43.493       -3.149       89.838       43.950       40.396     8070.922     1931.593     1631.822        1.687        0.582      148.694       46.944        0.100      342.420       17.815      859.338
05/30/2014  22:52:00     -130.121      -13.565        0.155       53.822       39.302       32.648     2896.824     1544.610     1065.908        1.131        0.275      130.826       30.895        0.056      342.183       17.414      859.363
05/30/2014  22:53:00      -91.379      -57.159        7.326       59.079       37.260       24.439     3490.297     1388.296      597.243        0.857        0.274      107.783       21.641        0.040      342.214       17.468      859.385
05/30/2014  22:54:00     -125.360      -38.540       -6.864       28.172       31.928       18.329      793.666     1019.393      335.944        0.970        0.107      131.150       13.405        0.010      342.226       17.487      859.398
05/30/2014  22:55:00     -155.582      -31.488       -5.217       59.933       55.066       28.366     3591.932     3032.306      804.643        1.633        0.371      158.736       31.608        0.040      342.286       17.587      859.408
05/30/2014  22:56:00     -124.823       34.126      -14.839       31.335       32.953       18.475      981.861     1085.916      341.340        0.969        0.120      129.404        8.396        0.004      342.364       17.722      859.420
05/30/2014  22:57:00       -0.014       -0.375        3.257       38.023       19.256       17.839     1445.752      370.777      318.248        0.107        0.107        0.375       22.730     3675.064      342.127       17.320      859.419
05/30/2014  22:58:00      -85.223       -9.399       -5.852       77.839       36.433       23.682     6058.965     1327.368      560.833        0.766        0.397       85.740       24.445        0.081      342.129       17.323      859.418
05/30/2014  22:59:00     -123.310      -35.236       -1.205       53.947       41.486       29.839     2910.232     1721.090      890.357        1.098        0.276      128.246       25.160        0.038      342.225       17.485      859.425
05/30/2014  23:00:00      -95.502      -11.895       -4.796       28.810       28.199       17.657      829.999      795.200      311.756        0.561        0.097       96.240       11.047        0.013      342.203       17.447      859.433
05/30/2014  23:01:00      -83.643      -47.200        0.628       53.039       28.320       20.368     2813.139      802.026      414.867        0.663        0.202       96.042       18.912        0.039      342.119       17.305      859.439
05/30/2014  23:02:00      -70.715      -49.318        2.972       52.982       30.563       17.501     2807.042      934.113      306.284        0.574        0.202       86.214       16.152        0.035      342.201       17.445      859.450
05/30/2014  23:03:00      -26.122     -101.961       19.871       45.316       73.695       27.625     2053.530     5430.924      763.148        0.986        0.412      105.254       29.504        0.079      342.347       17.693      859.441
05/30/2014  23:04:00      -56.716      -57.019        7.143       57.784       54.605       25.200     3339.027     2981.718      635.018        0.674        0.348       80.423       24.337        0.092      342.264       17.551      859.418
05/30/2014  23:05:00      -85.393      -87.304        3.471       67.226       75.325       35.899     4519.379     5673.781     1288.747        1.320        0.574      122.123       33.450        0.075      342.188       17.423      859.393
05/30/2014  23:06:00     -126.627      -40.201        2.901       59.708       45.593       28.449     3565.080     2078.679      809.347        1.205        0.323      132.856       30.251        0.052      342.109       17.287      859.378
05/30/2014  23:07:00      -74.885      -55.193       11.933       48.120       67.858       27.787     2315.503     4604.773      772.119        0.824        0.385       93.027       33.994        0.134      342.073       17.228      859.384
05/30/2014  23:08:00     -252.137     -131.669      -11.369      107.643       57.218       44.248    11587.015     3273.935     1957.892        4.893        0.841      284.447       52.196        0.034      342.171       17.392      859.396
05/30/2014  23:09:00      -82.772     -112.496        9.574       82.890       80.965       46.241     6870.770     6555.375     2138.188        1.758        0.778      139.666       46.362        0.110      342.119       17.305      859.409
05/30/2014  23:10:00     -157.077      -96.643        4.977       96.938       53.681       42.793     9397.015     2881.652     1831.227        2.407        0.705      184.426       38.409        0.043      342.102       17.275      859.406
05/30/2014  23:11:00     -116.098      -91.172        4.373       71.372       64.062       36.654     5094.005     4103.970     1343.490        1.617        0.527      147.618       33.043        0.050      342.117       17.300      859.401
05/30/2014  23:12:00     -134.745     -132.920        0.357       82.229       53.504       29.423     6761.559     2862.642      865.716        2.315        0.524      189.272       33.739        0.032      342.203       17.445      859.386
05/30/2014  23:13:00     -159.778     -100.102        5.135       75.283       60.777       38.085     5667.592     3693.886     1450.495        2.319        0.541      188.546       39.820        0.045      342.100       17.272      859.381
05/30/2014  23:14:00     -206.980      -77.058      -12.538       69.988       64.830       31.298     4898.370     4202.987      979.551        2.951        0.504      220.859       27.941        0.016      342.111       17.288      859.376
05/30/2014  23:15:00      -90.027      -88.895        1.041       93.032       74.362       38.222     8654.957     5529.679     1460.915        1.582        0.782      126.519       48.680        0.148      342.069       17.219      859.373
05/30/2014  23:16:00      -99.301     -111.472        6.510       78.704       64.392       36.500     6194.347     4146.267     1332.272        1.700        0.584      149.287       17.934        0.014      342.083       17.243      859.373
05/30/2014  23:17:00     -150.890     -123.226       10.199       83.790       81.335       46.753     7020.726     6615.307     2185.885        2.694        0.791      194.813       41.246        0.045      342.032       17.154      859.370
05/30/2014  23:18:00     -180.991     -127.098      -10.552       93.584       72.552       45.110     8758.042     5263.770     2034.937        3.254        0.803      221.160       42.436        0.037      342.017       17.130      859.354
05/30/2014  23:19:00     -157.363     -131.614       -1.168       98.758       79.132       48.564     9753.123     6261.933     2358.439        3.023        0.919      205.147       44.208        0.046      342.001       17.103      859.360
05/30/2014  23:20:00     -187.475     -103.442        8.509      106.198       72.789       45.100    11278.055     5298.279     2034.029        3.226        0.931      214.119       50.738        0.056      342.006       17.111      859.368
05/30/2014  23:21:00     -206.328      -36.004       -9.241      115.252       89.460       56.782    13283.071     8003.018     3224.186        3.423        1.226      209.446       70.339        0.113      342.057       17.197      859.384
05/30/2014  23:22:00     -192.768      -69.227      -15.619      102.417       62.711       40.325    10489.247     3932.622     1626.120        2.912        0.802      204.822       38.979        0.036      342.068       17.217      859.374
05/30/2014  23:23:00     -209.788      -60.325       -1.200       95.658       89.439       51.092     9150.458     7999.342     2610.403        3.370        0.988      218.289       47.106        0.047      342.048       17.183      859.363
05/30/2014  23:24:00     -347.268     -160.258      -20.520      149.369      121.317       67.629    22311.088    14717.889     4573.721        9.414        2.080      382.463       71.901        0.035      342.148       17.351      859.355
05/30/2014  23:25:00     -200.012      -59.378        2.025      113.067       72.245       49.050    12784.119     5219.406     2405.941        3.197        1.020      208.640       54.389        0.068      342.010       17.119      859.367
05/30/2014  23:26:00      -94.065      -98.601        7.827       95.563       91.348       55.232     9132.270     8344.427     3050.617        1.958        1.026      136.273       61.469        0.203      342.070       17.221      859.379
05/30/2014  23:27:00     -148.665      -78.683       -1.883       99.135       63.966       39.401     9827.791     4091.696     1552.430        2.188        0.774      168.203       37.490        0.050      342.056       17.196      859.377
05/30/2014  23:28:00     -215.846     -132.201       -6.021      134.495       87.971       55.872    18088.788     7738.950     3121.735        4.652        1.447      253.114       61.996        0.060      342.076       17.231      859.371
05/30/2014  23:29:00     -329.639     -115.112       -9.968      144.860       96.922       58.827    20984.326     9393.854     3460.653        7.792        1.692      349.160       61.182        0.031      342.105       17.279      859.378
05/30/2014  23:30:00     -119.121      -98.668        3.933      105.176       93.260       54.227    11061.967     8697.337     2940.576        2.332        1.135      154.678       62.176        0.162      342.086       17.249      859.385
05/30/2014  23:31:00     -134.123     -153.869       10.842      110.573      115.499       62.662    12226.340    13340.013     3926.470        3.563        1.475      204.119       65.957        0.104      342.100       17.271      859.385
05/30/2014  23:32:00     -272.566      -41.072      -17.657       99.306       67.044       54.018     9861.674     4494.884     2917.949        4.678        0.864      275.643       53.177        0.037      342.113       17.292      859.376
05/30/2014  23:33:00     -128.922     -110.634       -2.867       99.930       76.591       53.738     9986.080     5866.208     2887.804        2.380        0.937      169.884       51.298        0.091      342.056       17.197      859.381
05/30/2014  23:34:00     -181.971     -117.473        2.544      117.810       99.569       59.741    13879.157     9914.044     3568.991        3.714        1.368      216.595       59.479        0.075      342.065       17.213      859.373
05/30/2014  23:35:00     -220.808     -138.398       -1.052      122.673      106.611       55.533    15048.600    11365.931     3083.893        4.870        1.475      260.596       67.335        0.067      342.049       17.185      859.357
05/30/2014  23:36:00     -261.571     -164.356       -9.756      102.300       71.987       59.939    10465.221     5182.185     3592.679        5.738        0.962      308.921       58.992        0.036      342.037       17.163      859.355
05/30/2014  23:37:00     -181.073     -140.762       10.116      101.173      119.087       62.731    10235.924    14181.776     3935.161        4.052        1.418      229.350       57.605        0.063      342.046       17.178      859.347
05/30/2014  23:38:00     -143.345      -91.649       -0.884       84.220       89.638       42.198     7093.069     8034.959     1780.646        2.293        0.845      170.139       41.622        0.060      342.046       17.179      859.358
05/30/2014  23:39:00     -177.225      -88.730       17.363      152.927      108.560       72.392    23386.713    11785.184     5240.642        3.999        2.021      198.196       81.533        0.169      342.032       17.155      859.349
05/30/2014  23:40:00     -252.962      -40.724        3.984       91.675       80.632       52.681     8404.352     6501.517     2775.328        4.167        0.884      256.219       43.957        0.029      342.033       17.157      859.356
05/30/2014  23:41:00     -332.142     -144.416      -33.610       92.949      101.037       53.187     8639.476    10208.521     2828.836        7.699        1.084      362.180       45.068        0.015      342.134       17.327      859.360
05/30/2014  23:42:00     -124.143      -78.127       11.233      108.369       87.932       58.425    11743.889     7731.991     3413.496        2.226        1.144      146.681       57.555        0.154      342.039       17.167      859.358
05/30/2014  23:43:00     -105.510      -56.814       12.200       86.655       79.204       43.079     7509.172     6273.303     1855.769        1.507        0.782      119.834       43.755        0.133      341.986       17.078      859.365
05/30/2014  23:44:00     -161.527     -106.704       -0.089       96.863      101.678       57.706     9382.484    10338.383     3329.969        3.026        1.153      193.589       61.566        0.101      341.973       17.055      859.375
05/30/2014  23:45:00     -222.782     -103.350       -7.191       78.074       77.132       47.763     6095.506     5949.327     2281.293        3.734        0.716      245.587       46.463        0.036      342.016       17.127      859.414
05/30/2014  23:46:00     -179.488      -16.958       -7.233      115.826       61.649       32.245    13415.578     3800.608     1039.713        2.540        0.913      180.288       41.427        0.053      342.004       17.109      859.430
05/30/2014  23:47:00     -205.507      -83.630       -1.867       98.052       83.443       47.599     9614.188     6962.756     2265.699        3.403        0.942      221.872       55.128        0.062      341.987       17.078      859.439
05/30/2014  23:48:00     -180.261      -96.387       -7.343       74.802       56.489       36.766     5595.374     3191.013     1351.767        2.599        0.507      204.413       34.724        0.029      342.033       17.159      859.458
05/30/2014  23:49:00     -184.692      -19.918        5.268      112.990      113.225       50.605    12766.656    12819.957     2560.832        3.134        1.407      185.763       40.807        0.048      342.021       17.137      859.454
05/30/2014  23:50:00      -82.685      -53.799        5.134      100.823       50.424       34.789    10165.276     2542.623     1210.286        1.184        0.696       98.647       44.686        0.205      341.974       17.057      859.461
05/30/2014  23:51:00     -102.205      -13.818       -3.186       64.094       50.855       34.794     4108.096     2586.192     1210.648        0.927        0.395      103.135       32.925        0.102      341.950       17.018      859.474
05/30/2014  23:52:00       -1.031      -16.132       21.393       46.525       33.898       31.484     2164.588     1149.083      991.239        0.251        0.215       16.165       26.232        2.633      341.687       16.573      859.493
05/30/2014  23:53:00      -26.332       31.260       17.008       69.624       42.921       31.061     4847.464     1842.202      964.775        0.481        0.383       40.873       27.673        0.458      341.585       16.399      859.505
05/30/2014  23:54:00     -116.211       35.076       -4.678       70.857       39.856       31.784     5020.683     1588.494     1010.239        1.119        0.381      121.389       13.890        0.013      342.055       17.198      859.501
05/30/2014  23:55:00       -2.001      -10.918       14.745       58.748       38.120       25.783     3451.366     1453.132      664.762        0.295        0.278       11.100       21.993        3.926      341.779       16.728      859.476
05/30/2014  23:56:00       86.878       11.910       -3.354       54.111       38.320       26.083     2927.978     1468.410      680.333        0.639        0.254       87.691       19.466        0.049      341.449       16.169      859.501
05/30/2014  23:57:00       43.342       36.686       43.778       53.860       37.447       36.844     2900.887     1402.246     1357.466        0.540        0.283       56.784       22.379        0.155      341.386       16.062      859.515
05/30/2014  23:58:00       41.233       62.870       24.035       45.041       34.582       33.997     2028.686     1195.943     1155.781        0.530        0.219       75.185       17.788        0.056      341.319       15.950      859.529
05/30/2014  23:59:00       77.677       11.853       25.451       63.485       52.114       50.692     4030.373     2715.849     2569.690        0.807        0.466       78.576       21.084        0.072      341.124       15.619      859.548
